[[[{"header":{"parameterUnit":"kt","parameterCategory":2,"dx":1,"dy":1,"la1":29.285339999999998,"la2":30.599998999999997,"lo1":-89.70041500000002,"lo2":-87.6738589999976,"nx":112,"ny":82,"refTime":"2022-10-27T12:00:00:Z","depth":0,"parameterNumber":1,"parameterNumberName":"U-component_of_WINDS"},"data":[8.1579,8.0183,0.0,7.9223,7.8583,0.0,7.742,0.0,0.0,0.0,0.0,0.0,0.0,0.0,6.9254,6.8094,6.7477,6.6324,0.0,6.0995,0.0,0.0,0.0,0.0,0.0,0.0,0.0,0.0,6.367,0.0,0.0,0.0,6.528,6.7428,6.7501,6.8526,7.0674,7.0674,7.0674,7.0674,7.0674,7.0674,7.0674,7.0674,7.0674,7.0674,7.0674,7.0674,7.0674,7.0674,7.0674,7.0722,7.1088,7.1259,7.121,7.082,7.0674,7.0674,7.0674,7.0674,7.0674,7.0674,7.1381,7.2394,7.4628,7.6824,7.9203,8.1378,8.305,8.4225,8.4225,8.4225,8.4225,8.4225,8.4225,8.4225,8.4225,8.4225,8.4225,8.4225,8.4225,8.4225,8.4225,8.4225,8.4225,8.4225,8.4225,8.4225,8.4225,8.4225,8.4225,8.4225,8.4225,8.4225,8.4225,8.4225,8.4225,8.4225,8.4225,8.4225,8.4225,8.4225,8.4225,8.4225,8.4225,8.4225,8.4225,8.4225,8.4225,8.4225,8.4225,8.4225,0.0,0.0,7.6664,7.71,0.0,0.0,0.0,0.0,0.0,0.0,0.0,0.0,0.0,6.916,6.791,6.663,6.6746,6.6313,0.0,0.0,0.0,0.0,0.0,0.0,0.0,0.0,0.0,0.0,6.3987,0.0,0.0,6.4304,6.528,6.7428,6.7501,6.8526,7.0674,7.0674,7.0674,7.0674,7.0674,7.0674,7.0674,7.0674,7.0674,7.0674,7.0674,7.0674,7.0674,7.0674,7.0674,7.0674,7.0674,7.0674,7.0674,7.0674,7.0674,7.0674,7.0674,7.0674,7.0674,7.0674,7.0674,7.1381,7.4277,7.6338,7.8231,8.1189,8.305,8.4225,8.4225,8.4225,8.4225,8.4225,8.4225,8.4225,8.4225,8.4225,8.4225,8.4225,8.4225,8.4225,8.4225,8.4225,8.4225,8.4225,8.4225,8.4225,8.4225,8.4225,8.4225,8.4225,8.4225,8.4225,8.4225,8.4225,8.4225,8.4225,8.4225,8.4225,8.4225,8.4225,8.4225,8.4225,8.4225,8.4225,8.4225,8.4225,8.4225,8.4225,8.4225,8.4225,0.0,0.0,0.0,7.4163,0.0,0.0,0.0,0.0,6.9073,0.0,0.0,0.0,0.0,6.6339,6.5961,6.2209,6.474,0.0,0.0,0.0,0.0,0.0,0.0,0.0,0.0,0.0,0.0,0.0,0.0,0.0,6.4353,6.4304,6.5256,6.7379,6.7477,6.8502,7.06,7.0674,7.0674,7.0674,7.0674,7.0674,7.0674,7.0674,7.0674,7.0674,7.0674,7.0674,7.0674,7.0674,7.0674,7.0674,7.0674,7.0674,7.0674,7.0674,7.0674,7.0674,7.0674,7.0674,7.0674,7.0674,7.0857,7.172,7.6192,7.7557,7.8566,8.2893,8.4225,8.4225,8.4225,8.4225,8.4225,8.4225,8.4225,8.4225,8.4225,8.4225,8.4225,8.4225,8.4225,8.4225,8.4225,8.4225,8.4225,8.4225,8.4225,8.4225,8.4225,8.4225,8.4225,8.4225,8.4225,8.4225,8.4225,8.4225,8.4225,8.4225,8.4225,8.4225,8.4225,8.4225,8.4225,8.4225,8.4225,8.4225,8.4225,8.4225,8.4225,8.4225,8.4225,8.4225,7.3522,0.0,0.0,0.0,0.0,0.0,0.0,0.0,0.0,0.0,0.0,0.0,0.0,0.0,0.0,0.0,0.0,6.825,0.0,0.0,0.0,0.0,0.0,0.0,0.0,0.0,0.0,0.0,0.0,0.0,6.4353,6.4304,6.4914,6.6305,6.7086,6.816,6.9527,7.0283,7.0674,7.0674,7.0674,7.0674,7.0674,7.0674,7.0674,7.0674,7.0674,7.0674,7.0674,7.0674,7.0674,7.0674,7.0674,7.0674,7.0674,7.0674,7.0674,7.0674,7.0674,7.0674,7.0674,7.0674,7.1877,7.3747,7.6707,7.8705,8.0542,8.3392,8.4225,8.4225,8.4225,8.4225,8.4225,8.4225,8.4225,8.4225,8.4225,8.4225,8.4225,8.4225,8.4225,8.4225,8.4225,8.4225,8.4225,8.4225,8.4225,8.4225,8.4225,8.4225,8.4225,8.4225,8.4225,8.4225,8.4225,8.4225,8.4225,8.4225,8.4225,8.4225,8.4225,8.4225,8.4225,8.4225,8.4225,8.4225,8.4225,8.4225,8.4225,8.4225,8.4225,8.4225,0.0,0.0,0.0,0.0,0.0,0.0,6.8753,0.0,6.8579,0.0,0.0,0.0,0.0,0.0,0.0,0.0,0.0,0.0,0.0,0.0,0.0,0.0,0.0,0.0,0.0,0.0,0.0,0.0,0.0,6.5427,6.4353,6.4304,6.4792,6.5866,6.694,6.8013,6.8907,7.0161,7.0674,7.0674,7.0674,7.0674,7.0674,7.0674,7.0674,7.0674,7.0674,7.0674,7.0674,7.0674,7.0674,7.0674,7.0674,7.0674,7.0674,7.0674,7.0674,7.0674,7.0674,7.0674,7.0857,7.1877,7.3595,7.5993,7.8204,7.9862,8.135,8.3548,8.4225,8.4225,8.4225,8.4225,8.4225,8.4225,8.4225,8.4225,8.4225,8.4225,8.4225,8.4225,8.4225,8.4225,8.4225,8.4225,8.4225,8.4225,8.4225,8.4225,8.4225,8.4225,8.4225,8.4225,8.4225,8.4225,8.4225,8.4225,8.4225,8.4225,8.4225,8.4225,8.4225,8.4225,8.4225,8.4225,8.4225,8.4225,8.4225,8.4225,8.4225,8.4225,8.4225,8.4225,0.0,0.0,0.0,0.0,6.5641,0.0,0.0,0.0,6.58,6.7832,0.0,0.0,0.0,0.0,0.0,0.0,0.0,0.0,0.0,0.0,0.0,0.0,0.0,0.0,0.0,0.0,6.3743,6.2864,6.4621,6.5305,6.4353,6.4304,6.4743,6.5695,6.6769,6.7769,6.8721,6.9893,7.0503,7.0503,7.0625,7.0674,7.0674,7.0674,7.0674,7.0674,7.0674,7.0674,7.0674,7.0674,7.0674,7.0674,7.0674,7.0674,7.0674,7.0674,7.0674,7.0674,7.0674,7.0674,7.1016,7.3061,7.5127,7.7192,7.9341,8.0515,8.135,8.3207,8.3916,8.4225,8.4225,8.4225,8.4225,8.4225,8.4225,8.4225,8.4225,8.4225,8.4225,8.4225,8.4225,8.4225,8.4225,8.4225,8.4225,8.4225,8.4225,8.4225,8.4225,8.4225,8.4225,8.4225,8.4225,8.4225,8.4225,8.4225,8.4225,8.4225,8.4225,8.4225,8.4225,8.4225,8.4225,8.4225,8.4225,8.4225,8.4225,8.4225,8.4225,8.4225,8.4225,8.4225,0.0,0.0,0.0,0.0,0.0,6.3455,0.0,0.0,0.0,0.0,0.0,0.0,0.0,0.0,0.0,0.0,0.0,0.0,0.0,0.0,0.0,0.0,0.0,0.0,0.0,6.2083,6.323,6.3914,6.4377,6.4524,6.4304,6.4304,6.4402,6.4597,6.5646,6.6305,6.65,6.8428,6.9405,6.9405,7.0283,7.0674,7.0674,7.0674,7.0674,7.0674,7.0674,7.0674,7.0674,7.0674,7.0674,7.0674,7.0674,7.0674,7.0674,7.0674,7.0674,7.0674,7.0674,7.0674,7.0857,7.1199,7.1696,7.2394,7.4778,7.7982,8.1,8.135,8.2707,8.4225,8.4225,8.4225,8.4225,8.4225,8.4225,8.4225,8.4225,8.4225,8.4225,8.4225,8.4225,8.4225,8.4225,8.4225,8.4225,8.4225,8.4225,8.4225,8.4225,8.4225,8.4225,8.4225,8.4225,8.4225,8.4225,8.4225,8.4225,8.4225,8.4225,8.4225,8.4225,8.4225,8.4225,8.4225,8.4225,8.4225,8.4225,8.4225,8.4225,8.4225,8.4225,8.4225,6.3806,6.3198,6.2907,6.1628,0.0,0.0,0.0,0.0,6.7988,0.0,0.0,0.0,0.0,0.0,0.0,0.0,0.0,0.0,0.0,0.0,0.0,0.0,0.0,0.0,0.0,6.2303,6.3084,6.4206,6.4304,6.4304,6.4304,6.4304,6.4304,6.4304,6.5329,6.589,6.589,6.7501,6.8306,6.8306,6.8819,6.9087,6.9087,6.9087,6.9087,6.9112,6.9649,6.9893,6.9917,7.0478,7.0039,6.9087,6.9087,6.9087,6.9087,6.9087,6.9087,6.9087,6.9087,6.9429,7.005,7.1211,7.1918,7.2907,7.5127,7.8177,8.1028,8.2204,8.3392,8.4225,8.4225,8.4225,8.4225,8.4225,8.4225,8.4225,8.4225,8.4225,8.4225,8.4225,8.3731,8.3295,8.3295,8.3818,8.4225,8.4225,8.4225,8.4225,8.4225,8.4225,8.4225,8.4225,8.4225,8.4225,8.4225,8.4225,8.4225,8.4225,8.4225,8.4225,8.4225,8.4225,8.4225,8.4225,8.4225,8.4225,8.4225,8.3615,8.3615,8.4225,8.4225,8.4225,6.2008,6.1195,6.1253,6.1486,6.3576,0.0,6.5071,6.7936,7.0126,0.0,0.0,0.0,0.0,0.0,0.0,0.0,0.0,0.0,0.0,0.0,0.0,0.0,0.0,0.0,0.0,6.2962,6.3328,6.4231,6.4304,6.4304,6.4304,6.4304,6.4304,6.4304,6.5134,6.5573,6.5573,6.6647,6.7184,6.7184,6.7403,6.7501,6.7501,6.7501,6.7501,6.755,6.8404,6.877,6.8843,6.9697,6.9063,6.7501,6.7501,6.7501,6.7501,6.7501,6.7501,6.7501,6.7501,6.8062,6.8924,7.094,7.202,7.3109,7.4993,7.7167,7.9278,8.1493,8.2826,8.3498,8.3498,8.3498,8.3498,8.3498,8.3498,8.3498,8.3498,8.3498,8.3498,8.3498,8.2684,8.1957,8.1957,8.2829,8.3498,8.3498,8.3498,8.3498,8.3498,8.3498,8.3498,8.3498,8.3498,8.3498,8.3498,8.3498,8.3498,8.3498,8.3498,8.3498,8.3498,8.3498,8.3498,8.3498,8.3498,8.3615,8.3847,8.2597,8.248,8.3498,8.3498,8.3498,6.0914,6.1195,6.1457,6.2704,6.4914,0.0,6.5106,6.684,6.807,0.0,0.0,0.0,0.0,0.0,0.0,0.0,0.0,0.0,0.0,0.0,0.0,0.0,0.0,0.0,0.0,6.4109,6.4158,6.428,6.4304,6.4304,6.4304,6.4304,6.4304,6.4304,6.4402,6.4475,6.4475,6.5549,6.6061,6.6086,6.7037,6.7501,6.7501,6.7501,6.7501,6.7501,6.7623,6.7672,6.7672,6.7794,6.7696,6.7501,6.7501,6.7501,6.7501,6.7501,6.7501,6.7501,6.7501,6.7574,6.7672,6.7999,6.8072,6.817,6.8521,6.9957,7.225,7.4363,7.7929,8.0852,8.0852,8.0852,8.0852,8.0852,8.0852,8.0852,8.0852,8.0852,8.0852,8.0852,8.0735,8.0648,8.0648,8.0764,8.0852,8.0852,8.0852,8.0852,8.0852,8.0852,8.0852,8.0852,8.0852,8.0852,8.0852,8.0852,8.0852,8.0852,8.0852,8.0852,8.0852,8.0852,8.0852,8.0852,8.0852,8.1404,8.2568,8.1259,8.0735,8.0852,8.0852,8.0852,5.9648,5.9826,6.0371,6.2647,0.0,0.0,6.5599,6.7589,0.0,0.0,0.0,0.0,0.0,0.0,0.0,0.0,0.0,0.0,0.0,0.0,0.0,0.0,0.0,0.0,0.0,0.0,0.0,6.4304,6.4304,6.4304,6.4304,6.4304,6.4304,6.4304,6.4304,6.4304,6.4304,6.4743,6.4963,6.4963,6.5427,6.5622,6.5622,6.5622,6.5622,6.5671,6.6305,6.6574,6.6525,6.589,6.5622,6.5622,6.5622,6.5622,6.5622,6.5622,6.5622,6.5622,6.5622,6.6037,6.6574,6.6574,6.6989,6.7501,6.7501,6.8943,7.1051,7.1859,7.5267,7.8961,8.012,8.0445,8.0445,8.0445,8.0445,8.0445,8.0445,8.0445,8.0008,7.8496,7.8816,7.9339,7.9339,7.995,8.0445,8.0445,8.0445,8.0445,8.0445,8.0445,8.0445,8.0445,8.0445,8.0445,8.0445,8.0445,8.0445,8.0445,8.0445,8.0445,8.0445,8.0445,8.0445,8.0445,8.0445,8.0706,8.123,7.995,7.9339,7.9339,8.0096,8.0445,5.7878,0.0,0.0,0.0,0.0,0.0,0.0,0.0,0.0,0.0,0.0,0.0,0.0,0.0,0.0,0.0,0.0,0.0,0.0,0.0,0.0,0.0,0.0,0.0,0.0,0.0,0.0,0.0,6.4304,6.4304,6.4304,6.4304,6.4304,6.4304,6.4304,6.4304,6.4304,6.4304,6.4304,6.4304,6.4304,6.4304,6.4304,6.4304,6.4304,6.4353,6.5109,6.5451,6.5402,6.4621,6.4304,6.4304,6.4304,6.4304,6.4304,6.4304,6.4304,6.4304,6.4304,6.4792,6.5451,6.5451,6.5964,6.6622,6.6622,6.8527,7.0756,7.0123,7.2994,7.6676,7.8108,7.8902,7.9398,7.9398,7.9398,7.9398,7.9398,7.9398,7.8845,7.6984,7.7362,7.8002,7.8002,7.8787,7.9398,7.9398,7.9398,7.9398,7.9398,7.9398,7.9398,7.9398,7.9398,7.9398,7.9398,7.9398,7.9398,7.9398,7.9398,7.9398,7.9398,7.9398,7.9398,7.9398,7.9398,7.9398,7.9398,7.8467,7.8002,7.8031,7.8961,7.9398,0.0,0.0,0.0,6.131,6.4588,6.7331,6.5817,6.6508,6.6898,0.0,0.0,0.0,0.0,0.0,0.0,0.0,0.0,0.0,0.0,0.0,0.0,0.0,0.0,0.0,0.0,0.0,0.0,0.0,0.0,6.4304,6.4304,6.4304,6.4304,6.4304,6.4304,6.4304,6.4304,6.4304,6.4304,6.4304,6.4304,6.4304,6.4304,6.4304,6.4304,6.4304,6.4329,6.4353,6.4353,6.4304,6.4304,6.4304,6.4304,6.4304,6.4304,6.4304,6.4304,6.4304,6.4304,6.4304,6.4353,6.4353,6.4353,6.4402,6.4402,6.7297,7.0034,6.8097,7.0397,7.3645,7.3645,7.5185,7.6751,7.6751,7.6751,7.6751,7.6751,7.6751,7.6722,7.6635,7.6664,7.6693,7.6693,7.6722,7.6751,7.6751,7.6751,7.6751,7.6751,7.6751,7.6751,7.6751,7.6751,7.6751,7.6751,7.6751,7.6751,7.6751,7.6751,7.6751,7.6751,7.6751,7.6751,7.6751,7.6751,7.6751,7.6751,7.6693,7.6693,7.6693,7.6722,7.6751,5.5048,5.6945,5.9051,6.1847,6.3766,6.5021,6.538,6.5518,6.5227,6.4447,0.0,0.0,0.0,0.0,0.0,0.0,0.0,0.0,0.0,0.0,0.0,0.0,0.0,0.0,0.0,0.0,0.0,0.0,0.0,0.0,6.4304,6.4304,6.4304,6.4304,6.4304,6.4304,6.4304,6.4304,6.4304,6.4304,6.4304,6.4304,6.4304,6.4304,6.4304,6.4304,6.4304,6.4304,6.4304,6.4304,6.4304,6.4304,6.4304,6.4304,6.4304,6.4304,6.4304,6.4304,6.4304,6.4304,6.4304,6.4304,6.4304,6.4304,6.4304,6.5203,6.6275,6.5532,6.738,6.9852,7.1028,7.2887,7.4927,7.6324,7.6635,7.6635,7.6635,7.6635,7.6635,7.6635,7.6635,7.6635,7.6635,7.6635,7.6635,7.6635,7.6635,7.6635,7.6635,7.6635,7.6635,7.6635,7.6635,7.6635,7.6635,7.6635,7.6635,7.6635,7.6635,7.6635,7.6635,7.6635,7.6635,7.6635,7.6635,7.6635,7.6635,7.6635,7.6635,7.6635,7.6635,7.6635,5.3845,5.6168,5.8429,6.1144,6.3119,6.4348,6.5014,6.4732,6.4304,6.4304,0.0,0.0,0.0,0.0,0.0,0.0,0.0,0.0,0.0,0.0,0.0,0.0,0.0,0.0,0.0,0.0,0.0,0.0,0.0,0.0,6.367,6.3694,6.3889,6.428,6.4304,6.4304,6.4304,6.4304,6.4304,6.4304,6.4304,6.4304,6.4304,6.4304,6.4304,6.428,6.3865,6.3694,6.3718,6.4133,6.4304,6.4304,6.4304,6.4304,6.4304,6.4304,6.4304,6.4304,6.4304,6.4304,6.4304,6.4304,6.4304,6.4304,6.4304,6.4921,6.5368,6.5368,6.6463,6.8153,7.0723,7.1963,7.3062,7.5842,7.6635,7.6635,7.6635,7.6635,7.6635,7.6635,7.6635,7.6635,7.6635,7.6635,7.6635,7.6635,7.6635,7.6635,7.6635,7.6635,7.6635,7.6635,7.6635,7.6635,7.6635,7.6635,7.6635,7.6635,7.6635,7.6635,7.6635,7.6635,7.6635,7.6635,7.6635,7.6635,7.6635,7.6635,7.6635,7.6635,7.6635,7.6635,5.2566,5.6123,5.9191,5.9566,6.2575,6.5333,6.4534,6.4304,6.4304,6.4304,0.0,0.0,0.0,0.0,0.0,0.0,0.0,0.0,0.0,0.0,0.0,0.0,0.0,0.0,0.0,0.0,0.0,0.0,0.0,6.1473,6.2474,6.2547,6.3011,6.4084,6.4133,6.4133,6.4133,6.4133,6.4133,6.4133,6.4133,6.4133,6.4133,6.4133,6.4133,6.406,6.2986,6.2547,6.262,6.3694,6.4133,6.4133,6.4133,6.4133,6.4133,6.4133,6.4133,6.4133,6.4182,6.4206,6.4206,6.428,6.4304,6.4304,6.4304,6.5696,6.722,6.722,6.722,6.8153,7.2168,7.1785,7.1456,7.5529,7.6465,7.6635,7.6635,7.6635,7.6635,7.6635,7.6635,7.6635,7.6635,7.6635,7.6635,7.6635,7.6635,7.6635,7.6635,7.6635,7.6635,7.6635,7.6635,7.6635,7.6635,7.6635,7.6635,7.6635,7.6635,7.6635,7.6635,7.6635,7.6635,7.6635,7.6635,7.6635,7.6635,7.6635,7.6635,7.6635,7.6635,7.6635,5.4177,5.7303,5.9768,6.1462,6.3166,6.4576,6.4398,6.4304,6.4304,0.0,0.0,0.0,0.0,0.0,0.0,0.0,0.0,0.0,0.0,0.0,0.0,0.0,0.0,0.0,0.0,0.0,0.0,0.0,0.0,6.1132,6.1424,6.1424,6.1546,6.1839,6.1839,6.1839,6.1839,6.1839,6.1839,6.1839,6.1839,6.1839,6.1839,6.1839,6.1839,6.1839,6.1546,6.1424,6.1449,6.1742,6.1839,6.1839,6.1839,6.1839,6.1839,6.1839,6.1839,6.1961,6.2767,6.3035,6.3182,6.4011,6.4304,6.4304,6.4304,6.478,6.5062,6.5062,6.5062,6.5696,6.8311,6.9644,7.1001,7.368,7.5386,7.6635,7.6635,7.6635,7.6635,7.6635,7.6635,7.6635,7.6635,7.6635,7.6635,7.6635,7.6635,7.6635,7.6635,7.6635,7.6635,7.6635,7.6635,7.6635,7.6635,7.6635,7.6635,7.6635,7.6635,7.6635,7.6635,7.6635,7.6635,7.6635,7.6635,7.6635,7.6635,7.6635,7.6635,7.6635,7.6635,7.6635,5.3737,5.7129,5.9911,6.1522,6.3108,6.4304,6.4304,6.4304,6.4304,6.4304,0.0,0.0,0.0,0.0,0.0,0.0,0.0,0.0,0.0,0.0,0.0,0.0,0.0,0.0,0.0,0.0,0.0,0.0,0.0,5.9863,6.0326,6.0351,6.057,6.101,6.101,6.101,6.101,6.101,6.101,6.101,6.101,6.101,6.101,6.101,6.0522,5.9667,6.0155,6.0351,6.0399,6.0839,6.101,6.101,6.101,6.101,6.101,6.101,6.101,6.1107,6.1693,6.1913,6.201,6.2645,6.284,6.284,6.284,6.284,6.3003,6.3951,6.3628,6.3628,6.6673,6.8529,7.0243,7.2283,7.47,7.6315,7.5151,7.489,7.489,7.489,7.489,7.489,7.489,7.489,7.489,7.489,7.489,7.489,7.489,7.489,7.489,7.489,7.489,7.489,7.489,7.489,7.5151,7.5704,7.5733,7.5995,7.6606,7.6635,7.6635,7.6635,7.55,7.489,7.489,7.489,7.489,7.489,7.489,7.489,5.2785,5.6324,5.9619,6.0912,6.2767,6.4304,6.4304,6.4304,6.4304,6.4304,6.3401,0.0,0.0,0.0,0.0,0.0,0.0,0.0,0.0,0.0,0.0,0.0,0.0,0.0,0.0,0.0,0.0,0.0,0.0,0.0,5.9253,5.9301,5.9716,6.057,6.0619,6.0619,6.0619,6.0619,6.0619,6.0619,6.0619,6.0619,6.0619,6.0619,5.9619,5.7959,5.8886,5.9301,5.9375,6.0229,6.0619,6.0619,6.0619,6.0619,6.0619,6.0619,6.0619,6.0619,6.0766,6.0814,6.0839,6.0961,6.101,6.101,6.101,6.101,6.1484,6.328,6.2375,6.1907,6.5775,6.7705,6.9051,7.1175,7.3645,7.5165,7.3069,7.2708,7.2708,7.2708,7.2708,7.2708,7.2708,7.2708,7.2708,7.2708,7.2708,7.2708,7.2708,7.2708,7.2708,7.2708,7.2708,7.2708,7.2708,7.2708,7.3203,7.4308,7.4366,7.489,7.6053,7.6111,7.6111,7.6111,7.3872,7.2708,7.2708,7.2708,7.2708,7.2708,7.2708,7.2708,5.4591,5.691,5.8862,6.1644,6.3328,6.4304,6.4304,6.4304,6.4304,6.4304,6.3401,6.262,0.0,0.0,0.0,0.0,0.0,0.0,0.0,0.0,0.0,0.0,0.0,0.0,0.0,0.0,0.0,0.0,0.0,5.7984,5.8179,5.8179,5.8276,5.8447,5.8447,5.8447,5.8447,5.8447,5.8447,5.8447,5.8447,5.8447,5.8447,5.8447,5.8252,5.7935,5.8106,5.8179,5.8203,5.8374,5.8447,5.8447,5.8447,5.8447,5.8447,5.8447,5.8447,5.8569,5.9448,5.9789,5.9911,6.0741,6.101,6.101,6.101,6.101,6.1168,6.146,6.1326,6.1617,6.3817,6.5705,6.7633,6.9752,7.0622,7.1375,7.2528,7.2708,7.2708,7.2708,7.2708,7.2708,7.2708,7.2708,7.2708,7.2708,7.2708,7.2708,7.2708,7.2708,7.2708,7.2708,7.2708,7.2708,7.2708,7.2708,7.2825,7.3028,7.3057,7.3145,7.3377,7.3406,7.3406,7.3406,7.2941,7.2708,7.2708,7.2708,7.2708,7.2708,7.2708,7.2708,5.3688,5.5787,5.7666,6.0326,6.2669,6.4304,6.4304,6.4304,6.3962,6.2815,6.2157,6.162,6.1107,0.0,0.0,0.0,0.0,0.0,0.0,0.0,0.0,0.0,0.0,0.0,0.0,0.0,0.0,0.0,0.0,5.791,5.791,5.791,5.791,5.791,5.791,5.791,5.791,5.791,5.791,5.791,5.791,5.791,5.791,5.791,5.791,5.791,5.791,5.791,5.791,5.791,5.791,5.791,5.791,5.791,5.791,5.791,5.791,5.7984,5.8496,5.8667,5.8764,5.9253,5.9399,5.9399,5.9399,5.9399,5.9399,5.9399,5.9399,5.9553,6.0551,6.2687,6.5144,6.7014,6.8547,6.9655,7.063,7.0789,7.0789,7.0789,7.0789,7.0789,7.0789,7.0789,7.0789,7.0789,7.0789,7.0789,7.0789,7.0789,7.0789,7.0789,7.0789,7.0789,7.0789,7.0789,7.108,7.1749,7.1778,7.2069,7.2708,7.1458,7.0789,7.0789,7.0789,7.0789,7.0789,7.0789,7.0789,7.0789,7.0789,7.0789,5.2785,5.4787,5.6763,5.896,6.14,6.3377,6.3816,6.4133,6.3743,6.1766,6.1376,6.0985,5.9741,5.8838,0.0,0.0,0.0,0.0,0.0,0.0,0.0,0.0,0.0,0.0,0.0,0.0,0.0,0.0,0.0,0.0,5.791,5.791,5.791,5.791,5.791,5.791,5.791,5.791,5.791,0.0,5.791,5.791,5.791,5.791,5.791,5.791,5.791,5.791,5.791,5.791,5.791,5.791,5.791,5.791,5.791,5.791,5.791,5.791,5.791,5.791,5.791,5.791,5.791,5.791,5.791,5.791,5.791,5.791,5.791,5.8036,5.8858,6.0913,6.2968,6.4042,6.5764,6.7333,6.775,6.775,6.7879,6.8293,6.8449,6.8449,6.8888,6.9015,6.9015,6.9015,6.9015,6.9015,6.9015,6.9015,6.9015,6.9015,6.9015,6.9015,6.9015,6.9015,6.9451,7.044,7.0498,7.0934,7.1894,7.0062,6.9015,6.9015,6.9015,6.9015,6.9015,6.9015,6.9015,6.9015,6.9015,6.9015,5.3884,5.5323,5.6763,5.896,5.9716,6.0448,6.2352,6.3572,6.3938,6.2718,6.2474,6.1864,5.9887,5.9423,5.9057,0.0,0.0,0.0,0.0,0.0,0.0,0.0,0.0,0.0,0.0,0.0,0.0,0.0,0.0,0.0,0.0,5.791,5.791,5.791,5.791,5.791,5.791,5.791,5.791,5.791,5.791,5.791,5.791,5.791,5.791,5.791,5.791,5.791,5.791,5.791,5.791,5.791,5.791,5.791,5.791,5.791,5.791,5.791,5.791,5.791,5.791,5.791,5.791,5.791,5.791,5.791,5.791,5.791,5.791,5.8734,6.2011,6.3047,6.2987,6.1457,6.1236,6.187,6.3521,6.3934,6.4343,6.6011,6.6407,6.6857,6.8732,6.9015,6.9015,6.9015,6.9015,6.9015,6.9015,6.9015,6.9015,6.9015,6.9015,6.9015,6.9015,6.9015,6.9073,6.9189,6.9189,6.9247,6.9335,6.9131,6.9015,6.9015,6.9015,6.9015,6.9015,6.9015,6.9015,6.9015,6.9015,6.9015,5.1297,5.3444,5.5494,5.6348,5.8057,5.9887,6.1327,6.1522,6.1302,6.0839,6.0741,6.0302,5.8838,5.8545,0.0,0.0,0.0,0.0,0.0,0.0,0.0,0.0,0.0,0.0,0.0,0.0,0.0,0.0,0.0,0.0,0.0,5.791,5.791,5.791,5.791,5.791,5.791,5.791,5.791,5.791,5.791,5.791,5.791,5.791,5.791,5.791,5.791,5.791,5.791,5.791,5.791,5.791,5.791,5.791,5.791,5.791,5.791,5.791,5.791,5.791,5.791,5.791,5.791,5.791,5.791,5.791,5.791,5.791,5.791,5.8336,5.9693,6.0106,6.0516,6.1985,6.3106,6.407,6.4885,6.502,6.5584,6.7434,6.785,6.8136,6.8859,6.9015,6.9015,6.9015,6.9015,6.9015,6.9015,6.9015,6.9015,6.9015,6.9015,6.9015,6.9015,6.9015,6.9015,6.9015,6.9015,6.9015,6.9015,6.9015,6.9015,6.9015,6.9015,6.9015,6.9015,6.9015,6.9015,6.9015,6.9015,6.9015,4.9491,5.1687,5.3835,5.4469,5.6373,5.8423,5.9789,5.9545,5.9204,5.9838,5.996,5.9545,5.8179,5.8179,0.0,5.7959,0.0,0.0,0.0,0.0,0.0,0.0,0.0,0.0,0.0,0.0,0.0,0.0,0.0,0.0,0.0,5.791,5.791,5.791,5.791,5.791,5.791,5.791,5.791,5.791,5.791,5.791,5.791,5.791,5.791,5.791,5.791,5.791,5.791,5.791,5.791,5.791,5.791,5.791,5.791,5.791,5.791,5.791,5.791,5.791,5.791,5.791,5.791,5.791,5.791,5.791,5.791,5.791,5.791,5.8036,5.8586,5.8312,5.861,6.121,6.2714,6.3796,6.4343,6.4479,6.5182,6.7722,6.8165,6.8293,6.8888,6.9015,6.9015,6.9015,6.9015,6.9015,6.9015,6.9015,6.9015,6.9015,6.9015,6.9015,6.9015,6.9015,6.9015,6.9015,6.9015,6.9015,6.9015,6.9015,6.9015,6.9015,6.9015,6.9015,6.9015,6.9015,6.9015,6.9015,6.9015,6.9015,4.9491,5.0589,5.198,5.4103,5.464,5.525,5.7447,5.7935,5.852,6.057,6.101,6.0375,5.8301,5.8764,5.9155,5.8081,5.791,0.0,0.0,0.0,0.0,0.0,0.0,0.0,0.0,0.0,0.0,0.0,0.0,0.0,0.0,5.791,5.791,5.791,5.791,5.791,5.791,5.791,5.791,5.791,5.791,5.791,5.791,5.791,5.791,5.791,5.791,5.791,5.791,5.791,5.791,5.791,5.791,5.791,5.791,5.791,5.791,5.791,5.791,5.791,5.791,5.791,5.791,5.791,5.791,5.791,5.791,5.791,5.791,5.8312,6.02,5.9252,5.791,5.791,5.8061,5.8461,6.0345,6.0753,6.1702,6.545,6.6143,6.6698,6.8732,6.9015,6.9015,6.9015,6.9015,6.9015,6.9015,6.9015,6.9015,6.9015,6.9015,6.9015,6.9015,6.9015,6.9015,6.9015,6.9015,6.9015,6.9015,6.9015,6.9015,6.9015,6.9015,6.9015,6.9015,6.9015,6.9015,6.9015,6.9015,6.9015,4.7539,4.9491,5.1419,5.1321,5.2981,5.5006,5.6446,5.7349,5.7886,5.7764,5.835,5.8228,5.6056,5.5934,5.63,5.669,5.6763,5.7032,0.0,0.0,0.0,0.0,0.0,0.0,0.0,0.0,0.0,0.0,0.0,0.0,0.0,5.791,5.791,5.791,5.791,5.791,5.791,5.791,5.791,5.791,5.6425,5.5588,5.5765,5.7233,5.791,5.791,5.791,5.791,5.791,5.791,5.791,5.791,5.791,5.791,5.791,5.791,5.791,5.791,5.791,5.791,5.791,5.791,5.791,5.791,5.791,5.791,5.791,5.791,5.791,5.8061,5.8586,5.9252,5.9546,5.8186,5.8858,5.9935,6.0465,6.156,6.3218,6.5584,6.7146,6.8552,7.002,6.9596,6.9306,7.0207,6.9567,6.9015,6.9015,6.9015,6.9015,6.9015,6.9015,6.9015,6.9015,6.9015,6.9015,6.9015,6.9015,6.9015,6.9015,6.9015,6.9015,6.9015,6.9015,6.9015,6.9015,6.9015,6.9015,6.9015,6.9015,6.9015,4.6538,4.8417,5.0247,5.037,5.1321,5.2615,5.4079,5.4957,5.5616,5.6129,5.647,5.6202,5.4504,5.3831,5.3759,5.443,5.5157,5.5569,5.5609,0.0,0.0,0.0,0.0,0.0,0.0,0.0,0.0,0.0,0.0,0.0,0.0,5.791,5.791,5.791,5.7082,5.7082,5.791,5.6296,5.5564,5.5556,5.4238,5.3913,5.4737,5.6436,5.7276,5.73,5.7715,5.8154,5.8496,5.8081,5.8154,5.852,5.852,5.852,5.8569,5.8935,5.8838,5.852,5.852,5.852,5.8447,5.8057,5.791,5.791,5.791,5.791,5.791,5.791,5.791,5.8081,5.8886,5.9899,6.0453,5.9364,5.9899,6.1151,6.2718,6.3846,6.554,6.808,6.9545,7.0673,7.1458,7.0934,7.0527,7.0876,7.0265,6.9567,6.9073,6.9015,6.9015,6.9015,6.9015,6.9015,6.9015,6.9015,6.9015,6.9015,6.9887,7.0411,7.0411,6.9975,6.9742,6.9742,6.9247,6.9015,6.9015,6.9015,6.9015,6.9015,6.9015,6.9015,4.6245,4.7319,4.8612,5.0614,4.9581,4.8499,5.0665,5.12,5.2074,5.4842,5.4841,5.4047,5.3097,5.215,5.1501,5.1424,5.3137,5.3782,5.2002,0.0,0.0,0.0,0.0,0.0,0.0,0.0,0.0,0.0,0.0,0.0,5.7516,5.7666,5.7666,5.7516,5.5529,5.5376,5.7191,5.3339,5.1306,5.1361,5.1508,5.248,5.4143,5.5423,5.6031,5.6103,5.7123,5.8319,5.9326,5.8325,5.8496,5.9399,5.9399,5.9448,5.9619,6.0644,6.0424,5.9619,5.9619,5.9619,5.9448,5.8472,5.8154,5.8154,5.8154,5.8154,5.8154,5.8154,5.8154,5.8569,6.0522,6.101,6.101,6.101,6.1168,6.2195,6.5844,6.6873,6.8173,7.1846,7.2575,7.2737,7.2825,7.2767,7.2359,7.1341,7.1109,7.0614,6.9451,6.9306,6.9306,6.9306,6.9306,6.9306,6.9306,6.9306,6.9306,6.9306,7.1458,7.2708,7.2708,7.1632,7.1051,7.1051,6.9887,6.9306,6.9306,6.9189,6.916,6.916,6.9073,6.9015,4.5294,4.6172,4.7148,4.7636,4.6727,4.6046,4.7269,4.813,4.8508,4.8485,4.9918,5.0388,4.7979,4.8447,4.9106,4.8391,5.1168,5.308,5.1885,5.3615,5.4384,0.0,0.0,0.0,0.0,0.0,0.0,0.0,0.0,0.0,5.319,5.4625,5.477,5.3214,5.2724,5.1982,5.1128,5.0066,4.9102,4.8112,4.9804,5.0197,4.9786,5.3356,5.5059,5.5059,5.5316,5.6544,5.8276,5.8008,5.8057,5.8276,5.8276,5.8789,5.9619,6.0644,6.0863,6.0668,6.0668,6.0668,6.0619,6.0375,6.0302,6.0302,6.0302,6.0302,6.0302,6.0302,6.0302,6.0399,6.0888,6.101,6.101,6.101,6.2219,6.3715,6.4602,6.7191,6.9502,7.0366,7.1682,7.3028,7.4017,7.3377,7.297,7.3639,7.2941,7.2185,7.1894,7.1865,7.1865,7.1865,7.1865,7.1865,7.1865,7.1865,7.1865,7.1865,7.2388,7.2708,7.2708,7.2447,7.2301,7.2301,7.201,7.1865,7.1836,7.0934,7.0469,7.044,6.948,6.9015,4.2624,4.3511,4.4185,4.372,4.3133,4.2969,4.3937,4.4552,4.5036,4.5409,4.6238,4.6394,4.4786,4.5664,4.6388,4.5302,4.7622,4.9434,4.9058,5.0304,5.1367,0.0,0.0,0.0,0.0,0.0,0.0,0.0,0.0,0.0,5.0405,5.1462,5.1609,5.0531,4.9442,4.9014,4.8929,4.6678,4.5493,4.5789,4.7274,4.8049,4.8238,5.1171,5.295,5.3943,0.0,5.6202,5.8618,5.8106,5.8203,5.8642,5.8642,5.9008,5.9594,6.0131,6.0619,6.0936,6.0497,6.0619,6.0936,6.0473,6.0644,6.101,6.101,6.101,6.101,6.101,6.101,6.101,6.101,6.101,6.1132,6.1644,6.2675,6.3879,6.5301,6.806,7.0426,7.1346,7.3184,7.4715,7.5413,7.4977,7.4541,7.4599,7.4017,7.3377,7.2796,7.2708,7.2708,7.2708,7.2708,7.2708,7.2708,7.2708,7.2708,7.2708,7.2708,7.2708,7.2708,7.2185,7.2156,7.2708,7.2185,7.2156,7.2708,7.2069,7.1749,7.172,7.1051,7.0731,4.0025,4.0359,4.0406,3.9465,3.9273,3.9487,4.0406,4.0706,4.1242,4.3237,4.3043,4.27,4.2309,4.3204,4.3739,4.2782,4.39,4.485,4.5137,4.626,4.7863,5.0315,0.0,0.0,0.0,0.0,0.0,0.0,0.0,4.8019,4.8019,4.8341,4.8341,4.8019,4.6178,4.6108,4.7803,4.3423,4.2065,4.3819,4.4975,4.6244,4.781,4.8888,5.0506,5.2428,0.0,5.5458,5.8203,5.7314,5.7458,5.8275,5.8586,5.8862,5.9007,5.9342,6.0155,6.0912,6.0033,6.0302,6.0888,6.0009,6.0326,6.101,6.101,6.101,6.101,6.101,6.101,6.101,6.101,6.101,6.1229,6.2157,6.2514,6.3542,6.6344,6.8649,7.0761,7.2653,7.4642,7.6024,7.6024,7.6024,7.5646,7.4482,7.4337,7.393,7.2854,7.2708,7.2708,7.2708,7.2708,7.2708,7.2708,7.2708,7.2708,7.2708,7.2708,7.2708,7.2708,7.1749,7.169,7.2708,7.172,7.169,7.2708,7.2534,7.2447,7.2447,7.2243,7.2156,4.0025,3.8129,3.5931,3.5795,3.5776,3.5795,3.5931,3.6494,3.7095,3.7465,3.9231,4.0288,3.8648,4.0418,4.1979,4.1838,4.1221,4.142,4.2984,4.4834,4.5696,4.5322,4.4994,0.0,0.0,0.0,0.0,0.0,0.0,4.3668,4.3668,4.5277,4.5444,4.3816,4.3373,4.2884,4.2356,4.1638,4.1787,4.2811,4.549,4.6272,4.5559,4.7444,4.8613,4.8939,0.0,0.0,5.2636,5.2503,5.2526,5.2977,5.4712,5.5871,5.6957,5.8827,6.0155,6.101,6.0839,6.0888,6.0985,6.0839,6.0888,6.101,6.101,6.101,6.101,6.101,6.101,6.101,6.101,6.101,6.1058,6.1229,6.2625,6.4047,6.4508,6.7463,7.0201,7.051,7.1983,7.3319,7.3319,7.3319,7.3232,7.3057,7.2999,7.2941,7.2737,7.2708,7.2708,7.2708,7.2708,7.2708,7.2708,7.2708,7.2708,7.2708,7.2708,7.2708,7.2708,7.2534,7.2534,7.2708,7.2534,7.2534,7.2708,7.169,7.1196,7.1167,7.0091,6.9567,3.7256,3.6149,3.5004,3.5004,3.5004,3.5004,3.5004,3.5289,3.5574,3.5574,3.6534,3.7348,3.6851,3.7791,3.8896,3.9819,4.0455,4.1015,4.1192,4.2413,4.382,4.549,4.4331,4.3626,0.0,0.0,0.0,0.0,0.0,4.1251,4.1251,4.2603,4.2864,4.1977,4.1997,4.1968,4.1952,4.2389,4.2806,4.3205,4.4977,4.5578,4.497,4.5947,4.7061,0.0,0.0,0.0,5.1479,5.1479,5.1479,5.1617,5.2573,5.3159,5.3722,5.4722,5.5495,5.6024,5.7156,5.7627,5.7902,5.9648,6.057,6.101,6.101,6.0229,5.9326,5.9326,5.9326,5.9326,5.9326,5.9326,5.9472,6.0058,6.0934,6.1984,6.3562,6.6166,6.8628,6.9698,7.1411,7.2708,7.2708,7.2708,7.2708,7.2708,7.2708,7.2708,7.2708,7.2708,7.2708,7.2708,7.2708,7.2708,7.2708,7.1487,7.0702,7.0702,7.0702,7.0702,7.0702,7.0702,7.0702,7.0702,7.14,7.2069,7.2708,7.2156,7.1894,7.1894,7.1283,7.1022,3.5251,0.0,3.5593,3.5593,3.5441,3.5289,0.0,3.5137,3.5004,3.5004,3.5004,3.5194,3.5821,3.6105,3.6637,3.7928,3.9701,4.0626,3.9878,4.0433,4.2103,4.5309,4.3875,4.3394,4.573,0.0,0.0,0.0,0.0,3.9978,3.9978,4.0794,4.1269,4.1269,4.1477,4.1895,4.254,4.2977,4.3167,4.3186,4.4021,4.4401,4.4401,4.4401,4.5462,0.0,0.0,0.0,5.0004,5.0004,5.0004,5.0004,5.0491,5.0814,5.0814,5.1297,5.1479,5.1777,5.3968,5.4614,5.5063,5.8199,5.9667,6.0277,6.0277,5.9179,5.791,5.791,5.791,5.791,5.791,5.791,5.8106,5.8935,5.913,5.9763,6.1861,6.4341,6.6471,6.7997,7.0148,7.1836,7.1836,7.1836,7.1836,7.1836,7.1836,7.1836,7.1836,7.1836,7.1836,7.1836,7.1836,7.1836,7.1836,7.012,6.9015,6.9015,6.9015,6.9015,6.9015,6.9015,6.9015,6.9015,6.9975,7.0934,7.1836,7.1836,7.1543,7.1116,7.1543,7.1543,0.0,3.6713,3.732,3.732,3.6732,3.6143,3.6143,3.5555,0.0,3.5004,3.5004,3.5023,3.508,3.5726,3.6257,3.6252,3.77,3.8871,3.8782,3.9541,4.0567,4.1482,4.2244,0.0,4.2938,0.0,0.0,0.0,0.0,0.0,3.9978,4.0794,4.1269,4.1269,4.2028,4.2484,4.254,4.1819,4.1458,4.1477,4.2313,4.273,4.273,4.273,4.3292,0.0,0.0,0.0,0.0,4.5291,4.5291,4.5629,4.7706,4.8512,4.8676,5.0814,5.1479,5.1777,5.3968,5.4614,5.4947,5.733,5.8081,5.813,5.813,5.8032,5.791,5.791,5.791,5.791,5.791,5.791,5.7935,5.8008,5.8032,5.8032,5.8256,6.1155,6.3624,6.3763,6.6744,6.9277,6.9277,6.9277,6.9277,6.9277,6.9277,6.9277,6.9277,6.9277,6.9277,6.9277,6.9277,6.9277,6.9277,6.9102,6.9015,6.9015,6.9015,6.9015,6.9015,6.9015,6.9015,6.9015,6.9102,6.9189,6.9277,6.9277,6.8395,6.6528,6.8423,6.8266,3.4772,3.4307,3.3921,3.5275,3.4844,3.4251,3.4251,3.4017,3.3819,3.3819,3.3186,3.2633,3.2633,3.2855,3.3042,3.3185,3.4204,3.5358,3.6735,3.8007,3.9112,3.9606,4.0993,0.0,0.0,0.0,0.0,0.0,0.0,0.0,4.1553,4.1876,4.1819,4.1288,4.1591,4.2009,4.254,4.1155,4.1003,4.2066,4.1857,4.2028,4.254,4.254,4.2711,0.0,0.0,0.0,0.0,4.3452,4.3452,4.3616,4.4394,4.5032,4.5482,4.6285,4.6953,4.7727,4.9962,5.1574,5.3048,5.5125,5.6754,5.791,5.791,5.791,5.791,5.791,5.791,5.791,5.791,5.791,5.791,5.791,5.791,5.8186,5.9399,6.0753,6.2408,6.4615,6.6171,6.7564,6.8732,6.9015,6.9015,6.9015,6.9015,6.9015,6.9015,6.9015,6.9015,6.9015,6.9015,6.9015,6.9015,6.9015,6.9015,6.9015,6.9015,6.9015,6.9015,6.9015,6.9015,6.9015,6.9015,6.8449,6.7146,6.7146,6.6303,6.4479,6.5182,6.5048,3.558,3.4914,3.4182,3.4976,3.4548,3.3685,3.2949,3.2619,3.245,3.245,3.1661,3.1101,3.1101,3.1101,3.1164,3.1535,3.2131,3.307,3.51,3.6364,3.7125,3.7692,3.9518,4.1288,0.0,0.0,0.0,0.0,0.0,0.0,4.2123,4.2389,4.1823,4.0468,4.0033,4.0494,4.1724,4.0035,3.9902,4.1326,4.0737,4.0598,4.0756,4.1408,4.154,0.0,0.0,0.0,0.0,4.254,4.254,4.254,4.254,4.2882,4.3376,4.3376,4.3717,4.4526,4.6716,4.8475,5.0069,5.2105,5.4555,5.6576,5.6576,5.6185,5.607,5.6713,5.6885,5.6885,5.6885,5.6885,5.6885,5.6885,5.6885,5.7279,5.8464,5.9131,6.0481,6.3311,6.4736,6.6116,6.7793,6.8576,6.9015,6.9015,6.9015,6.9015,6.9015,6.9015,6.9015,6.9015,6.9015,6.8666,6.7851,6.7793,6.7793,6.7793,6.7793,6.7793,6.7793,6.7793,6.7515,6.6957,6.6957,6.611,6.4287,6.4287,6.3626,6.2391,6.171,6.1647,3.8352,3.9184,3.9353,3.7312,3.6119,3.4925,3.2908,3.1758,3.1101,3.1101,3.1117,3.0969,3.0969,3.0969,3.1205,3.1882,3.2161,3.2823,3.3929,3.4444,3.4698,3.523,3.7462,3.9243,4.0029,4.0268,0.0,0.0,0.0,0.0,4.115,4.2066,4.1269,3.8448,3.7373,3.7908,3.994,3.8307,3.7871,3.8541,3.8541,3.8066,3.7004,3.9031,3.9304,0.0,0.0,0.0,0.0,4.2522,4.2522,4.2522,4.2522,4.2522,4.2522,4.2522,4.254,4.2842,4.4925,4.5666,4.5977,4.8301,5.0932,5.3413,5.3413,5.2521,5.2002,5.4022,5.4616,5.464,5.464,5.464,5.464,5.464,5.464,5.464,5.464,5.6087,5.7608,5.8902,6.204,6.4817,6.5891,6.7693,6.8986,6.8986,6.8986,6.8986,6.8986,6.8986,6.8986,6.8986,6.8986,6.7939,6.5321,6.5118,6.5118,6.5118,6.5118,6.5118,6.5118,6.5118,6.4311,6.2629,6.2601,6.182,6.0257,6.0257,6.0257,6.0127,5.817,5.789,3.2699,3.21,3.1327,3.2269,3.1762,3.0947,3.0498,3.004,2.9891,2.9891,2.7859,2.6056,2.6056,2.4894,2.3918,2.3712,2.426,2.5875,2.9181,2.9897,3.1089,3.3516,3.5849,3.6995,3.6134,3.7593,0.0,0.0,0.0,0.0,3.9153,3.72,3.5918,3.5903,3.3756,3.3766,3.6284,3.3394,3.2548,3.392,3.3643,3.4496,3.6362,3.7387,3.8377,3.9537,4.0205,0.0,0.0,4.0737,4.0737,4.0737,4.0737,4.1117,4.1648,4.1648,4.2028,4.2701,4.3303,4.4473,4.5821,4.6441,4.8322,4.997,4.7761,4.8428,5.0107,5.2025,5.2607,5.2943,5.4331,5.464,5.464,5.464,5.464,5.464,5.464,5.5016,5.6301,5.9018,6.0535,6.2101,6.4947,6.5858,6.6252,6.6252,6.6252,6.6252,6.6252,6.6252,6.6252,6.6252,6.6252,6.5961,6.5176,6.5118,6.5118,6.5118,6.5118,6.5118,6.5118,6.3918,6.3125,6.2601,6.144,5.9996,5.817,5.817,5.7521,5.6339,5.5694,5.5612,3.2858,3.1487,3.0071,3.0364,3.0234,2.9714,2.9026,2.8099,2.7477,2.77,2.5169,2.3012,2.3012,2.2037,2.1149,2.1062,2.1333,2.2625,2.5516,2.5961,2.7132,3.024,3.2789,3.4401,0.0,0.0,3.6727,0.0,0.0,0.0,3.4351,3.151,3.057,3.2064,3.031,3.0726,3.3203,3.0737,3.0161,3.1402,3.1273,3.1953,3.3565,3.4778,3.5595,3.6351,3.714,0.0,0.0,3.8726,3.9335,3.9978,3.9978,4.0301,4.0756,4.0756,4.1079,4.1515,4.1515,4.2395,4.3418,4.3418,4.4317,4.5275,4.4117,4.5071,4.7006,4.9786,4.993,4.993,5.2602,5.2766,5.2486,5.3208,5.3347,5.3347,5.3347,5.3875,5.5018,5.7626,5.927,6.096,6.356,6.4581,6.5118,6.5118,6.5118,6.5118,6.5118,6.5118,6.5118,6.5118,6.4187,6.3576,6.3576,6.3576,6.3576,6.3576,6.3576,6.3576,6.3576,6.2044,6.0776,6.0132,5.847,5.6815,5.5027,5.5027,5.4535,5.3347,5.3347,5.3591,3.5955,3.4687,3.2618,3.0759,3.0246,2.9889,2.841,2.63,2.4704,2.5192,2.2971,2.0821,2.0821,2.0482,2.0448,2.0987,2.0776,2.1013,2.2339,2.2297,2.3303,2.635,2.8764,3.1142,3.3454,3.3955,3.3682,0.0,0.0,0.0,2.7808,2.5892,2.5717,2.7721,2.7445,2.8285,3.0263,2.9516,2.9377,3.012,3.0248,2.9964,2.9649,3.1732,3.1966,3.0832,3.2746,0.0,0.0,3.6695,3.7791,3.9505,3.9505,3.9505,3.9505,3.9656,3.9808,3.9827,3.9978,3.9978,3.9978,3.9978,3.9978,4.0411,4.1974,4.2544,4.3256,4.7026,4.6722,4.6276,5.0294,4.9886,4.9041,5.1017,5.1577,5.1577,5.1577,5.2668,5.3938,5.5277,5.8131,6.0647,6.2068,6.3696,6.4769,6.4769,6.4769,6.4769,6.4769,6.4769,6.4769,6.4769,6.2675,6.1195,6.1195,6.1195,6.1195,6.1195,6.1195,6.1195,6.1195,5.9711,5.8218,5.6622,5.4907,5.3295,5.1686,5.1686,5.1686,5.1577,5.1577,5.1956,2.9833,2.9487,2.8762,2.8739,2.8347,2.8161,2.8087,2.63,2.4704,2.5192,2.0239,1.5742,1.5742,1.2816,1.0549,1.0591,1.2416,1.465,1.6854,1.8756,2.1035,2.3587,2.6207,2.8071,2.864,2.9956,0.0,3.062,0.0,0.0,2.5745,2.4639,2.4951,2.6922,2.5511,2.5641,2.7473,2.5928,2.5231,2.5368,2.6353,2.7535,2.9006,3.047,3.1655,3.3063,3.3379,0.0,0.0,3.434,3.4637,3.495,3.495,3.495,3.528,3.7004,3.7637,3.7791,3.9505,3.9978,3.9978,3.9978,3.9978,4.0129,4.0561,4.0692,4.1122,4.3402,4.3693,4.4252,4.8166,4.8904,4.9041,5.1017,5.1577,5.1577,5.1577,5.1819,5.2875,5.5548,5.6725,5.818,6.0944,6.1865,6.2122,6.2122,6.2122,6.2122,6.2122,6.2122,6.2122,6.2122,6.1515,6.1195,6.1195,6.1195,6.1195,6.1195,6.1195,6.1195,6.1195,5.9711,5.872,5.8337,5.6744,5.5007,5.3295,5.3295,5.2668,5.1577,5.1577,5.1699,3.1246,2.986,2.8021,2.681,2.6431,2.596,2.5206,2.3001,2.1451,2.2089,1.8197,1.439,1.3208,1.1073,0.9047,0.77,0.873,1.073,1.3238,1.4794,1.7111,2.0943,2.2453,2.3873,2.4775,2.5835,2.6667,2.697,0.0,2.6313,2.4029,2.2145,2.1563,2.2538,2.1552,2.1985,2.384,2.3006,2.3031,2.3931,2.3745,2.4408,2.5721,2.5459,2.6782,2.8989,2.8989,0.0,3.211,3.211,3.2746,3.371,3.371,3.371,3.371,3.4967,3.528,3.5435,3.6523,3.7619,3.8403,3.7312,3.7619,3.8556,3.8556,3.9183,4.0411,4.2249,4.2122,4.2564,4.7307,4.7888,4.7865,5.0858,5.1577,5.1577,5.1577,5.206,5.3165,5.4907,5.6499,5.8099,5.9826,6.0685,6.1195,6.1195,6.1195,6.1195,6.1195,6.1807,6.2514,6.31,6.3206,6.3206,6.3206,6.2593,6.2217,6.2217,6.1614,6.1195,6.1195,5.9711,5.8955,5.8955,5.723,5.6006,5.5007,5.4273,5.3425,5.2668,5.1819,5.1577,3.3165,3.0697,2.765,2.5095,2.4192,2.375,2.1946,1.9179,1.7263,1.827,1.5664,1.2584,1.0657,0.994,0.8984,0.6835,0.6832,0.8004,1.0545,1.1331,1.346,1.8285,1.9186,2.0156,2.1863,2.2433,0.0,0.0,0.0,2.2419,2.1956,1.9628,1.8149,1.807,1.807,1.8795,2.0536,2.0536,2.1274,2.29,2.1634,2.1182,2.1745,2.0482,2.1206,2.3712,2.3372,0.0,2.906,2.8886,2.9829,3.1743,3.1743,3.1977,3.2416,3.2732,3.2968,3.3063,3.3553,3.4811,3.6041,3.3707,3.4612,3.6828,3.6968,3.8421,4.0411,4.1826,4.1271,4.1271,4.6298,4.644,4.6134,5.0134,5.1017,5.1151,5.1419,5.2562,5.3657,5.4145,5.6499,5.8602,5.9189,6.0429,6.1195,6.1195,6.1195,6.1308,6.1585,6.2436,6.3524,6.4806,6.5008,6.5078,6.5278,6.4327,6.3629,6.3373,6.2217,6.1502,6.1308,5.9942,5.9334,5.9334,5.798,5.6988,5.6376,5.5007,5.4043,5.3425,5.206,5.1577,2.7241,2.5629,2.4194,2.2723,2.1793,2.132,2.153,1.7916,1.485,1.5554,1.0275,0.5322,0.4957,0.3099,0.1373,0.1177,0.2937,0.5277,0.8,1.0151,1.269,1.5811,1.784,1.9305,1.944,2.0821,2.2588,2.4625,2.0154,1.777,1.897,1.867,1.8294,1.808,1.807,1.8218,1.8511,1.8511,1.8658,1.8805,1.9105,1.9196,1.9266,1.9719,2.0899,2.2864,2.111,0.0,2.3636,2.1887,2.2359,2.4249,2.4249,2.5498,2.7547,2.9555,3.052,3.1152,3.3063,3.3852,3.3598,3.1125,3.2933,3.6123,3.681,3.8421,4.0129,4.0411,4.026,4.0542,4.2984,4.3402,4.4129,4.8027,4.9041,4.9453,5.1151,5.1686,5.2668,5.5509,5.6376,5.7592,6.0429,6.1054,6.1195,6.1195,6.1195,6.1696,6.2946,6.2108,6.2027,6.3449,6.3659,6.4151,6.5178,6.5209,6.4603,6.3449,6.316,6.2544,6.1279,6.1054,6.0941,6.0941,6.0685,5.9189,5.6376,5.613,5.4527,5.1819,5.1552,5.1577,2.7281,2.4888,2.2588,2.03,1.9546,1.8578,1.5919,1.3663,1.1823,1.0977,0.8093,0.5442,0.4173,0.1914,-0.0386,-0.1955,-0.1164,0.0579,0.3112,0.5658,0.8752,1.2699,1.4091,1.5197,1.635,1.7117,1.8328,0.0,1.6745,1.5377,1.7212,1.5899,1.5024,1.4838,1.483,1.483,1.483,1.5863,1.6927,1.7851,1.7113,1.673,1.6384,1.5937,1.6976,1.8849,0.0,1.9023,2.1086,2.0145,2.0302,2.1086,2.1086,2.1697,2.2991,2.5009,2.5943,2.6478,2.8389,2.8361,2.7354,2.6178,2.8541,3.194,3.2259,3.4638,3.707,3.707,3.7823,3.901,4.0943,4.1511,4.2335,4.6068,4.6894,4.7449,4.9249,5.0101,5.099,5.2434,5.4687,5.6866,5.8218,6.0057,6.1195,6.1195,6.1195,6.1468,6.2045,6.216,6.2749,6.408,6.4265,6.4449,6.5026,6.4449,6.3517,6.2228,6.149,6.0525,5.9156,5.9156,5.9156,5.9156,5.9156,5.8055,5.5651,5.4862,5.3216,5.1093,5.0127,4.9637,2.7402,2.4386,2.1003,1.7137,1.6159,1.498,1.0614,0.8671,0.7309,0.5833,0.4506,0.3122,0.1492,-0.0375,-0.227,-0.4422,-0.4574,0.0,-0.0383,0.1731,0.0,0.9812,1.0316,1.0907,1.2389,1.3011,0.0,0.0,1.2007,1.1695,1.3769,1.2144,1.0962,1.0644,1.0638,1.094,1.1404,1.2424,1.3723,1.5393,1.4153,1.3381,1.3014,1.1578,1.2414,1.492,1.4558,1.6121,1.8568,1.8102,1.8257,1.8568,1.8568,1.9092,1.9815,2.1225,2.1778,2.2312,2.3925,2.3523,2.2454,2.3055,2.5663,2.8553,2.8714,3.1281,3.41,3.41,3.5437,3.717,3.8661,3.9377,4.0481,4.3543,4.4357,4.4903,4.7037,4.8146,4.8805,4.924,5.2328,5.5004,5.549,5.8145,6.0348,6.0348,6.0539,6.0609,6.0336,6.1329,6.2548,6.3803,6.4291,6.4574,6.4936,6.4038,6.2991,6.176,6.0764,5.9664,5.8418,5.8169,5.7962,5.7962,5.7708,5.6775,5.5115,5.366,5.2046,5.0555,4.8921,4.8246,2.4552,2.1945,1.9237,1.2805,1.1116,1.0249,0.7807,0.3809,0.0519,0.0347,-0.3175,-0.6273,-0.6461,-0.6565,-0.6652,-0.6845,-0.6839,-0.5171,-0.0369,0.0554,0.24,0.0,0.0,0.0,0.0,0.0,0.0,0.762,0.0,0.4918,0.7013,0.6992,0.6687,0.6385,0.6375,0.7286,0.9264,0.7433,0.734,0.9207,0.9141,0.9035,0.903,0.7225,0.8455,1.2116,1.0275,1.1752,1.5335,1.3409,1.3702,1.5327,1.5327,1.6884,1.8891,1.9054,1.9468,2.0178,2.0928,2.1198,2.157,2.4028,2.6268,2.8116,2.8583,3.0374,3.197,3.197,3.3484,3.5004,3.5004,3.6315,3.8178,4.0206,4.0755,4.1688,4.5034,4.5859,4.6316,4.7942,4.976,5.1428,5.2815,5.5587,5.7701,5.7701,5.8625,5.8944,5.7887,5.8724,6.0025,6.1297,6.2426,6.3578,6.4854,6.4854,6.4291,6.2935,6.2847,6.2188,6.0953,5.9732,5.9198,5.9198,5.8066,5.6697,5.506,5.3574,5.2046,5.0357,4.8921,4.8246,2.255,1.8878,1.5354,1.1549,0.8362,0.5362,0.3114,0.0,-0.2594,-0.4155,-0.5817,-0.6979,-0.6979,-0.8284,-0.9266,-0.938,-0.9304,-0.8719,-0.7163,-0.5339,-0.2565,0.217,0.2691,0.3911,0.0,0.0,0.0,0.0345,0.0861,0.1521,0.2269,0.2425,0.2375,0.2116,0.2112,0.2565,0.3319,0.2565,0.3132,0.5097,0.6164,0.5986,0.4808,0.5453,0.6552,0.7849,0.7415,0.8014,0.9234,0.8495,0.9405,1.1217,1.1217,1.2635,1.4721,1.6061,1.66,1.668,1.565,1.6142,1.7638,1.9718,2.1822,2.3743,2.5155,2.6953,2.8521,2.8521,2.9946,3.1372,3.1372,3.2768,3.4541,3.636,3.8502,4.0792,4.3239,4.5041,4.6433,4.7099,4.8229,4.9879,5.2423,5.3801,5.5171,5.7258,5.7727,5.7744,5.7372,5.8979,6.0305,6.0806,6.1198,6.1667,6.2175,6.2175,6.1634,6.0422,6.0337,5.9795,5.8623,5.8172,5.7559,5.6837,5.6387,5.5081,5.2714,5.1289,4.9826,4.8259,4.6814,4.6148,2.1373,1.7084,1.2925,0.9168,0.5187,0.1556,-0.1557,-0.4151,-0.6229,-0.7804,-0.8771,-0.9206,-0.9206,-1.0625,-1.1745,-1.1893,-1.1789,-1.1392,-1.0818,-0.9219,-0.6649,-0.2833,-0.2298,0.0,0.0,0.0,0.0,-0.6876,-0.6169,-0.5392,-0.4552,-0.4352,-0.3949,-0.335,-0.317,-0.2407,-0.1055,-0.1659,-0.0593,0.2008,0.2504,0.2015,0.0906,0.1586,0.2724,0.3809,0.4019,0.4864,0.6072,0.6072,0.6829,0.8046,0.8046,0.8957,1.0325,1.2424,1.271,1.2104,1.213,1.3023,1.45,1.7177,1.8941,2.0245,2.1575,2.3293,2.4709,2.4709,2.6534,2.8521,2.8521,3.042,3.259,3.372,3.6251,3.8768,4.0522,4.2812,4.4574,4.5207,4.6271,4.7951,5.0565,5.1365,5.2599,5.509,5.577,5.6094,5.6543,5.8638,6.0022,6.0022,6.0399,6.0629,6.0629,6.0629,6.0289,5.9515,5.9483,5.9161,5.8357,5.7936,5.7335,5.6543,5.579,5.4546,5.2793,5.0958,4.9584,4.861,4.663,4.5649,2.0642,1.6356,1.1871,0.4993,0.1553,-0.1556,-0.6062,-0.884,-1.0579,-1.0579,-1.2312,-1.3878,-1.3871,-1.3871,-1.3878,-1.3878,-1.3878,-1.3012,-1.0939,-1.0589,-0.9721,-0.7458,-0.7112,-0.7285,0.0,-1.3418,-1.6273,-1.4018,-1.5928,-1.6284,-1.392,-1.3456,-1.2232,-1.0285,-0.9597,-0.7381,-0.3624,-0.5448,-0.4422,-0.0418,-0.2519,-0.3275,-0.2718,-0.4544,-0.3347,0.0281,0.0141,0.2317,0.5608,0.5766,0.5766,0.5917,0.5917,0.592,0.6223,0.8197,0.774,0.6522,1.0419,1.1915,1.2512,1.6559,1.7923,1.7923,1.807,1.937,2.0961,2.0961,2.3698,2.6437,2.6578,2.9321,3.2051,3.2051,3.36,3.5381,3.7127,3.8768,4.0522,4.2284,4.3749,4.5302,4.6995,4.85,4.9905,5.1325,5.275,5.4059,5.5328,5.7422,5.8885,5.8885,5.9944,6.0629,6.0705,6.0705,6.0705,6.0705,6.0705,6.0705,6.0705,5.9595,5.8885,5.8885,5.6632,5.5514,5.5421,5.2892,5.1607,5.1532,4.861,4.7307,1.5258,0.9475,0.511,0.0332,-0.4008,-0.7449,-0.8811,-1.0853,-1.2565,-1.2565,-1.3229,-1.3818,-1.362,-1.3746,-1.3878,-1.3878,-1.3878,-1.3534,-1.3012,-1.284,-1.1974,-0.9716,-1.0892,-1.3267,-1.6513,-1.855,-1.9401,-1.8701,-2.0654,-2.0951,-1.8445,-1.9258,-1.8839,-1.6516,-1.5834,-1.5038,-1.3977,-1.4039,-1.2805,-1.0277,-1.1755,-1.0271,-0.6331,-0.8151,-0.7004,-0.3701,-0.3915,-0.3445,-0.2368,-0.1056,0.0303,0.1818,0.3344,0.4713,0.592,0.5017,0.4412,0.4258,0.6821,0.7723,0.8321,1.2363,1.371,1.4312,1.7167,1.8511,1.9234,2.0536,2.1685,2.2837,2.4308,2.6422,2.8228,2.8228,3.1576,3.4908,3.5412,3.7902,4.0522,4.2284,4.2911,4.441,4.817,4.9153,5.0223,5.265,5.2578,5.316,5.6274,5.7248,5.8273,6.0022,6.0443,6.0866,6.143,6.1469,6.1755,6.2449,6.1826,6.1469,6.1469,6.065,5.9786,5.8885,5.8273,5.7508,5.6632,5.4872,5.361,5.2748,4.9845,4.8013,1.2532,0.5587,0.0328,-0.3047,-0.683,-0.9951,-1.0945,-1.2279,-1.3284,-1.3284,-1.4066,-1.446,-1.3475,-1.4066,-1.4385,0.0,-1.3706,-1.4086,-1.5049,-1.5242,-1.5056,-1.4679,-1.7495,-2.0498,-2.3067,-2.5037,-2.6022,-2.6022,-2.7113,-2.728,-2.587,-2.6555,-2.5655,-2.3003,-2.2476,-2.1512,-2.0425,-1.9639,-1.8708,-1.7385,-1.7781,-1.6136,-1.3012,-1.3323,-1.2432,-1.0424,-0.9497,-0.8308,-0.6976,-0.6022,-0.4393,-0.2272,-0.0304,0.1217,0.1973,0.0,-0.0152,0.0761,0.2882,0.4097,0.5314,0.8472,1.0125,1.1336,1.3591,1.554,1.7038,1.8198,1.9077,2.0245,2.2142,2.3996,2.5688,2.6422,2.9669,3.2769,3.3569,3.5933,3.8536,4.1016,4.2018,4.3582,4.6918,4.806,4.9477,5.2348,5.255,5.3553,5.6721,5.7161,5.8021,6.0366,6.0941,6.1503,6.2347,6.2381,6.2584,6.3144,6.265,6.2381,6.2381,6.1966,6.1397,6.071,6.0235,5.9429,5.8332,5.7047,5.5907,5.4809,5.205,5.0446,0.9766,0.2552,-0.3397,-0.586,-0.8501,-1.0932,0.0,-1.3533,-1.3554,-1.3554,-1.5033,-1.5702,-1.3616,-1.4736,-1.5339,-1.3701,-1.3449,-1.4385,-1.6836,-1.7256,-1.8452,-2.1443,-2.5378,-2.7991,-2.7991,-3.1412,-3.3694,-3.3977,-3.415,-3.4291,-3.4275,-3.4015,-3.2455,-2.9551,-2.9045,-2.748,-2.4794,-2.3864,-2.3282,-2.3145,-2.2092,-2.1387,-2.0916,-1.9379,-1.8548,-1.8226,-1.5524,-1.2673,-0.9987,-0.9755,-0.8449,-0.6522,-0.4559,-0.3954,-0.4258,-0.5618,-0.4865,-0.3196,-0.1062,0.0911,0.2741,0.5014,0.6984,0.8504,0.8655,1.1511,1.4524,1.4822,1.6299,1.8218,2.038,2.2225,2.3931,2.5844,2.781,2.975,3.151,3.3321,3.5523,3.9104,4.1139,4.2888,4.4576,4.6288,4.8307,5.0882,5.2449,5.4289,5.681,5.7161,5.8105,6.0487,6.143,6.2176,6.3079,6.3273,6.3336,6.3463,6.34,6.3366,6.3394,6.3238,6.3174,6.3268,6.2177,6.1211,6.0437,5.9235,5.8287,5.7446,5.4872,5.3464,0.0,0.0,0.0,0.0,0.0,0.0,0.0,-1.6429,-1.6812,-1.6812,-1.7625,-1.7669,-1.5491,-1.5518,-1.5262,-1.3417,-1.3311,-1.4308,-1.6663,-1.7092,-2.0102,-2.7705,-3.0788,-3.2397,-3.2397,-3.3205,-3.4258,-3.5835,-3.7557,-3.845,-3.8285,-3.9309,-3.8442,-3.5376,-3.4751,-3.3794,-3.2261,-3.0889,-3.0122,-3.0085,-2.8554,-2.7049,-2.5664,-2.4239,-2.2831,-2.1287,-1.8762,-1.7455,-1.6901,-1.4725,-1.2634,-1.0719,-0.8599,-0.8899,-0.9969,-0.7123,-0.5769,-0.5163,-0.3192,-0.2283,-0.1218,0.2435,0.3956,0.4564,0.6227,0.8344,1.061,1.2234,1.4187,1.6595,2.0089,2.1251,2.1973,2.4036,2.5872,2.7685,2.9612,3.1493,3.3775,3.7344,3.9399,4.1462,4.4289,4.7066,4.9153,4.9691,5.0986,5.316,5.669,5.7161,5.8261,6.1291,6.1722,6.2176,6.3079,6.3871,6.4527,6.5217,6.4585,6.4457,6.4898,6.3793,6.3388,6.3779,6.3158,6.2715,6.2582,6.1587,6.0577,5.9443,5.7156,5.4361,0.0,0.0,0.0,0.0,0.0,0.0,0.0,0.0,0.0,0.0,0.0,-1.9754,0.0,0.0,-1.8764,-1.7353,-1.6674,-1.7166,-1.9622,-2.1312,-2.4708,-3.1282,-3.4009,-3.528,-3.528,-3.7844,-3.9801,-4.078,-4.3624,-4.5142,-4.5033,-4.5792,-4.5213,-4.3188,-4.2246,-4.0957,-3.9415,-3.752,-3.6344,-3.5663,-3.4321,-3.297,-3.1537,-3.0081,-2.8119,-2.5979,-2.4709,-2.3265,-2.1766,-2.0,-1.766,-1.5021,-1.4315,-1.3623,-1.2671,-1.0645,-0.8766,-0.6882,-0.601,-0.4402,-0.2496,-0.044,0.1614,0.3237,0.4316,0.6713,0.941,1.0264,1.2117,1.4391,1.7315,1.8785,1.9954,2.1997,2.3879,2.573,2.767,2.9596,3.1899,3.5451,3.8198,4.0747,4.3273,4.6188,4.85,4.9262,5.0567,5.2835,5.669,5.7161,5.8345,6.1474,6.248,6.3193,6.3775,6.4875,6.5692,6.6064,6.6042,6.6115,6.637,6.5358,6.4952,6.5216,6.3896,6.308,6.2664,6.1475,6.0105,5.8674,5.7598,5.5431,0.0,0.0,0.0,0.0,0.0,0.0,0.0,0.0,0.0,0.0,0.0,0.0,0.0,0.0,0.0,-2.102,-1.9815,-2.0032,-2.3288,-2.6567,-2.9974,-3.382,-3.6505,-3.8177,-3.8579,-4.2947,-4.616,-4.6811,-4.9601,-5.1473,-5.1758,-5.2071,-5.1774,-5.0814,-4.9449,-4.7831,-4.5685,-4.327,-4.1351,-4.0145,0.0,0.0,-3.722,-3.5449,-3.3482,-3.1326,-3.036,-2.8512,-2.5933,-2.4727,-2.2452,-1.9582,-2.0093,-1.8239,-1.5249,-1.4165,-1.181,-0.9159,-0.8464,-0.6208,-0.3531,-0.2825,-0.0424,0.2128,0.2753,0.553,0.0,0.8787,1.0488,1.2451,1.4561,1.6193,1.7962,1.9932,2.1997,2.3892,2.5702,2.7934,3.054,3.3683,3.7371,4.0522,4.1896,4.5203,4.8086,4.9153,5.1062,5.3426,5.669,5.7446,5.8855,6.1725,6.3312,6.4246,6.4735,6.5808,6.6479,6.6479,6.7078,6.7518,6.7634,6.7051,6.6602,6.6348,6.4591,6.3218,6.2241,6.074,5.9306,5.7891,5.713,5.5718,0.0,0.0,0.0,0.0,0.0,0.0,0.0,0.0,0.0,0.0,0.0,0.0,0.0,0.0,0.0,0.0,-1.8735,-1.9642,-2.4801,-3.0184,-3.4399,-3.6384,-3.9826,-4.2715,-4.4201,-4.6483,-4.923,-5.2376,-5.2891,-5.3885,-5.5652,0.0,0.0,0.0,0.0,-5.2619,-5.0562,-4.6803,-4.4342,-4.3367,-4.2243,-4.1659,-4.1379,-3.8932,-3.7641,-3.7129,-3.3276,-3.1376,-3.0817,-2.7629,-2.5813,-2.4971,-2.431,-2.2669,-2.0078,-1.5514,-1.3482,-1.2643,-0.9299,0.0,0.0,-0.3672,-0.226,-0.1272,0.1701,0.4253,0.6382,0.7821,0.9816,1.1856,1.4123,1.4771,1.5576,1.7826,1.9954,2.1817,2.3646,2.6912,3.0146,3.2169,3.662,4.0149,4.0274,4.5171,4.9153,4.9369,5.2507,5.5484,5.6986,5.8628,6.0585,6.2783,0.0,0.0,6.5522,6.6126,6.6479,6.6479,6.7078,6.7707,6.8267,6.7801,6.7008,6.5974,6.5294,6.4094,6.2404,6.1041,6.0305,6.0012,5.6421,5.402,0.0,0.0,0.0,0.0,0.0,0.0,0.0,0.0,0.0,0.0,0.0,0.0,0.0,0.0,0.0,0.0,-2.3193,-2.4947,-2.8954,-3.2106,-3.4898,-3.7657,-4.075,-4.3444,-4.5197,-4.8865,-5.2247,-5.4713,-5.681,-5.8316,-5.9189,-6.051,-6.0269,-5.8011,-5.7424,-5.5569,-5.2296,-4.9216,-4.7087,-4.5961,-4.4868,-4.3942,-4.3257,-4.1406,-3.9762,0.0,-3.6821,-3.511,-3.316,-3.1312,-2.9889,0.0,0.0,0.0,0.0,0.0,-1.5847,-1.2998,-1.036,-0.8762,-0.768,-0.6058,-0.4177,-0.2299,-0.0824,0.1794,0.4569,0.6182,0.8174,1.0308,1.2117,1.3555,1.4563,1.5572,1.8007,2.0382,2.119,2.5409,2.9506,3.1283,3.622,0.0,3.8544,4.3277,4.7606,4.9146,5.2104,5.5148,5.7851,5.9304,6.0879,6.298,6.427,6.5308,6.6078,6.6695,0.0,0.0,0.0,6.8164,6.8705,6.7604,0.0,0.0,0.0,0.0,0.0,0.0,0.0,0.0,5.7087,5.5058,0.0,0.0,0.0,0.0,0.0,0.0,0.0,0.0,0.0,0.0,0.0,0.0,0.0,0.0,0.0,0.0,0.0,-2.857,-3.2261,-3.3546,-3.5855,-4.0385,-4.2685,-4.5033,-4.7963,-5.2331,-5.5659,-5.7318,-6.0143,-6.166,-6.1139,-6.256,-6.2047,-5.9119,-5.8693,-5.6703,-5.3037,-5.079,-4.8934,-4.7409,-4.6634,-4.5667,-4.4581,-4.3319,-4.1499,-3.9401,-3.9674,-3.8142,-3.5288,-3.3984,-3.239,-3.0478,-2.7673,-2.5343,-2.3349,-2.1738,-1.8296,-1.4077,-1.1937,-1.0011,-0.8457,-0.7934,-0.6113,-0.3657,-0.2266,0.0134,0.2694,0.4945,0.6898,0.884,1.0025,1.183,1.3356,1.3312,1.6207,1.8813,1.8813,2.3764,2.8619,2.9819,3.5006,3.9145,3.8958,4.2631,4.6465,4.8955,5.1921,0.0,5.8229,5.9972,6.1557,6.3366,6.4824,6.5898,6.6433,6.7206,6.7855,6.8205,6.8373,6.8403,6.8283,6.715,6.5589,6.3561,6.1581,6.0331,0.0,0.0,0.0,0.0,0.0,0.0,0.0,0.0,0.0,0.0,0.0,0.0,0.0,0.0,0.0,0.0,0.0,0.0,0.0,0.0,0.0,0.0,0.0,0.0,-3.3405,-3.5149,-3.8498,-4.5553,-4.6608,-4.9076,-5.4845,-5.7398,-5.9422,-6.0912,-6.2406,-6.2665,-6.1149,-6.2505,-6.2138,-5.9397,-5.7734,-5.5658,-5.3267,-5.1435,-4.9458,-4.7409,-4.7409,-4.6797,-4.578,-4.4552,-4.3347,-4.2031,-4.1421,-3.979,-3.7436,-3.4604,-3.2518,-3.0882,-2.851,-2.6598,-2.505,-2.3484,-2.0819,-1.7391,-1.4077,-1.1801,-1.0159,-0.8327,-0.7676,-0.6627,-0.1558,0.0,0.078,0.4299,0.6522,0.7874,0.8226,0.9647,1.1079,1.1353,1.4165,1.6773,1.6773,2.2352,2.7421,2.7533,3.2815,3.8549,4.2599,4.4765,4.6646,4.886,5.2554,0.0,5.7704,6.0923,6.3463,6.4387,6.5656,6.6433,6.6479,6.7558,6.8205,6.8238,6.8685,6.8246,6.6627,6.6652,6.5967,6.4504,6.2833,6.1018,5.9129,0.0,0.0,0.0,0.0,0.0,0.0,0.0,0.0,0.0,0.0,0.0,0.0,0.0,0.0,0.0,0.0,0.0,0.0,0.0,0.0,0.0,0.0,0.0,0.0,0.0,-3.8266,-4.292,-4.432,-4.7336,-5.3501,-5.4712,-5.6647,-6.0401,-6.0703,-6.041,-5.9929,-6.1919,-6.1355,-5.7473,-5.7678,-5.5798,-5.1509,-5.0873,-4.9863,-4.8467,-4.8467,-4.7959,-4.6878,-4.5748,-4.4526,-4.3429,-4.2235,-4.1276,-4.0255,-3.6639,-3.4378,-3.2898,-3.0219,-2.7628,-2.5168,-2.4694,-2.178,-1.7766,-1.5476,-1.3578,-1.1929,-1.0146,-0.8064,-0.5724,-0.4028,-0.1823,0.0783,0.4296,0.5724,0.6648,0.9087,1.0176,1.0981,1.2108,1.4219,1.6545,1.8681,2.3156,2.7734,3.0747,3.3046,3.5891,4.0276,4.3075,4.6009,4.9668,5.2277,5.469,5.7246,6.0,6.2066,6.2881,6.5063,6.6651,6.7078,6.7818,6.7922,6.7148,6.7247,6.659,6.487,6.386,6.3099,6.2599,6.093,5.9778,5.9196,0.0,0.0,0.0,0.0,0.0,0.0,0.0,0.0,0.0,0.0,0.0,0.0,0.0,0.0,0.0,0.0,0.0,0.0,0.0,0.0,0.0,0.0,0.0,0.0,0.0,0.0,-4.0331,-4.278,0.0,-5.1324,-5.3648,-5.5926,-5.8697,-5.9522,-5.9525,-5.888,-6.04,-5.9446,-5.5323,-5.6035,-5.4606,-5.0597,-5.0565,-5.0181,-4.9542,-4.9174,-4.865,-4.7959,-4.6869,-4.5719,-4.4639,-4.33,-4.2158,-4.1203,-3.7491,-3.5829,-3.535,-3.2464,-3.036,-2.8753,-2.7233,-2.431,-2.062,-1.6804,-1.4836,-1.357,-1.1182,-0.8979,-0.6894,-0.5594,-0.3648,-0.1044,0.3124,0.4686,0.5854,0.872,1.003,1.0925,1.2687,1.433,1.6461,1.9774,2.3091,2.7239,3.2699,3.4017,3.5678,4.0466,4.3049,4.5815,5.0022,5.2206,5.4246,5.6737,5.8878,6.0626,6.1691,6.3788,6.5244,6.5678,6.6328,6.6355,6.5617,6.558,6.4832,6.3187,6.2178,6.1095,5.991,5.9365,5.8574,0.0,0.0,0.0,0.0,0.0,0.0,0.0,0.0,0.0,0.0,0.0,0.0,0.0,0.0,0.0,0.0,0.0,0.0,0.0,0.0,0.0,0.0,0.0,0.0,0.0,0.0,0.0,-3.8333,-4.222,0.0,0.0,0.0,0.0,-5.6161,-5.8877,-5.9784,-5.7936,-5.8114,-5.6755,-5.3155,-5.2963,-5.2079,-5.0495,-5.0495,-5.0495,-5.0463,-4.9469,-4.8951,-4.8876,-4.779,-4.6729,-4.5635,-4.4356,-4.2583,-4.0301,-3.7344,-3.7041,-3.799,-3.5252,-3.4589,-3.4812,-3.0726,-2.8215,-2.5597,-1.8179,-1.5718,-1.5088,-1.1688,-1.0552,-0.9894,-0.6372,-0.5198,0.0,0.0,0.3888,0.5702,0.7398,0.9219,1.0904,1.2679,1.4457,1.6711,1.9897,2.2595,2.6363,0.0,3.5478,3.8044,4.3023,0.0,4.6342,5.0163,5.2365,5.4289,5.6177,5.7727,5.918,6.0717,6.1903,6.2599,6.2599,6.3458,6.3898,6.3823,6.3823,6.315,6.1579,6.1416,5.991,5.683,5.8135,0.0,0.0,0.0,0.0,0.0,0.0,0.0,0.0,0.0,0.0,0.0,0.0,0.0,0.0,0.0,0.0,0.0,0.0,0.0,0.0,0.0,0.0,0.0,0.0,0.0,0.0,-3.0607,-3.4017,-3.7314,-3.972,-4.3585,0.0,0.0,0.0,0.0,0.0,0.0,-5.6225,-5.765,-5.692,-5.3652,-5.3445,-5.2137,-4.9427,-4.9395,-4.9395,-4.9395,-4.91,-4.8574,-4.7742,-4.654,-4.5955,-4.5693,-4.3529,-4.2261,-4.1473,-3.7846,-3.7043,-3.8117,-3.6263,-3.3987,-3.162,-3.1158,-2.8364,-2.4061,-1.9062,-1.7248,-1.6761,-1.3426,-1.156,-1.0023,-0.7775,0.0,0.0,0.0,0.0,0.5648,0.8649,0.9811,1.1098,1.4131,1.7065,2.0007,2.332,2.6311,2.9499,0.0,3.6226,3.9631,4.4841,0.0,0.0,0.0,0.0,5.2757,5.4576,5.6143,5.7622,5.8914,6.1181,6.2706,6.2976,6.3599,6.3449,6.229,6.2215,6.1467,5.9822,5.8537,5.7464,5.6634,0.0,0.0,0.0,0.0,0.0,0.0,0.0,0.0,0.0,0.0,0.0,0.0,0.0,0.0,0.0,0.0,0.0,0.0,0.0,0.0,0.0,0.0,0.0,0.0,0.0,0.0,0.0,-2.5317,-2.907,-3.1595,-3.5932,-4.06,0.0,0.0,0.0,0.0,0.0,0.0,0.0,0.0,0.0,-5.3624,-5.3556,-5.28,-5.126,-5.0099,-4.9705,-5.0099,-4.8858,-4.8238,-4.8084,-4.6859,-4.6402,-4.6441,-4.3475,-4.2091,-4.171,-3.8453,-3.8182,-3.9575,0.0,0.0,0.0,0.0,-3.0026,-2.5502,-2.0604,-1.813,0.0,-1.3427,0.0,0.0,0.0,0.0,0.0,0.0,0.0,0.0,0.0,0.0,1.2405,1.5733,1.8519,2.1482,2.5491,2.9257,3.2715,0.0,3.7971,4.1512,4.6953,0.0,0.0,0.0,0.0,5.3251,5.48,5.532,5.6108,5.7627,5.9408,6.0608,6.1025,6.153,6.1467,6.057,6.0533,5.9762,5.805,5.7058,5.5874,0.0,0.0,0.0,0.0,0.0,0.0,0.0,0.0,0.0,0.0,0.0,0.0,0.0,0.0,0.0,0.0,0.0,0.0,0.0,0.0,0.0,0.0,0.0,0.0,0.0,0.0,0.0,0.0,0.0,-1.9962,-2.427,0.0,0.0,0.0,0.0,0.0,0.0,0.0,0.0,0.0,0.0,0.0,0.0,0.0,-5.352,-5.388,-5.1456,-5.0631,-5.1161,-4.8705,-4.7793,-4.8422,-4.7335,-4.6885,-4.6791,-4.3585,0.0,-4.0997,-3.919,0.0,0.0,0.0,0.0,0.0,0.0,0.0,0.0,0.0,0.0,0.0,0.0,0.0,0.0,0.0,0.0,0.0,0.0,0.0,0.0,0.0,0.0,1.4032,1.7373,1.9783,2.2632,0.0,3.2082,3.579,3.8163,4.0532,0.0,0.0,0.0,0.0,0.0,0.0,0.0,5.5877,5.5104,5.5124,5.6905,5.7515,5.7951,5.8369,5.8834,5.9089,5.9089,5.9104,5.8426,5.6964,5.6672,0.0,0.0,0.0,0.0,0.0,0.0,0.0,0.0,0.0,0.0,0.0,0.0,0.0,0.0,0.0,0.0,0.0,0.0,0.0,0.0,0.0,0.0,0.0,0.0,0.0,0.0,0.0,0.0,0.0,0.0,0.0,0.0,0.0,0.0,0.0,0.0,0.0,0.0,0.0,0.0,0.0,0.0,0.0,0.0,0.0,0.0,0.0,0.0,0.0,0.0,-4.835,-4.6916,-4.5413,-4.4168,-4.379,-4.4164,-4.3152,-4.1229,-3.8864,-3.9242,0.0,0.0,0.0,0.0,0.0,0.0,0.0,0.0,0.0,0.0,0.0,0.0,0.0,0.0,0.0,0.0,0.0,0.0,0.0,0.0,0.0,0.0,0.0,0.0,2.2786,2.7691,0.0,0.0,0.0,0.0,0.0,0.0,0.0,0.0,0.0,0.0,0.0,0.0,5.5967,5.5831,5.594,5.6624,5.7572,5.8407,5.892,5.9028,5.9089,5.9089,5.9096,5.8966,0.0,0.0,0.0,0.0,0.0,0.0,0.0,0.0,0.0,0.0,0.0,0.0,0.0,0.0,0.0,0.0,0.0,0.0,0.0,0.0,0.0,0.0,0.0,0.0,0.0,0.0,0.0,0.0,0.0,0.0,0.0,0.0,0.0,0.0,0.0,0.0,0.0,0.0,0.0,0.0,0.0,0.0,0.0,0.0,0.0,0.0,0.0,0.0,0.0,0.0,0.0,0.0,0.0,0.0,0.0,0.0,0.0,0.0,0.0,-4.0304,0.0,0.0,0.0,0.0,0.0,0.0,0.0,0.0,0.0,0.0,0.0,0.0,0.0,0.0,0.0,0.0,0.0,0.0,0.0,0.0,0.0,0.0,0.0,0.0,0.0,0.0,0.0,0.0,0.0,0.0,0.0,0.0,0.0,0.0,0.0,0.0,0.0,0.0,0.0,0.0,5.7079,5.6495,5.6371,5.7363,5.7996,5.8553,5.9066,5.9089,5.9089,5.9187,5.8317,0.0,0.0,0.0,0.0,0.0,0.0,0.0,0.0,0.0,0.0,0.0,0.0,0.0,0.0,0.0,0.0,0.0,0.0,0.0,0.0,0.0,0.0,0.0,0.0,0.0,0.0,0.0,0.0,0.0,0.0,0.0,0.0,0.0,0.0,0.0,0.0,0.0,0.0,0.0,0.0,0.0,0.0,0.0,0.0,0.0,0.0,0.0,0.0,0.0,0.0,0.0,0.0,0.0,0.0,0.0,0.0,0.0,0.0,0.0,-4.0261,0.0,0.0,0.0,0.0,0.0,0.0,0.0,0.0,0.0,0.0,0.0,0.0,0.0,0.0,0.0,0.0,0.0,0.0,0.0,0.0,0.0,0.0,0.0,0.0,0.0,0.0,0.0,0.0,0.0,0.0,0.0,0.0,0.0,0.0,0.0,0.0,0.0,0.0,0.0,0.0,0.0,5.816,5.7152,5.685,5.8189,5.8434,5.8633,5.9052,5.9089,5.8977,5.8753,5.7383,0.0,0.0,0.0,0.0,0.0,0.0,0.0,0.0,0.0,0.0,0.0,0.0,0.0,0.0,0.0,0.0,0.0,0.0,0.0,0.0,0.0,0.0,0.0,0.0,0.0,0.0,0.0,0.0,0.0,0.0,0.0,0.0,0.0,0.0,0.0,0.0,0.0,0.0,0.0,0.0,0.0,0.0,0.0,0.0,0.0,0.0,0.0,0.0,0.0,0.0,0.0,0.0,0.0,0.0,0.0,0.0,0.0,0.0,0.0,0.0,0.0,0.0,0.0,0.0,0.0,0.0,0.0,0.0,0.0,0.0,0.0,0.0,0.0,0.0,0.0,0.0,0.0,0.0,0.0,0.0,0.0,0.0,0.0,0.0,0.0,0.0,0.0,0.0,0.0,0.0,0.0,0.0,0.0,0.0,0.0,0.0,0.0,0.0,0.0,0.0,0.0,5.8255,5.7919,5.7752,5.8284,5.8721,5.9028,5.9089,5.9089,5.8491,5.71,0.0,0.0,0.0,0.0,0.0,0.0,0.0,0.0,0.0,0.0,0.0,0.0,0.0,0.0,0.0,0.0,0.0,0.0,0.0,0.0,0.0,0.0,0.0,0.0,0.0,0.0,0.0,0.0,0.0,0.0,0.0,0.0,0.0,0.0,0.0,0.0,0.0,0.0,0.0,0.0,0.0,0.0,0.0,0.0,0.0,0.0,0.0,0.0,0.0,0.0,0.0,0.0,0.0,0.0,0.0,0.0,0.0,0.0,0.0,0.0,0.0,0.0,0.0,0.0,0.0,0.0,0.0,0.0,0.0,0.0,0.0,0.0,0.0,0.0,0.0,0.0,0.0,0.0,0.0,0.0,0.0,0.0,0.0,0.0,0.0,0.0,0.0,0.0,0.0,0.0,0.0,0.0,0.0,0.0,0.0,0.0,0.0,0.0,0.0,0.0,0.0,0.0,5.8696,5.8174,5.802,5.8696,5.8981,5.9089,5.9089,5.9089,5.8454,5.6965,0.0,0.0,0.0,0.0,0.0,0.0,0.0,0.0,0.0,0.0,0.0,0.0,0.0,0.0,0.0,0.0,0.0,0.0,0.0,0.0,0.0,0.0,0.0,0.0,0.0,0.0,0.0,0.0,0.0,0.0,0.0,0.0,0.0,0.0,0.0,0.0,0.0,0.0,0.0,0.0,0.0,0.0,0.0,0.0,0.0,0.0,0.0,0.0,0.0,0.0,0.0,0.0,0.0,0.0,0.0,0.0,0.0,0.0,0.0,0.0,0.0,0.0,0.0,0.0,0.0,0.0,0.0,0.0,0.0,0.0,0.0,0.0,0.0,0.0,0.0,0.0,0.0,0.0,0.0,0.0,0.0,0.0,0.0,0.0,0.0,0.0,0.0,0.0,0.0,0.0,0.0,0.0,0.0,0.0,0.0,0.0,0.0,0.0,0.0,0.0,0.0,0.0,5.8981,5.8387,5.8204,5.9005,5.9089,5.9089,5.9089,5.9089,5.8259,5.6323,0.0,0.0,0.0,0.0,0.0,0.0,0.0,0.0,0.0,0.0,0.0,0.0,0.0,0.0,0.0,0.0,0.0,0.0,0.0,0.0,0.0,0.0,0.0,0.0,0.0,0.0,0.0,0.0,0.0,0.0,0.0,0.0,0.0,0.0,0.0,0.0,0.0,0.0,0.0,0.0,0.0,0.0,0.0,0.0,0.0,0.0,0.0,0.0,0.0,0.0,0.0,0.0,0.0,0.0,0.0,0.0,0.0,0.0,0.0,0.0,0.0,0.0,0.0,0.0,0.0,0.0,0.0,0.0,0.0,0.0,0.0,0.0,0.0,0.0,0.0,0.0,0.0,0.0,0.0,0.0,0.0,0.0,0.0,0.0,0.0,0.0,0.0,0.0,0.0,0.0,0.0,0.0,0.0,0.0,0.0,0.0,0.0,0.0,0.0,0.0,0.0,0.0,5.9028,5.8633,5.8489,5.9028,5.9089,5.9089,5.9089,5.9089,5.7787,0.0,0.0,0.0,0.0,0.0,0.0,0.0,0.0,0.0,0.0,0.0,0.0,0.0,0.0,0.0,0.0,0.0,0.0,0.0,0.0,0.0,0.0,0.0,0.0,0.0,0.0,0.0,0.0,0.0,0.0,0.0,0.0,0.0,0.0,0.0,0.0,0.0,0.0,0.0,0.0,0.0,0.0,0.0,0.0,0.0,0.0,0.0,0.0,0.0,0.0,0.0,0.0,0.0,0.0,0.0,0.0,0.0,0.0,0.0,0.0,0.0,0.0,0.0,0.0,0.0,0.0,0.0,0.0,0.0,0.0,0.0,0.0,0.0,0.0,0.0,0.0,0.0,0.0,0.0,0.0,0.0,0.0,0.0,0.0,0.0,0.0,0.0,0.0,0.0,0.0,0.0,0.0,0.0,0.0,0.0,0.0,0.0,0.0,0.0,0.0,0.0,0.0,0.0,5.716,5.7078,5.7415,0.0,5.8065,5.7354,5.7354,5.6382,5.4932,5.2944,0.0,0.0,0.0,0.0,0.0,0.0,0.0,0.0,0.0,0.0,0.0,0.0,0.0,0.0,0.0,0.0,0.0,0.0,0.0,0.0,0.0,0.0,0.0,0.0,0.0,0.0,0.0,0.0,0.0,0.0,0.0,0.0,0.0,0.0,0.0,0.0,0.0,0.0,0.0,0.0,0.0,0.0,0.0,0.0,0.0,0.0,0.0,0.0,0.0,0.0,0.0,0.0,0.0,0.0,0.0,0.0,0.0,0.0,0.0,0.0,0.0,0.0,0.0,0.0,0.0,0.0,0.0,0.0,0.0,0.0,0.0,0.0,0.0,0.0,0.0,0.0,0.0,0.0,0.0,0.0,0.0,0.0,0.0,0.0,0.0,0.0,0.0,0.0,0.0,0.0,0.0,0.0,0.0,0.0,0.0,0.0,0.0,0.0,0.0,0.0,0.0,0.0,0.0,5.6425,5.6796,0.0,5.6644,5.5672,5.5672,5.4775,5.3603,5.214,0.0,0.0,0.0,0.0,0.0,0.0,0.0,0.0,0.0,0.0,0.0,0.0,0.0,0.0,0.0,0.0,0.0,0.0,0.0,0.0,0.0,0.0,0.0,0.0,0.0,0.0,0.0,0.0,0.0,0.0,0.0,0.0,0.0,0.0,0.0,0.0,0.0,0.0,0.0,0.0,0.0,0.0,0.0,0.0,0.0,0.0,0.0,0.0,0.0,0.0,0.0,0.0,0.0,0.0,0.0,0.0,0.0,0.0,0.0,0.0,0.0,0.0,0.0,0.0,0.0,0.0,0.0,0.0,0.0,0.0,0.0,0.0,0.0,0.0,0.0,0.0,0.0,0.0,0.0,0.0,0.0,0.0,0.0,0.0,0.0,0.0,0.0,0.0,0.0,0.0,0.0,0.0,0.0,0.0,0.0,0.0,0.0,0.0,0.0,0.0,0.0,0.0,0.0,5.6233,5.627,5.6382,5.4999,5.4064,5.4064,5.3952,5.3278,5.181,5.1726,0.0,0.0,0.0,0.0,0.0,0.0,0.0,0.0,0.0,0.0,0.0,0.0,0.0,0.0,0.0,0.0,0.0,0.0,0.0,0.0,0.0,0.0,0.0,0.0,0.0,0.0,0.0,0.0,0.0,0.0,0.0,0.0,0.0,0.0,0.0,0.0,0.0,0.0,0.0,0.0,0.0,0.0,0.0,0.0,0.0,0.0,0.0,0.0,0.0,0.0,0.0,0.0,0.0,0.0,0.0,0.0,0.0,0.0,0.0,0.0,0.0,0.0,0.0,0.0,0.0,0.0,0.0,0.0,0.0,0.0,0.0,0.0,0.0,0.0,0.0,0.0,0.0,0.0,0.0,0.0,0.0,0.0,0.0,0.0,0.0,0.0,0.0,0.0,0.0,0.0,0.0,0.0,0.0,0.0,0.0,0.0,0.0,0.0,0.0,0.0,0.0,0.0,5.2749,5.3478,5.4662,5.3279,5.2307,5.2307,5.1111,5.0233,4.9977,5.0035,0.0,0.0,0.0,0.0,0.0,0.0,0.0,0.0,0.0,0.0,0.0,0.0,0.0,0.0,0.0,0.0,0.0,0.0,0.0,0.0,0.0,0.0,0.0,0.0,0.0,0.0,0.0,0.0,0.0,0.0,0.0,0.0,0.0,0.0,0.0,0.0,0.0,0.0,0.0,0.0,0.0,0.0,0.0,0.0,0.0,0.0,0.0,0.0,0.0,0.0,0.0,0.0,0.0,0.0,0.0,0.0,0.0,0.0,0.0,0.0,0.0,0.0,0.0,0.0,0.0,0.0,0.0,0.0,0.0,0.0,0.0,0.0,0.0,0.0,0.0,0.0,0.0,0.0,0.0,0.0,0.0,0.0,0.0,0.0,0.0,0.0,0.0,0.0,0.0,0.0,0.0,0.0,0.0,0.0,0.0,0.0,0.0,0.0,0.0,0.0,0.0,0.0,5.1601,5.2133,5.298,5.1559,5.055,5.055,4.9708,4.9222,4.9391,4.9334,0.0,0.0,0.0,0.0,0.0,0.0,0.0,0.0,0.0,0.0,0.0,0.0,0.0,0.0,0.0,0.0,0.0,0.0,0.0,0.0,0.0,0.0,0.0,0.0,0.0,0.0,0.0,0.0,0.0,0.0,0.0,0.0,0.0,0.0,0.0,0.0,0.0,0.0,0.0,0.0,0.0,0.0,0.0,0.0,0.0,0.0,0.0,0.0,0.0,0.0,0.0,0.0,0.0,0.0,0.0,0.0,0.0,0.0,0.0,0.0,0.0,0.0,0.0,0.0,0.0,0.0,0.0,0.0,0.0,0.0,0.0,0.0,0.0,0.0,0.0,0.0,0.0,0.0,0.0,0.0,0.0,0.0,0.0,0.0,0.0,0.0,0.0,0.0,0.0,0.0,0.0,0.0,0.0,0.0,0.0,0.0,0.0,0.0,0.0,0.0,0.0,0.0,0.0,5.1217,5.1315,5.0007,4.9185,4.9185,4.9128,4.9146,4.9334,0.0,0.0,0.0,0.0,0.0,0.0,0.0,0.0,0.0,0.0,0.0,0.0,0.0,0.0,0.0,0.0,0.0,0.0,0.0,0.0,0.0,0.0,0.0,0.0,0.0,0.0,0.0,0.0,0.0,0.0,0.0,0.0,0.0,0.0,0.0,0.0,0.0,0.0,0.0,0.0,0.0,0.0,0.0,0.0,0.0,0.0,0.0,0.0,0.0,0.0,0.0,0.0,0.0,0.0,0.0,0.0,0.0,0.0,0.0,0.0,0.0,0.0,0.0,0.0,0.0,0.0,0.0,0.0,0.0,0.0,0.0,0.0,0.0,0.0,0.0,0.0,0.0,0.0,0.0,0.0,0.0,0.0,0.0,0.0,0.0,0.0,0.0,0.0,0.0,0.0,0.0,0.0,0.0,0.0,0.0,0.0,0.0,0.0,0.0,0.0,0.0,0.0,0.0,0.0,0.0,4.9519,4.9334,4.9185,4.9185,4.8891,4.8811,4.9185,0.0,0.0,0.0,0.0,0.0,0.0,0.0,0.0,0.0,0.0,0.0,0.0,0.0,0.0]}],[{"header":{"parameterUnit":"kt","parameterCategory":2,"dx":1,"dy":1,"la1":29.285339999999998,"la2":30.599998999999997,"lo1":-89.70041500000002,"lo2":-87.6738589999976,"nx":112,"ny":82,"refTime":"2022-10-27T12:00:00:Z","depth":0,"parameterNumber":2,"parameterNumberName":"V-component_of_WINDS"},"data":[6.8453,6.7281,0.0,6.6476,6.5939,0.0,6.4963,0.0,0.0,0.0,0.0,0.0,0.0,0.0,5.8628,5.8933,5.7377,5.7148,0.0,6.3438,0.0,0.0,0.0,0.0,0.0,0.0,0.0,0.0,7.5878,0.0,0.0,0.0,7.7798,8.0357,8.0445,8.1666,8.4225,8.4225,8.4225,8.4225,8.4225,8.4225,8.4225,8.4225,8.4225,8.4225,8.4225,8.4225,8.4225,8.4225,8.4225,8.4284,8.472,8.4923,8.4865,8.44,8.4225,8.4225,8.4225,8.4225,8.4225,8.4225,8.3577,8.2549,8.038,7.8177,7.5821,7.3595,7.1877,7.0674,7.0674,7.0674,7.0674,7.0674,7.0674,7.0674,7.0674,7.0674,7.0674,7.0674,7.0674,7.0674,7.0674,7.0674,7.0674,7.0674,7.0674,7.0674,7.0674,7.0674,7.0674,7.0674,7.0674,7.0674,7.0674,7.0674,7.0674,7.0674,7.0674,7.0674,7.0674,7.0674,7.0674,7.0674,7.0674,7.0674,7.0674,7.0674,7.0674,7.0674,7.0674,7.0674,0.0,0.0,6.4329,6.4695,0.0,0.0,0.0,0.0,0.0,0.0,0.0,0.0,0.0,5.8032,5.6983,5.5909,5.6007,5.6636,0.0,0.0,0.0,0.0,0.0,0.0,0.0,0.0,0.0,0.0,7.6257,0.0,0.0,7.6635,7.7798,8.0357,8.0445,8.1666,8.4225,8.4225,8.4225,8.4225,8.4225,8.4225,8.4225,8.4225,8.4225,8.4225,8.4225,8.4225,8.4225,8.4225,8.4225,8.4225,8.4225,8.4225,8.4225,8.4225,8.4225,8.4225,8.4225,8.4225,8.4225,8.4225,8.4225,8.3577,8.0705,7.8705,7.6878,7.3747,7.1877,7.0674,7.0674,7.0674,7.0674,7.0674,7.0674,7.0674,7.0674,7.0674,7.0674,7.0674,7.0674,7.0674,7.0674,7.0674,7.0674,7.0674,7.0674,7.0674,7.0674,7.0674,7.0674,7.0674,7.0674,7.0674,7.0674,7.0674,7.0674,7.0674,7.0674,7.0674,7.0674,7.0674,7.0674,7.0674,7.0674,7.0674,7.0674,7.0674,7.0674,7.0674,7.0674,7.0674,0.0,0.0,0.0,6.223,0.0,0.0,0.0,0.0,5.7959,0.0,0.0,0.0,0.0,5.5665,5.5348,5.22,5.4323,0.0,0.0,0.0,0.0,0.0,0.0,0.0,0.0,0.0,0.0,0.0,0.0,0.0,7.6693,7.6635,7.7769,8.0299,8.0415,8.1637,8.4138,8.4225,8.4225,8.4225,8.4225,8.4225,8.4225,8.4225,8.4225,8.4225,8.4225,8.4225,8.4225,8.4225,8.4225,8.4225,8.4225,8.4225,8.4225,8.4225,8.4225,8.4225,8.4225,8.4225,8.4225,8.4225,8.4071,8.3236,7.8899,7.7557,7.6536,7.2058,7.0674,7.0674,7.0674,7.0674,7.0674,7.0674,7.0674,7.0674,7.0674,7.0674,7.0674,7.0674,7.0674,7.0674,7.0674,7.0674,7.0674,7.0674,7.0674,7.0674,7.0674,7.0674,7.0674,7.0674,7.0674,7.0674,7.0674,7.0674,7.0674,7.0674,7.0674,7.0674,7.0674,7.0674,7.0674,7.0674,7.0674,7.0674,7.0674,7.0674,7.0674,7.0674,7.0674,7.0674,6.2517,0.0,0.0,0.0,0.0,0.0,0.0,0.0,0.0,0.0,0.0,0.0,0.0,0.0,0.0,0.0,0.0,6.1452,0.0,0.0,0.0,0.0,0.0,0.0,0.0,0.0,0.0,0.0,0.0,0.0,7.6693,7.6635,7.7362,7.9019,7.995,8.123,8.2858,8.376,8.4225,8.4225,8.4225,8.4225,8.4225,8.4225,8.4225,8.4225,8.4225,8.4225,8.4225,8.4225,8.4225,8.4225,8.4225,8.4225,8.4225,8.4225,8.4225,8.4225,8.4225,8.4225,8.4225,8.4225,8.305,8.1189,7.8399,7.6338,7.4453,7.1539,7.0674,7.0674,7.0674,7.0674,7.0674,7.0674,7.0674,7.0674,7.0674,7.0674,7.0674,7.0674,7.0674,7.0674,7.0674,7.0674,7.0674,7.0674,7.0674,7.0674,7.0674,7.0674,7.0674,7.0674,7.0674,7.0674,7.0674,7.0674,7.0674,7.0674,7.0674,7.0674,7.0674,7.0674,7.0674,7.0674,7.0674,7.0674,7.0674,7.0674,7.0674,7.0674,7.0674,7.0674,0.0,0.0,0.0,0.0,0.0,0.0,5.7691,0.0,5.7544,0.0,0.0,0.0,0.0,0.0,0.0,0.0,0.0,0.0,0.0,0.0,0.0,0.0,0.0,0.0,0.0,0.0,0.0,0.0,0.0,7.7972,7.6693,7.6635,7.7216,7.8496,7.9776,8.1055,8.2486,8.3615,8.4225,8.4225,8.4225,8.4225,8.4225,8.4225,8.4225,8.4225,8.4225,8.4225,8.4225,8.4225,8.4225,8.4225,8.4225,8.4225,8.4225,8.4225,8.4225,8.4225,8.4225,8.4225,8.4071,8.305,8.1378,7.9038,7.6851,7.5127,7.357,7.1356,7.0674,7.0674,7.0674,7.0674,7.0674,7.0674,7.0674,7.0674,7.0674,7.0674,7.0674,7.0674,7.0674,7.0674,7.0674,7.0674,7.0674,7.0674,7.0674,7.0674,7.0674,7.0674,7.0674,7.0674,7.0674,7.0674,7.0674,7.0674,7.0674,7.0674,7.0674,7.0674,7.0674,7.0674,7.0674,7.0674,7.0674,7.0674,7.0674,7.0674,7.0674,7.0674,7.0674,7.0674,0.0,0.0,0.0,0.0,5.5079,0.0,0.0,0.0,5.5951,5.819,0.0,0.0,0.0,0.0,0.0,0.0,0.0,0.0,0.0,0.0,0.0,0.0,0.0,0.0,0.0,0.0,7.5966,7.4919,7.7013,7.7827,7.6693,7.6635,7.7158,7.8292,7.9572,8.0764,8.1899,8.3295,8.4022,8.4022,8.4167,8.4225,8.4225,8.4225,8.4225,8.4225,8.4225,8.4225,8.4225,8.4225,8.4225,8.4225,8.4225,8.4225,8.4225,8.4225,8.4225,8.4225,8.4225,8.4225,8.3887,8.1858,7.9862,7.7868,7.5622,7.4427,7.357,7.1696,7.104,7.0674,7.0674,7.0674,7.0674,7.0674,7.0674,7.0674,7.0674,7.0674,7.0674,7.0674,7.0674,7.0674,7.0674,7.0674,7.0674,7.0674,7.0674,7.0674,7.0674,7.0674,7.0674,7.0674,7.0674,7.0674,7.0674,7.0674,7.0674,7.0674,7.0674,7.0674,7.0674,7.0674,7.0674,7.0674,7.0674,7.0674,7.0674,7.0674,7.0674,7.0674,7.0674,7.0674,0.0,0.0,0.0,0.0,0.0,5.4195,0.0,0.0,0.0,0.0,0.0,0.0,0.0,0.0,0.0,0.0,0.0,0.0,0.0,0.0,0.0,0.0,0.0,0.0,0.0,7.3988,7.5355,7.6169,7.6722,7.6896,7.6635,7.6635,7.6751,7.6984,7.8234,7.9019,7.9252,8.155,8.2713,8.2713,8.376,8.4225,8.4225,8.4225,8.4225,8.4225,8.4225,8.4225,8.4225,8.4225,8.4225,8.4225,8.4225,8.4225,8.4225,8.4225,8.4225,8.4225,8.4225,8.4225,8.4071,8.3732,8.3207,8.2549,8.0189,7.6968,7.3898,7.357,7.2214,7.0674,7.0674,7.0674,7.0674,7.0674,7.0674,7.0674,7.0674,7.0674,7.0674,7.0674,7.0674,7.0674,7.0674,7.0674,7.0674,7.0674,7.0674,7.0674,7.0674,7.0674,7.0674,7.0674,7.0674,7.0674,7.0674,7.0674,7.0674,7.0674,7.0674,7.0674,7.0674,7.0674,7.0674,7.0674,7.0674,7.0674,7.0674,7.0674,7.0674,7.0674,7.0674,7.0674,5.4016,5.303,5.2785,5.1712,0.0,0.0,0.0,0.0,6.0948,0.0,0.0,0.0,0.0,0.0,0.0,0.0,0.0,0.0,0.0,0.0,0.0,0.0,0.0,0.0,0.0,7.425,7.518,7.6518,7.6635,7.6635,7.6635,7.6635,7.6635,7.6635,7.7856,7.8525,7.8525,8.0445,8.1404,8.1404,8.2015,8.2335,8.2335,8.2335,8.2335,8.2364,8.3004,8.3295,8.3324,8.3993,8.3469,8.2335,8.2335,8.2335,8.2335,8.2335,8.2335,8.2335,8.2335,8.2742,8.3113,8.1919,8.2007,8.2045,7.9862,7.6824,7.3924,7.2728,7.1539,7.0674,7.0674,7.0674,7.0674,7.0674,7.0674,7.0674,7.0674,7.0674,7.0674,7.0674,7.0259,6.9893,6.9893,7.0332,7.0674,7.0674,7.0674,7.0674,7.0674,7.0674,7.0674,7.0674,7.0674,7.0674,7.0674,7.0674,7.0674,7.0674,7.0674,7.0674,7.0674,7.0674,7.0674,7.0674,7.0674,7.0674,7.0674,7.0161,7.0161,7.0674,7.0674,7.0674,5.2262,5.1577,5.1626,5.1822,5.3347,0.0,5.6565,5.9056,6.2316,0.0,0.0,0.0,0.0,0.0,0.0,0.0,0.0,0.0,0.0,0.0,0.0,0.0,0.0,0.0,0.0,7.5035,7.5471,7.6547,7.6635,7.6635,7.6635,7.6635,7.6635,7.6635,7.7623,7.8147,7.8147,7.9427,8.0066,8.0066,8.0328,8.0445,8.0445,8.0445,8.0445,8.0503,8.1521,8.1957,8.2044,8.3062,8.2306,8.0445,8.0445,8.0445,8.0445,8.0445,8.0445,8.0445,8.0445,8.1113,8.1778,7.9832,7.9987,8.0487,7.8682,7.6497,7.4252,7.2099,7.074,7.0063,7.0063,7.0063,7.0063,7.0063,7.0063,7.0063,7.0063,7.0063,7.0063,7.0063,6.938,6.877,6.877,6.9502,7.0063,7.0063,7.0063,7.0063,7.0063,7.0063,7.0063,7.0063,7.0063,7.0063,7.0063,7.0063,7.0063,7.0063,7.0063,7.0063,7.0063,7.0063,7.0063,7.0063,7.0063,7.0161,7.0356,6.9307,6.9209,7.0063,7.0063,7.0063,5.2026,5.1577,5.1797,5.2615,5.4469,0.0,6.3148,6.626,6.9268,0.0,0.0,0.0,0.0,0.0,0.0,0.0,0.0,0.0,0.0,0.0,0.0,0.0,0.0,0.0,0.0,7.6402,7.646,7.6606,7.6635,7.6635,7.6635,7.6635,7.6635,7.6635,7.6751,7.6838,7.6838,7.8118,7.8729,7.8758,7.9892,8.0445,8.0445,8.0445,8.0445,8.0445,8.059,8.0648,8.0648,8.0794,8.0677,8.0445,8.0445,8.0445,8.0445,8.0445,8.0445,8.0445,8.0445,8.0532,8.0648,8.0323,8.041,8.0526,8.0228,7.8725,7.6469,7.4363,7.0786,6.7843,6.7843,6.7843,6.7843,6.7843,6.7843,6.7843,6.7843,6.7843,6.7843,6.7843,6.7745,6.7672,6.7672,6.7769,6.7843,6.7843,6.7843,6.7843,6.7843,6.7843,6.7843,6.7843,6.7843,6.7843,6.7843,6.7843,6.7843,6.7843,6.7843,6.7843,6.7843,6.7843,6.7843,6.7843,6.7843,6.8306,6.9282,6.8184,6.7745,6.7843,6.7843,6.7843,5.3472,5.293,5.2944,5.3035,0.0,0.0,6.2251,6.642,0.0,0.0,0.0,0.0,0.0,0.0,0.0,0.0,0.0,0.0,0.0,0.0,0.0,0.0,0.0,0.0,0.0,0.0,0.0,7.6635,7.6635,7.6635,7.6635,7.6635,7.6635,7.6635,7.6635,7.6635,7.6635,7.7158,7.742,7.742,7.7972,7.8205,7.8205,7.8205,7.8205,7.8263,7.9019,7.9339,7.9281,7.8525,7.8205,7.8205,7.8205,7.8205,7.8205,7.8205,7.8205,7.8205,7.8205,7.87,7.9339,7.9339,7.9834,8.0445,8.0445,7.8961,7.6862,7.6055,7.2684,6.8943,6.7827,6.7501,6.7501,6.7501,6.7501,6.7501,6.7501,6.7501,6.7135,6.5866,6.6134,6.6574,6.6574,6.7086,6.7501,6.7501,6.7501,6.7501,6.7501,6.7501,6.7501,6.7501,6.7501,6.7501,6.7501,6.7501,6.7501,6.7501,6.7501,6.7501,6.7501,6.7501,6.7501,6.7501,6.7501,6.7721,6.816,6.7086,6.6574,6.6574,6.7208,6.7501,5.5164,0.0,0.0,0.0,0.0,0.0,0.0,0.0,0.0,0.0,0.0,0.0,0.0,0.0,0.0,0.0,0.0,0.0,0.0,0.0,0.0,0.0,0.0,0.0,0.0,0.0,0.0,0.0,7.6635,7.6635,7.6635,7.6635,7.6635,7.6635,7.6635,7.6635,7.6635,7.6635,7.6635,7.6635,7.6635,7.6635,7.6635,7.6635,7.6635,7.6693,7.7594,7.8002,7.7943,7.7013,7.6635,7.6635,7.6635,7.6635,7.6635,7.6635,7.6635,7.6635,7.6635,7.7216,7.8002,7.8002,7.8612,7.9398,7.9398,7.7456,7.5216,7.5859,7.2994,6.9342,6.7898,6.7092,6.6622,6.6622,6.6622,6.6622,6.6622,6.6622,6.6159,6.4597,6.4914,6.5451,6.5451,6.611,6.6622,6.6622,6.6622,6.6622,6.6622,6.6622,6.6622,6.6622,6.6622,6.6622,6.6622,6.6622,6.6622,6.6622,6.6622,6.6622,6.6622,6.6622,6.6622,6.6622,6.6622,6.6622,6.6622,6.5842,6.5451,6.5475,6.6256,6.6622,0.0,0.0,0.0,6.0513,6.21,6.4175,7.0272,7.2581,7.3972,0.0,0.0,0.0,0.0,0.0,0.0,0.0,0.0,0.0,0.0,0.0,0.0,0.0,0.0,0.0,0.0,0.0,0.0,0.0,0.0,7.6635,7.6635,7.6635,7.6635,7.6635,7.6635,7.6635,7.6635,7.6635,7.6635,7.6635,7.6635,7.6635,7.6635,7.6635,7.6635,7.6635,7.6664,7.6693,7.6693,7.6635,7.6635,7.6635,7.6635,7.6635,7.6635,7.6635,7.6635,7.6635,7.6635,7.6635,7.6693,7.6693,7.6693,7.6751,7.6751,7.3764,7.0957,7.3025,7.0704,6.7483,6.7483,6.5936,6.4402,6.4402,6.4402,6.4402,6.4402,6.4402,6.4377,6.4304,6.4329,6.4353,6.4353,6.4377,6.4402,6.4402,6.4402,6.4402,6.4402,6.4402,6.4402,6.4402,6.4402,6.4402,6.4402,6.4402,6.4402,6.4402,6.4402,6.4402,6.4402,6.4402,6.4402,6.4402,6.4402,6.4402,6.4402,6.4353,6.4353,6.4353,6.4377,6.4402,5.929,5.9746,6.0617,6.2661,6.5458,6.8518,7.135,7.373,7.57,7.6465,0.0,0.0,0.0,0.0,0.0,0.0,0.0,0.0,0.0,0.0,0.0,0.0,0.0,0.0,0.0,0.0,0.0,0.0,0.0,0.0,7.6635,7.6635,7.6635,7.6635,7.6635,7.6635,7.6635,7.6635,7.6635,7.6635,7.6635,7.6635,7.6635,7.6635,7.6635,7.6635,7.6635,7.6635,7.6635,7.6635,7.6635,7.6635,7.6635,7.6635,7.6635,7.6635,7.6635,7.6635,7.6635,7.6635,7.6635,7.6635,7.6635,7.6635,7.6635,7.5671,7.4582,7.5386,7.3533,7.1082,6.9799,6.7968,6.5999,6.4613,6.4304,6.4304,6.4304,6.4304,6.4304,6.4304,6.4304,6.4304,6.4304,6.4304,6.4304,6.4304,6.4304,6.4304,6.4304,6.4304,6.4304,6.4304,6.4304,6.4304,6.4304,6.4304,6.4304,6.4304,6.4304,6.4304,6.4304,6.4304,6.4304,6.4304,6.4304,6.4304,6.4304,6.4304,6.4304,6.4304,6.4304,6.4304,6.1398,6.2381,6.3764,6.5856,6.8581,7.1466,7.3163,7.5125,7.6635,7.6635,0.0,0.0,0.0,0.0,0.0,0.0,0.0,0.0,0.0,0.0,0.0,0.0,0.0,0.0,0.0,0.0,0.0,0.0,0.0,0.0,7.5878,7.5908,7.614,7.6606,7.6635,7.6635,7.6635,7.6635,7.6635,7.6635,7.6635,7.6635,7.6635,7.6635,7.6635,7.6606,7.6111,7.5908,7.5937,7.6431,7.6635,7.6635,7.6635,7.6635,7.6635,7.6635,7.6635,7.6635,7.6635,7.6635,7.6635,7.6635,7.6635,7.6635,7.6635,7.6013,7.5529,7.5529,7.4465,7.2766,7.0108,6.889,6.7834,6.5062,6.4304,6.4304,6.4304,6.4304,6.4304,6.4304,6.4304,6.4304,6.4304,6.4304,6.4304,6.4304,6.4304,6.4304,6.4304,6.4304,6.4304,6.4304,6.4304,6.4304,6.4304,6.4304,6.4304,6.4304,6.4304,6.4304,6.4304,6.4304,6.4304,6.4304,6.4304,6.4304,6.4304,6.4304,6.4304,6.4304,6.4304,6.4304,6.2646,6.3996,6.5739,7.0052,7.1668,7.2878,7.5894,7.6635,7.6635,7.6635,0.0,0.0,0.0,0.0,0.0,0.0,0.0,0.0,0.0,0.0,0.0,0.0,0.0,0.0,0.0,0.0,0.0,0.0,0.0,7.3261,7.4453,7.4541,7.5093,7.6373,7.6431,7.6431,7.6431,7.6431,7.6431,7.6431,7.6431,7.6431,7.6431,7.6431,7.6431,7.6344,7.5064,7.4541,7.4628,7.5908,7.6431,7.6431,7.6431,7.6431,7.6431,7.6431,7.6431,7.6431,7.6489,7.6518,7.6518,7.6606,7.6635,7.6635,7.6635,7.5243,7.368,7.368,7.368,7.2766,6.8785,6.902,6.9306,6.5368,6.4447,6.4304,6.4304,6.4304,6.4304,6.4304,6.4304,6.4304,6.4304,6.4304,6.4304,6.4304,6.4304,6.4304,6.4304,6.4304,6.4304,6.4304,6.4304,6.4304,6.4304,6.4304,6.4304,6.4304,6.4304,6.4304,6.4304,6.4304,6.4304,6.4304,6.4304,6.4304,6.4304,6.4304,6.4304,6.4304,6.4304,6.4304,6.4565,6.7689,6.9979,7.2923,7.4615,7.5609,7.6407,7.6635,7.6635,0.0,0.0,0.0,0.0,0.0,0.0,0.0,0.0,0.0,0.0,0.0,0.0,0.0,0.0,0.0,0.0,0.0,0.0,0.0,0.0,7.2854,7.3203,7.3203,7.3348,7.3697,7.3697,7.3697,7.3697,7.3697,7.3697,7.3697,7.3697,7.3697,7.3697,7.3697,7.3697,7.3697,7.3348,7.3203,7.3232,7.3581,7.3697,7.3697,7.3697,7.3697,7.3697,7.3697,7.3697,7.3843,7.4802,7.5122,7.5297,7.6286,7.6635,7.6635,7.6635,7.6183,7.5842,7.5842,7.5842,7.5243,7.2617,7.118,6.9773,6.722,6.5532,6.4304,6.4304,6.4304,6.4304,6.4304,6.4304,6.4304,6.4304,6.4304,6.4304,6.4304,6.4304,6.4304,6.4304,6.4304,6.4304,6.4304,6.4304,6.4304,6.4304,6.4304,6.4304,6.4304,6.4304,6.4304,6.4304,6.4304,6.4304,6.4304,6.4304,6.4304,6.4304,6.4304,6.4304,6.4304,6.4304,6.4304,6.4042,6.8084,7.14,7.3319,7.521,7.6635,7.6635,7.6635,7.6635,7.6635,0.0,0.0,0.0,0.0,0.0,0.0,0.0,0.0,0.0,0.0,0.0,0.0,0.0,0.0,0.0,0.0,0.0,0.0,0.0,7.1341,7.1894,7.1923,7.2185,7.2708,7.2708,7.2708,7.2708,7.2708,7.2708,7.2708,7.2708,7.2708,7.2708,7.2708,7.2127,7.1109,7.169,7.1923,7.1981,7.2505,7.2708,7.2708,7.2708,7.2708,7.2708,7.2708,7.2708,7.2825,7.3523,7.3784,7.3901,7.4657,7.489,7.489,7.489,7.489,7.4752,7.3893,7.4171,7.4171,7.1186,7.0041,6.9028,6.7111,6.551,6.4036,6.306,6.284,6.284,6.284,6.284,6.284,6.284,6.284,6.284,6.284,6.284,6.284,6.284,6.284,6.284,6.284,6.284,6.284,6.284,6.284,6.306,6.3523,6.3548,6.3767,6.428,6.4304,6.4304,6.4304,6.3352,6.284,6.284,6.284,6.284,6.284,6.284,6.284,6.2907,6.7124,7.1051,7.2592,7.4802,7.6635,7.6635,7.6635,7.6635,7.6635,7.5559,0.0,0.0,0.0,0.0,0.0,0.0,0.0,0.0,0.0,0.0,0.0,0.0,0.0,0.0,0.0,0.0,0.0,0.0,0.0,7.0614,7.0673,7.1167,7.2185,7.2243,7.2243,7.2243,7.2243,7.2243,7.2243,7.2243,7.2243,7.2243,7.2243,7.1051,6.9073,7.0178,7.0673,7.076,7.1778,7.2243,7.2243,7.2243,7.2243,7.2243,7.2243,7.2243,7.2243,7.2418,7.2476,7.2505,7.265,7.2708,7.2708,7.2708,7.2708,7.2308,7.0588,7.1439,7.1846,6.8112,6.7705,6.7857,6.5794,6.487,6.3632,6.1584,6.101,6.101,6.101,6.101,6.101,6.101,6.101,6.101,6.101,6.101,6.101,6.101,6.101,6.101,6.101,6.101,6.101,6.101,6.101,6.1424,6.2352,6.2401,6.284,6.3816,6.3865,6.3865,6.3865,6.1986,6.101,6.101,6.101,6.101,6.101,6.101,6.101,6.5059,6.7822,7.0149,7.3465,7.5471,7.6635,7.6635,7.6635,7.6635,7.6635,7.5559,7.4628,0.0,0.0,0.0,0.0,0.0,0.0,0.0,0.0,0.0,0.0,0.0,0.0,0.0,0.0,0.0,0.0,0.0,6.9102,6.9335,6.9335,6.9451,6.9655,6.9655,6.9655,6.9655,6.9655,6.9655,6.9655,6.9655,6.9655,6.9655,6.9655,6.9422,6.9044,6.9247,6.9335,6.9364,6.9567,6.9655,6.9655,6.9655,6.9655,6.9655,6.9655,6.9655,6.98,7.0847,7.1254,7.14,7.2388,7.2708,7.2708,7.2708,7.2708,7.2575,7.2279,7.2441,7.2144,6.9949,6.8337,6.6754,6.476,6.4149,6.3425,6.14,6.101,6.101,6.101,6.101,6.101,6.101,6.101,6.101,6.101,6.101,6.101,6.101,6.101,6.101,6.101,6.101,6.101,6.101,6.101,6.1107,6.1278,6.1302,6.1376,6.1571,6.1595,6.1595,6.1595,6.1205,6.101,6.101,6.101,6.101,6.101,6.101,6.101,6.3983,6.6485,6.8724,7.1894,7.4686,7.6635,7.6635,7.6635,7.6227,7.4861,7.4075,7.3435,7.2825,0.0,0.0,0.0,0.0,0.0,0.0,0.0,0.0,0.0,0.0,0.0,0.0,0.0,0.0,0.0,0.0,6.9015,6.9015,6.9015,6.9015,6.9015,6.9015,6.9015,6.9015,6.9015,6.9015,6.9015,6.9015,6.9015,6.9015,6.9015,6.9015,6.9015,6.9015,6.9015,6.9015,6.9015,6.9015,6.9015,6.9015,6.9015,6.9015,6.9015,6.9015,6.9102,6.9713,6.9916,7.0033,7.0614,7.0789,7.0789,7.0789,7.0789,7.0789,7.0789,7.0789,7.0659,6.9655,6.841,6.6872,6.4998,6.2537,6.0551,5.9529,5.9399,5.9399,5.9399,5.9399,5.9399,5.9399,5.9399,5.9399,5.9399,5.9399,5.9399,5.9399,5.9399,5.9399,5.9399,5.9399,5.9399,5.9399,5.9399,5.9643,6.0204,6.0229,6.0473,6.101,5.996,5.9399,5.9399,5.9399,5.9399,5.9399,5.9399,5.9399,5.9399,5.9399,5.9399,6.2907,6.5292,6.7648,7.0265,7.3174,7.5529,7.6053,7.6431,7.5966,7.361,7.3145,7.2679,7.1196,7.012,0.0,0.0,0.0,0.0,0.0,0.0,0.0,0.0,0.0,0.0,0.0,0.0,0.0,0.0,0.0,0.0,6.9015,6.9015,6.9015,6.9015,6.9015,6.9015,6.9015,6.9015,6.9015,0.0,6.9015,6.9015,6.9015,6.9015,6.9015,6.9015,6.9015,6.9015,6.9015,6.9015,6.9015,6.9015,6.9015,6.9015,6.9015,6.9015,6.9015,6.9015,6.9015,6.9015,6.9015,6.9015,6.9015,6.9015,6.9015,6.9015,6.9015,6.9015,6.9015,6.8859,6.8008,6.7355,6.6645,6.5454,6.2408,5.9571,5.9154,5.9154,5.9006,5.8586,5.8461,5.8461,5.8061,5.791,5.791,5.791,5.791,5.791,5.791,5.791,5.791,5.791,5.791,5.791,5.791,5.791,5.8276,5.9106,5.9155,5.9521,6.0326,5.8789,5.791,5.791,5.791,5.791,5.791,5.791,5.791,5.791,5.791,5.791,6.4216,6.5932,6.7648,7.0265,7.1167,7.2039,7.4308,7.5762,7.6198,7.4744,7.4453,7.3726,7.1371,7.0818,7.0382,0.0,0.0,0.0,0.0,0.0,0.0,0.0,0.0,0.0,0.0,0.0,0.0,0.0,0.0,0.0,0.0,6.9015,6.9015,6.9015,6.9015,6.9015,6.9015,6.9015,6.9015,6.9015,6.9015,6.9015,6.9015,6.9015,6.9015,6.9015,6.9015,6.9015,6.9015,6.9015,6.9015,6.9015,6.9015,6.9015,6.9015,6.9015,6.9015,6.9015,6.9015,6.9015,6.9015,6.9015,6.9015,6.9015,6.9015,6.9015,6.9015,6.9015,6.9015,6.8165,6.4778,6.3877,6.4096,6.5617,6.5667,6.4913,6.3244,6.2827,6.2408,6.0753,6.032,5.9935,5.8186,5.791,5.791,5.791,5.791,5.791,5.791,5.791,5.791,5.791,5.791,5.791,5.791,5.791,5.7959,5.8057,5.8057,5.8106,5.8179,5.8008,5.791,5.791,5.791,5.791,5.791,5.791,5.791,5.791,5.791,5.791,6.1133,6.3693,6.6136,6.7153,6.9189,7.1371,7.3086,7.3319,7.3057,7.2505,7.2388,7.1865,7.012,6.9771,0.0,0.0,0.0,0.0,0.0,0.0,0.0,0.0,0.0,0.0,0.0,0.0,0.0,0.0,0.0,0.0,0.0,6.9015,6.9015,6.9015,6.9015,6.9015,6.9015,6.9015,6.9015,6.9015,6.9015,6.9015,6.9015,6.9015,6.9015,6.9015,6.9015,6.9015,6.9015,6.9015,6.9015,6.9015,6.9015,6.9015,6.9015,6.9015,6.9015,6.9015,6.9015,6.9015,6.9015,6.9015,6.9015,6.9015,6.9015,6.9015,6.9015,6.9015,6.9015,6.8605,6.7175,6.6754,6.6331,6.475,6.3659,6.2688,6.1844,6.1702,6.1158,5.9399,5.8981,5.871,5.8036,5.791,5.791,5.791,5.791,5.791,5.791,5.791,5.791,5.791,5.791,5.791,5.791,5.791,5.791,5.791,5.791,5.791,5.791,5.791,5.791,5.791,5.791,5.791,5.791,5.791,5.791,5.791,5.791,5.791,5.8981,6.1599,6.4158,6.4914,6.7183,6.9626,7.1254,7.0963,7.0556,7.1312,7.1458,7.0963,6.9335,6.9335,0.0,6.9073,0.0,0.0,0.0,0.0,0.0,0.0,0.0,0.0,0.0,0.0,0.0,0.0,0.0,0.0,0.0,6.9015,6.9015,6.9015,6.9015,6.9015,6.9015,6.9015,6.9015,6.9015,6.9015,6.9015,6.9015,6.9015,6.9015,6.9015,6.9015,6.9015,6.9015,6.9015,6.9015,6.9015,6.9015,6.9015,6.9015,6.9015,6.9015,6.9015,6.9015,6.9015,6.9015,6.9015,6.9015,6.9015,6.9015,6.9015,6.9015,6.9015,6.9015,6.8859,6.8293,6.8576,6.8321,6.564,6.4098,6.2967,6.2408,6.2267,6.1586,5.9129,5.8734,5.8586,5.8061,5.791,5.791,5.791,5.791,5.791,5.791,5.791,5.791,5.791,5.791,5.791,5.791,5.791,5.791,5.791,5.791,5.791,5.791,5.791,5.791,5.791,5.791,5.791,5.791,5.791,5.791,5.791,5.791,5.791,5.8981,6.029,6.1948,6.4478,6.5118,6.5845,6.8462,6.9044,6.9742,7.2185,7.2708,7.1952,6.948,7.0033,7.0498,6.9218,6.9015,0.0,0.0,0.0,0.0,0.0,0.0,0.0,0.0,0.0,0.0,0.0,0.0,0.0,0.0,6.9015,6.9015,6.9015,6.9015,6.9015,6.9015,6.9015,6.9015,6.9015,6.9015,6.9015,6.9015,6.9015,6.9015,6.9015,6.9015,6.9015,6.9015,6.9015,6.9015,6.9015,6.9015,6.9015,6.9015,6.9015,6.9015,6.9015,6.9015,6.9015,6.9015,6.9015,6.9015,6.9015,6.9015,6.9015,6.9015,6.9015,6.9015,6.8576,6.6567,6.7564,6.9015,6.9015,6.8888,6.8449,6.6435,6.6011,6.502,6.1301,6.0609,6.0055,5.8186,5.791,5.791,5.791,5.791,5.791,5.791,5.791,5.791,5.791,5.791,5.791,5.791,5.791,5.791,5.791,5.791,5.791,5.791,5.791,5.791,5.791,5.791,5.791,5.791,5.791,5.791,5.791,5.791,5.791,5.6654,5.8981,6.1279,6.1162,6.314,6.5554,6.727,6.8346,6.8986,6.884,6.9538,6.9393,6.6804,6.6659,6.7095,6.7561,6.7648,6.7968,0.0,0.0,0.0,0.0,0.0,0.0,0.0,0.0,0.0,0.0,0.0,0.0,0.0,6.9015,6.9015,6.9015,6.9015,6.9015,6.9015,6.9015,6.9015,6.9015,6.9991,7.0513,7.0421,6.943,6.9015,6.9015,6.9015,6.9015,6.9015,6.9015,6.9015,6.9015,6.9015,6.9015,6.9015,6.9015,6.9015,6.9015,6.9015,6.9015,6.9015,6.9015,6.9015,6.9015,6.9015,6.9015,6.9015,6.9015,6.9015,6.8888,6.8293,6.7564,6.7305,6.8732,6.8008,6.6857,6.6275,6.5155,6.3494,6.1158,5.9668,5.8808,5.9015,5.8398,5.8154,5.8911,5.8374,5.791,5.791,5.791,5.791,5.791,5.791,5.791,5.791,5.791,5.791,5.791,5.791,5.791,5.791,5.791,5.791,5.791,5.791,5.791,5.791,5.791,5.791,5.791,5.791,5.791,5.5462,5.7701,5.9883,6.0028,6.1162,6.2704,6.4449,6.5496,6.6281,6.6892,6.7299,6.7276,6.6709,6.618,6.6092,6.6916,6.6614,6.6815,6.8062,0.0,0.0,0.0,0.0,0.0,0.0,0.0,0.0,0.0,0.0,0.0,0.0,6.9015,6.9015,6.9015,6.9554,6.9554,6.9015,7.0143,6.9853,6.8301,6.9111,6.9317,6.8813,6.8463,6.8259,6.8288,6.8782,6.9306,6.9713,6.9218,6.9306,6.9742,6.9742,6.9742,6.98,7.0236,7.012,6.9742,6.9742,6.9742,6.9655,6.9189,6.9015,6.9015,6.9015,6.9015,6.9015,6.9015,6.9015,6.9218,7.0178,6.9516,6.8934,7.0123,6.9516,6.8214,6.6672,6.554,6.3846,6.13,5.9924,5.9301,5.996,5.9521,5.9179,5.9472,5.896,5.8374,5.7959,5.791,5.791,5.791,5.791,5.791,5.791,5.791,5.791,5.791,5.8642,5.9082,5.9082,5.8716,5.852,5.852,5.8106,5.791,5.791,5.791,5.791,5.791,5.791,5.791,5.5113,5.6393,5.7934,6.0319,5.9351,5.8573,6.0919,6.1561,6.2612,6.6234,6.5939,6.5857,6.8268,6.7657,6.6815,6.7017,6.5912,6.5534,6.6859,0.0,0.0,0.0,0.0,0.0,0.0,0.0,0.0,0.0,0.0,0.0,6.885,6.8724,6.8724,6.885,7.0123,7.0244,6.9071,7.1756,7.1268,6.7543,6.7431,6.6871,6.5974,6.6936,6.737,6.7457,6.8683,6.9811,7.0702,6.9509,6.9713,7.0789,7.0789,7.0847,7.1051,7.2272,7.201,7.1051,7.1051,7.1051,7.0847,6.9684,6.9306,6.9306,6.9306,6.9306,6.9306,6.9306,6.9306,6.98,7.2127,7.2708,7.2708,7.2708,7.2575,7.1547,6.7886,6.6873,6.5547,6.1907,6.1168,6.1034,6.1107,6.1058,6.0717,5.9863,5.9667,5.9253,5.8276,5.8154,5.8154,5.8154,5.8154,5.8154,5.8154,5.8154,5.8154,5.8154,5.996,6.101,6.101,6.0107,5.9619,5.9619,5.8642,5.8154,5.8154,5.8057,5.8032,5.8032,5.7959,5.791,5.3979,5.5026,5.6189,5.6771,5.9272,6.1945,6.359,6.4748,6.5555,6.5524,6.5349,6.5371,6.6037,6.5174,6.487,6.6911,6.5198,6.4391,6.6709,6.6209,6.5973,0.0,0.0,0.0,0.0,0.0,0.0,0.0,0.0,0.0,6.7471,6.6561,6.6442,6.7501,6.7788,6.8359,6.9095,6.9868,7.078,7.2005,7.0799,7.1358,7.312,7.1128,7.0156,7.0156,7.0484,7.0138,6.9451,6.9131,6.9189,6.9451,6.9451,7.0062,7.1051,7.2272,7.2534,7.2301,7.2301,7.2301,7.2243,7.1952,7.1865,7.1865,7.1865,7.1865,7.1865,7.1865,7.1865,7.1981,7.2563,7.2708,7.2708,7.2708,7.1575,7.0145,6.9277,6.6607,6.4247,6.3357,6.2038,6.1278,6.2108,6.1571,6.1229,6.1791,6.1205,6.057,6.0326,6.0302,6.0302,6.0302,6.0302,6.0302,6.0302,6.0302,6.0302,6.0302,6.0741,6.101,6.101,6.079,6.0668,6.0668,6.0424,6.0302,6.0277,5.9521,5.913,5.9106,5.8301,5.791,5.5298,5.6196,5.7066,5.6466,5.8291,6.052,6.1882,6.2749,6.343,6.3956,6.3641,6.3856,6.5777,6.4613,6.4142,6.6849,6.5545,6.4716,6.5997,6.6153,6.6342,0.0,0.0,0.0,0.0,0.0,0.0,0.0,0.0,0.0,6.8118,6.7371,6.7258,6.7978,6.868,6.9033,6.9233,6.9858,7.0726,7.1529,7.1423,7.191,7.2879,7.1738,7.0909,7.03,0.0,7.0656,6.9858,6.9247,6.9364,6.9887,6.9887,7.0324,7.1022,7.1661,7.2243,7.2621,7.2098,7.2243,7.2621,7.2069,7.2272,7.2708,7.2708,7.2708,7.2708,7.2708,7.2708,7.2708,7.2708,7.2708,7.2854,7.3465,7.2738,7.1886,7.1576,6.8957,6.654,6.5664,6.3899,6.2693,6.3279,6.2913,6.2547,6.2596,6.2108,6.1571,6.1083,6.101,6.101,6.101,6.101,6.101,6.101,6.101,6.101,6.101,6.101,6.101,6.101,6.057,6.0546,6.101,6.057,6.0546,6.101,6.0473,6.0204,6.018,5.9619,5.935,5.7161,5.8177,5.9067,5.7963,5.768,5.7994,5.9067,5.9506,6.0289,6.2326,6.2046,6.242,6.6093,6.4965,6.4239,6.6511,6.6326,6.5871,6.5674,6.6374,6.7102,6.7381,0.0,0.0,0.0,0.0,0.0,0.0,0.0,6.8897,6.8897,6.8718,6.8718,6.8897,7.0099,7.0327,6.9554,7.086,7.1058,7.0124,7.1281,7.1551,7.0882,7.1802,7.1465,7.021,0.0,7.1625,7.1237,7.0149,7.0326,7.1325,7.107,7.1088,7.1264,7.1035,7.169,7.2592,7.1545,7.1865,7.2563,7.1516,7.1894,7.2708,7.2708,7.2708,7.2708,7.2708,7.2708,7.2708,7.2708,7.2708,7.297,7.4075,7.4172,7.3744,7.3039,7.1088,6.8932,6.7159,6.5172,6.3792,6.3792,6.3792,6.3474,6.2498,6.2376,6.2035,6.1132,6.101,6.101,6.101,6.101,6.101,6.101,6.101,6.101,6.101,6.101,6.101,6.101,6.0204,6.0155,6.101,6.018,6.0155,6.101,6.0863,6.079,6.079,6.0619,6.0546,5.7161,5.8714,6.0394,6.0166,6.0133,6.0166,6.0394,6.134,6.2352,6.2662,6.2784,6.3239,6.4962,6.4997,6.4951,6.5358,6.7267,6.8258,6.7148,6.6157,6.6488,6.8799,6.9285,0.0,0.0,0.0,0.0,0.0,0.0,6.7566,6.7566,6.6498,6.6431,6.747,6.7756,6.8962,7.1194,7.1397,7.2013,7.3042,7.3154,7.4411,7.6578,7.5559,7.4857,7.4645,0.0,0.0,7.3117,7.2932,7.2963,7.2917,7.1625,7.1834,7.2575,7.1363,7.169,7.2708,7.2505,7.2563,7.2679,7.2505,7.2563,7.2708,7.2708,7.2708,7.2708,7.2708,7.2708,7.2708,7.2708,7.2708,7.2767,7.297,7.1725,7.051,7.0398,6.7463,6.461,6.4328,6.285,6.1522,6.1522,6.1522,6.1449,6.1302,6.1254,6.1205,6.1034,6.101,6.101,6.101,6.101,6.101,6.101,6.101,6.101,6.101,6.101,6.101,6.101,6.0863,6.0863,6.101,6.0863,6.0863,6.101,6.0155,5.9741,5.9716,5.8813,5.8374,5.9048,5.9865,6.0629,6.0629,6.0629,6.0629,6.0629,6.1122,6.1616,6.1616,6.1714,6.2157,6.3508,6.3838,6.4415,6.5943,6.6667,6.726,6.8218,6.8539,6.9451,7.1404,7.1639,7.1893,0.0,0.0,0.0,0.0,0.0,6.8315,6.8315,6.8511,6.893,6.9518,6.955,7.0542,7.2663,7.3419,7.4143,7.4833,7.5599,7.661,7.7891,7.723,7.6423,0.0,0.0,0.0,7.352,7.352,7.352,7.3376,7.2694,7.2832,7.3267,7.2618,7.2651,7.3011,7.2177,7.1801,7.1823,7.1719,7.2185,7.2708,7.2708,7.1778,7.0702,7.0702,7.0702,7.0702,7.0702,7.0702,7.0876,7.1574,7.103,7.0369,6.9976,6.7625,6.5125,6.4147,6.235,6.101,6.101,6.101,6.101,6.101,6.101,6.101,6.101,6.101,6.101,6.101,6.101,6.101,6.101,5.9985,5.9326,5.9326,5.9326,5.9326,5.9326,5.9326,5.9326,5.9326,5.9911,6.0473,6.101,6.0546,6.0326,6.0326,5.9814,5.9594,6.1057,0.0,6.1648,6.1648,6.1385,6.1122,0.0,6.0859,6.0629,6.0629,6.0629,6.0958,6.2043,6.2536,6.3457,6.5693,6.5748,6.6296,6.838,7.0033,7.1476,7.2864,7.3382,7.3668,7.3541,0.0,0.0,0.0,0.0,6.9244,6.9244,7.0657,7.1479,7.1479,7.1841,7.2564,7.3682,7.4439,7.4767,7.48,7.6247,7.6904,7.6904,7.6904,7.6415,0.0,0.0,0.0,7.4485,7.4485,7.4485,7.4485,7.4156,7.3935,7.3935,7.36,7.352,7.3263,7.1617,7.1174,7.1115,7.0601,7.1109,7.1836,7.1836,7.0527,6.9015,6.9015,6.9015,6.9015,6.9015,6.9015,6.9247,7.0236,7.0469,7.0283,6.9921,6.7802,6.5607,6.4246,6.2062,6.0277,6.0277,6.0277,6.0277,6.0277,6.0277,6.0277,6.0277,6.0277,6.0277,6.0277,6.0277,6.0277,6.0277,5.8838,5.791,5.791,5.791,5.791,5.791,5.791,5.791,5.791,5.8716,5.9521,6.0277,6.0277,6.0566,6.1008,6.0566,6.0566,0.0,6.3588,6.464,6.464,6.3621,6.2602,6.2602,6.1583,0.0,6.0629,6.0629,6.0662,6.0761,6.1879,6.2799,6.3109,6.5298,6.6989,6.7172,6.8487,6.9911,7.1488,7.2801,0.0,7.3627,0.0,0.0,0.0,0.0,0.0,6.9244,7.0657,7.1479,7.1479,7.2795,7.3584,7.3682,7.2433,7.1808,7.1841,7.3288,7.4011,7.4011,7.4011,7.4607,0.0,0.0,0.0,0.0,7.7661,7.7661,7.7463,7.5977,7.542,7.5314,7.3935,7.352,7.3263,7.1617,7.1174,7.0965,6.9547,6.9218,6.9277,6.9277,6.916,6.9015,6.9015,6.9015,6.9015,6.9015,6.9015,6.9044,6.9131,6.916,6.916,6.9121,6.6157,6.3624,6.3485,6.0626,5.813,5.813,5.813,5.813,5.813,5.813,5.813,5.813,5.813,5.813,5.813,5.813,5.813,5.813,5.7984,5.791,5.791,5.791,5.791,5.791,5.791,5.791,5.791,5.7984,5.8057,5.813,5.813,5.8933,6.0695,5.8957,5.9082,6.4713,6.5904,6.6573,6.5994,6.4847,6.3743,6.3743,6.3309,6.2941,6.2941,6.409,6.5096,6.5096,6.5538,6.5911,6.5839,6.7493,6.8652,6.8011,6.9999,7.2035,7.371,7.5895,0.0,0.0,0.0,0.0,0.0,0.0,0.0,7.1973,7.2531,7.2433,7.1512,7.2038,7.2762,7.3682,7.1282,7.1019,7.286,7.2499,7.2795,7.3682,7.3682,7.3978,0.0,0.0,0.0,0.0,7.526,7.526,7.5166,7.462,7.4946,7.5695,7.5162,7.5507,7.6009,7.4421,7.3314,7.2348,7.0875,6.9773,6.9015,6.9015,6.9015,6.9015,6.9015,6.9015,6.9015,6.9015,6.9015,6.9015,6.9015,6.9015,6.8732,6.7434,6.6011,6.4343,6.2126,6.0635,5.9252,5.8186,5.791,5.791,5.791,5.791,5.791,5.791,5.791,5.791,5.791,5.791,5.791,5.791,5.791,5.791,5.791,5.791,5.791,5.791,5.791,5.791,5.791,5.791,5.8461,5.9668,5.9668,6.049,6.2267,6.1586,6.1728,6.6218,6.7428,6.8185,6.7909,6.672,6.5755,6.6085,6.5782,6.5442,6.5442,6.6753,6.7852,6.7852,6.7852,6.799,6.8405,6.93,7.0119,7.04,7.2145,7.4056,7.5598,7.7142,7.8062,0.0,0.0,0.0,0.0,0.0,0.0,7.2959,7.3419,7.3175,7.1892,7.1483,7.1572,7.2268,6.9342,6.9112,7.1578,7.0559,7.1032,7.2775,7.245,7.2681,0.0,0.0,0.0,0.0,7.3682,7.3682,7.3682,7.3682,7.4274,7.5129,7.5129,7.5721,7.6349,7.4761,7.3586,7.2511,7.1062,6.9827,6.8938,6.8938,6.8767,6.8322,6.7888,6.7793,6.7793,6.7793,6.7793,6.7793,6.7793,6.7793,6.7362,6.6082,6.5384,6.4293,6.2215,6.0897,5.9793,5.8932,5.8312,5.791,5.791,5.791,5.791,5.791,5.791,5.791,5.791,5.791,5.7617,5.6934,5.6885,5.6885,5.6885,5.6885,5.6885,5.6885,5.6885,5.7156,5.7693,5.7693,5.849,6.0211,6.0211,6.0909,6.2119,6.2796,6.3282,6.6763,6.8211,6.9557,7.0544,6.9754,6.8916,6.9775,6.8887,6.7852,6.7852,6.7887,6.7954,6.7954,6.7954,6.8473,6.9958,7.0165,7.1198,7.4449,7.4714,7.5266,7.686,7.5966,7.5789,7.7306,7.7354,0.0,0.0,0.0,0.0,7.1635,7.286,7.3315,7.2692,7.1413,7.0182,6.9178,6.635,6.5594,6.7092,6.7092,6.832,7.0706,6.9695,7.0542,0.0,0.0,0.0,0.0,7.3649,7.3649,7.3649,7.3649,7.3649,7.3649,7.3649,7.3682,7.3463,7.1895,7.1337,7.1137,6.9626,6.9145,6.8984,6.8984,6.8138,6.6859,6.5533,6.5089,6.5118,6.5118,6.5118,6.5118,6.5118,6.5118,6.5118,6.5118,6.3674,6.2868,6.3999,6.1233,5.9134,6.0378,5.9104,5.7886,5.7886,5.7886,5.7886,5.7886,5.7886,5.7886,5.7886,5.7886,5.7007,5.4811,5.464,5.464,5.464,5.464,5.464,5.464,5.464,5.5414,5.7138,5.7113,5.7901,5.9473,5.9473,5.9473,5.9604,6.1567,6.3176,7.1338,7.2524,7.3357,7.2906,7.176,7.075,7.0986,7.0769,7.0419,7.0419,7.2103,7.358,7.358,7.4942,7.5857,7.5205,7.6943,7.7897,7.6516,7.738,7.8422,7.9439,7.8664,7.8887,8.1159,8.0619,0.0,0.0,0.0,0.0,7.2487,7.146,7.0114,6.824,6.7336,6.6991,6.7176,6.4838,6.4927,6.7296,6.7478,6.8069,6.9113,6.9945,7.0316,7.0238,6.9989,0.0,0.0,7.0559,7.0559,7.0559,7.0559,7.1216,7.2137,7.2137,7.2795,7.3589,7.3149,7.222,7.1237,7.0835,6.9981,6.9095,6.9169,6.8842,6.8338,6.6889,6.6433,6.6262,6.5326,6.5118,6.5118,6.5118,6.5118,6.5118,6.5118,6.4701,6.3637,6.1651,6.0271,5.8932,5.6707,5.6,5.5592,5.5592,5.5592,5.5592,5.5592,5.5592,5.5592,5.5592,5.5592,5.5348,5.4689,5.464,5.464,5.464,5.464,5.464,5.464,5.5808,5.6589,5.7113,5.8305,5.9735,6.1567,6.1567,6.2226,6.34,6.4068,6.4541,7.21,7.3288,7.3963,7.376,7.2992,7.2632,7.3686,7.4166,7.4479,7.5085,7.689,7.8315,7.8315,7.9462,8.0331,8.0001,8.1029,8.1584,8.0926,8.1103,8.168,8.2524,8.1668,8.1538,0.0,0.0,8.1059,0.0,0.0,0.0,7.043,6.9543,6.826,6.6476,6.6127,6.5892,6.5873,6.4081,6.4313,6.6582,6.6685,6.7749,6.9588,7.0136,7.0619,7.0959,7.0592,0.0,0.0,6.9864,6.9524,6.9244,6.9244,6.9803,7.0592,7.0592,7.1151,7.1907,7.1907,7.1259,7.0507,7.0507,6.99,6.9057,6.8587,6.8419,6.8075,6.6069,6.596,6.596,6.4096,6.401,6.424,6.3692,6.3576,6.3576,6.3576,6.3079,6.2186,6.0461,5.9012,5.7597,5.5986,5.5157,5.464,5.464,5.464,5.464,5.464,5.464,5.464,5.464,5.3859,5.3347,5.3347,5.3347,5.3347,5.3347,5.3347,5.3347,5.3347,5.4892,5.6181,5.6815,5.847,6.0132,6.1924,6.1924,6.2459,6.3576,6.3576,6.3867,7.0947,7.1913,7.2833,7.3802,7.3932,7.4445,7.7008,7.8035,7.8952,8.051,8.1448,8.1985,8.1985,8.2148,8.2783,8.4175,8.3327,8.3503,8.6377,8.5447,8.4745,8.5518,8.4736,8.3851,8.3324,8.2998,8.233,0.0,0.0,0.0,6.7135,6.745,6.7435,6.6513,6.6669,6.6234,6.527,6.4026,6.409,6.5336,6.5612,6.7698,7.1139,7.0443,7.1378,7.3525,7.2693,0.0,0.0,7.0867,7.0332,6.9471,6.9471,6.9471,6.9471,6.9384,6.9298,6.9331,6.9244,6.9244,6.9244,6.9244,6.9244,6.8948,6.7829,6.7428,6.6928,6.4429,6.4603,6.4877,6.2108,6.2436,6.3053,6.1614,6.1195,6.1195,6.1195,6.0057,5.9381,6.0061,5.7626,5.5817,5.6626,5.537,5.4347,5.4347,5.4347,5.4347,5.4347,5.4347,5.4347,5.4347,5.259,5.1577,5.1577,5.1577,5.1577,5.1577,5.1577,5.1577,5.1577,5.306,5.4527,5.613,5.786,5.945,6.1054,6.1054,6.1054,6.1195,6.1195,6.1918,7.5734,7.534,7.4929,7.6359,7.5817,7.5319,7.7167,7.8035,7.8952,8.051,8.1935,8.2916,8.2916,8.4494,8.5916,8.6256,8.6971,8.7546,8.7729,8.7303,8.6782,8.6517,8.572,8.5128,8.4978,8.3435,0.0,8.1898,0.0,0.0,6.7953,6.6786,6.5858,6.4995,6.5602,6.5511,6.4723,6.4989,6.5304,6.5658,6.8208,6.9457,6.9597,7.1782,7.2802,7.2549,7.2404,0.0,0.0,7.1995,7.1811,7.1659,7.1659,7.1659,7.154,7.0706,7.0414,7.0332,6.9471,6.9244,6.9244,6.9244,6.9244,6.9156,6.8859,6.8738,6.8438,6.6834,6.6644,6.6228,6.3629,6.316,6.3053,6.1614,6.1195,6.1195,6.1195,6.0941,6.0027,5.7773,5.6725,5.5452,5.3211,5.2373,5.2127,5.2127,5.2127,5.2127,5.2127,5.2127,5.2127,5.2127,5.1846,5.1577,5.1577,5.1577,5.1577,5.1577,5.1577,5.1577,5.1577,5.306,5.4043,5.44,5.6006,5.7713,5.945,5.945,6.0057,6.1195,6.1195,6.134,7.5902,7.6784,7.7514,7.7861,7.7309,7.7027,7.8156,7.8912,8.0055,8.2439,8.3812,8.4857,8.5817,8.7037,8.792,8.801,8.8638,8.8992,8.8577,8.8408,8.8027,8.7234,8.6818,8.6084,8.4999,8.3849,8.2072,7.9451,0.0,7.3287,6.9784,6.7653,6.6366,6.5921,6.6329,6.6187,6.5501,6.5879,6.5951,6.5751,6.8476,6.9894,7.019,7.2905,7.4086,7.4067,7.4067,0.0,7.2976,7.2976,7.2693,7.2292,7.2292,7.2292,7.2292,7.1693,7.154,7.1463,7.0913,7.0381,6.9999,7.0544,7.0381,6.9915,6.9915,6.9609,6.8948,6.7613,6.7737,6.746,6.4224,6.3839,6.3808,6.1696,6.1195,6.1195,6.1195,6.0685,5.9566,5.786,5.6253,5.4654,5.293,5.206,5.1577,5.1577,5.1577,5.1577,5.1577,5.0723,4.9726,4.8857,4.8719,4.8719,4.8719,4.9566,5.0158,5.0158,5.1017,5.1577,5.1577,5.306,5.3786,5.3786,5.5509,5.6744,5.7713,5.8456,5.9334,6.0057,6.0941,6.1195,7.5374,7.7434,7.9177,7.8989,7.8515,7.8293,7.9133,7.9888,8.1216,8.4145,8.5557,8.6793,8.8389,8.8969,8.9224,8.9338,8.93,8.9241,8.9091,8.9071,8.8736,8.7907,8.7443,8.6445,8.454,8.3722,0.0,0.0,0.0,7.4491,7.1259,6.9018,6.7733,6.744,6.744,6.7202,6.6651,6.6651,6.6459,6.6037,6.8097,6.9828,7.1125,7.3235,7.4569,7.5205,7.5271,0.0,7.3304,7.3332,7.2913,7.2142,7.2142,7.2246,7.2383,7.2241,7.2342,7.2549,7.2366,7.1769,7.1117,7.1875,7.1359,7.037,7.0639,7.0033,6.8948,6.792,6.8348,6.8348,6.4908,6.4806,6.4978,6.2188,6.1614,6.1502,6.1279,6.02,5.9072,5.8574,5.6253,5.4171,5.3528,5.2299,5.1577,5.1577,5.1577,5.1443,5.0992,4.9886,4.8305,4.644,4.6156,4.5993,4.5708,4.7166,4.8166,4.8628,5.0158,5.1151,5.1443,5.2799,5.3425,5.3425,5.4781,5.5758,5.6376,5.7713,5.872,5.9334,6.0685,6.1195,7.8556,7.8297,7.7322,8.0571,7.9254,7.7533,7.8972,7.9986,8.1113,8.2913,8.5223,8.7006,8.7294,8.8748,8.9892,8.9895,8.9703,8.9481,8.9203,8.9098,8.8887,8.854,8.672,8.5316,8.5052,8.1985,7.9426,7.8102,7.655,7.4018,7.0186,6.9677,6.8873,6.7476,6.744,6.74,6.732,6.732,6.728,6.7239,6.8889,6.9809,7.0066,7.1713,7.2287,7.1969,7.2424,0.0,7.1679,7.2153,7.2008,7.1434,7.1434,7.2005,7.271,7.1794,7.2338,7.339,7.2549,7.2184,7.2051,7.1583,7.0225,6.9024,7.0336,7.0033,6.9156,6.8948,6.9036,6.8827,6.7148,6.6834,6.6356,6.3734,6.3053,6.2731,6.1502,6.1054,6.0057,5.723,5.6376,5.5133,5.2299,5.1686,5.1577,5.1577,5.1577,5.0858,4.9179,5.0294,5.0453,4.8466,4.8189,4.7469,4.5851,4.5872,4.6722,4.8466,4.8904,4.975,5.1419,5.1686,5.1819,5.1819,5.206,5.3528,5.6376,5.6622,5.8218,6.0941,6.1166,6.1195,7.7576,7.8934,7.9426,8.0668,7.9877,7.8899,7.9129,7.9512,8.0305,8.1996,8.4047,8.5896,8.6879,8.7718,8.8573,8.9616,8.8946,8.8534,8.9127,8.9306,8.8865,8.7582,8.6523,8.5101,8.3147,8.1402,7.9386,0.0,7.6318,7.4746,7.1692,7.0983,6.9932,6.834,6.8303,6.8303,6.8303,6.8032,6.7266,6.6044,6.8002,6.8371,6.7596,7.043,7.1397,7.0965,0.0,7.2254,7.1758,7.2028,7.1984,7.1758,7.1758,7.2092,7.2367,7.1614,7.1766,7.2258,7.161,7.154,7.1728,7.1438,7.0199,6.8887,6.9576,6.872,6.757,6.757,6.7194,6.6557,6.5206,6.4846,6.4265,6.1692,6.1114,6.0732,5.9479,5.9708,5.9702,5.8234,5.7126,5.5882,5.4527,5.2668,5.1577,5.1577,5.1577,4.9998,4.5911,4.537,4.4552,4.2615,4.2335,4.2054,4.1227,4.2054,4.345,4.5211,4.6336,4.7714,4.9637,4.9637,4.9637,4.9637,4.9637,5.0689,5.3043,5.3913,5.559,5.7751,5.8691,5.9156,7.58,7.8535,8.0487,8.0622,8.0321,7.9853,7.9286,7.9178,7.9545,8.0885,8.2528,8.415,8.5486,8.6029,8.6684,8.8045,8.7277,0.0,8.7852,8.8139,0.0,8.6118,8.5562,8.4264,8.1679,8.1005,0.0,0.0,7.6898,7.5986,7.3398,7.2568,7.122,6.9156,6.9119,6.9072,6.9074,6.8705,6.745,6.5373,6.6585,6.6512,6.5424,6.8274,6.9516,6.9449,7.0767,7.1245,7.1157,7.1277,7.1237,7.1157,7.1157,7.1254,7.145,7.1084,7.1234,7.1307,6.998,6.9796,7.0147,7.0432,6.9564,6.8511,6.8896,6.7853,6.6566,6.6566,6.5951,6.5033,6.4025,6.3632,6.2935,6.0764,6.0219,5.986,5.8345,5.8666,5.9206,5.8943,5.7356,5.5972,5.549,5.2815,5.0638,5.0638,5.035,4.8644,4.4646,4.2744,4.1008,3.9099,3.8439,3.8037,3.7491,3.8859,4.0323,4.2051,4.3543,4.5164,4.6886,4.7315,4.7568,4.7568,4.7995,4.8921,5.0503,5.2046,5.366,5.5171,5.6775,5.7498,7.4455,7.653,7.7881,8.0846,8.0367,7.9181,7.9268,7.9295,7.9346,7.9423,8.0804,8.1994,8.2094,8.3418,8.4516,8.4615,8.4539,8.4543,8.4587,8.4624,8.4591,0.0,0.0,0.0,0.0,0.0,0.0,7.9134,0.0,7.7636,7.4539,7.4312,7.2777,6.9488,6.9375,6.9323,6.9201,6.9269,6.8401,6.6565,6.5041,6.4289,6.4252,6.4671,6.5325,6.6175,6.6755,6.7513,6.8464,6.8983,6.8887,6.8427,6.8427,6.8998,6.9892,6.9888,7.0798,7.1546,6.7921,6.6722,6.6882,6.7854,6.7549,6.7048,6.8581,6.8222,6.7405,6.7405,6.6793,6.6181,6.6181,6.5514,6.4491,6.3111,6.2758,6.2097,5.9762,5.9228,5.9016,5.79,5.6244,5.467,5.3278,5.0492,4.8417,4.8417,4.7052,4.6468,4.7719,4.6502,4.4619,4.2722,4.1124,3.9535,3.7633,3.7633,3.8439,4.0481,4.0618,4.1552,4.3277,4.5011,4.5836,4.5836,4.7442,4.9069,5.0675,5.2189,5.366,5.5197,5.6775,5.7498,7.5522,7.7148,7.8081,7.9654,7.9555,7.9167,7.9249,7.9234,7.923,7.9277,8.0657,8.1823,8.1823,8.2273,8.2932,8.3951,8.3272,8.2954,8.3979,8.4267,8.3941,8.2851,8.219,8.1418,0.0,0.0,0.0,7.9158,7.8964,7.7473,7.4264,7.4069,7.2551,6.9255,6.9141,6.9126,6.9094,6.9126,6.8304,6.6625,6.4018,6.2166,6.1088,6.2329,6.3674,6.5095,6.6369,6.7714,6.8976,6.9185,6.9106,6.8873,6.8873,6.9013,6.9259,6.8882,6.9145,6.9477,6.8471,6.7888,6.7593,6.7649,6.716,6.6586,6.6836,6.6295,6.5595,6.5595,6.4957,6.4322,6.4322,6.3623,6.2635,6.142,6.0146,5.8801,5.7121,5.6878,5.6831,5.6379,5.6468,5.5884,5.3346,5.1955,5.0555,4.8472,4.4697,4.234,4.2842,4.0535,3.8604,3.7811,3.7319,3.6688,3.5896,3.5896,3.6668,3.8493,3.8624,3.939,4.1048,4.1685,4.2591,4.3612,4.4253,4.581,4.8515,4.9964,5.1371,5.2897,5.433,5.4997,7.5153,7.706,7.8288,7.8931,7.914,7.9219,7.9295,7.9201,7.9141,7.9231,8.0084,8.08,8.08,8.0702,8.1007,8.2021,8.1307,8.1057,8.217,8.2517,8.2193,8.1121,8.0986,0.0,0.0,0.0,0.0,7.8592,7.8384,7.711,7.4425,7.3791,7.2331,6.9738,6.9139,6.8942,6.9051,6.9115,6.7994,6.5726,6.3733,6.1547,5.9333,6.0572,6.2394,6.4581,6.571,6.7442,6.9402,6.9402,6.9331,6.9277,6.9277,6.9204,6.9089,6.8705,6.8575,6.8646,6.8795,6.8593,6.8219,6.7634,6.7161,6.674,6.6402,6.5778,6.5219,6.5219,6.4457,6.3686,6.3686,6.2717,6.1617,6.0832,5.9448,5.8021,5.681,5.6301,5.6037,5.5577,5.5882,5.5405,5.2821,5.2042,5.0795,4.8313,4.4361,4.1507,4.0893,3.7898,3.5887,3.5887,3.54,3.5004,3.5004,3.5004,3.5513,3.665,3.663,3.7148,3.826,3.8895,3.9775,4.0893,4.2041,4.3582,4.569,4.7728,4.9153,5.0117,5.2016,5.2979,7.319,7.613,7.8263,7.8811,7.9105,7.9219,7.9231,7.9122,7.9023,7.9023,7.8848,7.8704,7.8666,7.8666,7.8704,7.8704,7.8704,7.8813,7.9089,7.9098,7.9171,7.9264,7.9296,7.928,0.0,7.809,7.739,7.7521,7.7423,7.6612,7.5108,7.3495,7.213,7.0937,6.9386,6.8778,6.9154,6.9225,6.7472,6.3895,6.4112,6.2482,5.9278,5.9394,6.1299,6.4465,6.4503,6.6361,6.9327,6.939,6.939,6.9377,6.9377,6.9415,6.9388,6.9259,6.9274,6.9323,6.8691,6.8448,6.8341,6.767,6.7479,6.7479,6.744,6.6999,6.6479,6.6479,6.5553,6.462,6.4562,6.3238,6.1899,6.1899,6.1245,6.0366,5.9129,5.8021,5.681,5.5606,5.451,5.3276,5.1737,5.0223,4.8828,4.7445,4.5855,4.4365,4.2647,3.965,3.7514,3.7514,3.6018,3.5004,3.4872,3.4872,3.4872,3.4872,3.4872,3.4872,3.4872,3.652,3.7514,3.7514,4.0769,4.2405,4.2526,4.5575,4.7082,4.722,5.0117,5.1401,7.1784,7.5797,7.7966,7.6044,7.6472,7.7358,7.7329,7.7222,7.7155,7.7155,7.8007,7.8367,7.7245,7.7956,7.8704,7.8704,7.8704,7.8763,7.8813,7.8841,7.8939,7.9134,7.875,7.8231,7.7688,7.7267,7.7096,7.7152,7.6416,7.5548,7.4674,7.2506,7.0928,7.014,6.8584,6.783,6.794,6.6764,6.5117,6.3103,6.1917,6.0564,5.9002,5.8931,6.0302,6.2762,6.4004,6.5742,6.7803,6.9127,6.9552,6.9415,6.9625,6.9583,6.9415,6.9562,6.9641,6.9613,6.9256,6.9123,6.9015,6.8368,6.815,6.8065,6.7597,6.732,6.7078,6.6651,6.6246,6.5858,6.5451,6.4585,6.3775,6.3775,6.1972,6.0159,5.9819,5.8364,5.681,5.5606,5.5172,5.3874,5.054,4.9584,4.85,4.597,4.611,4.5203,4.1262,3.99,3.8388,3.5887,3.5249,3.4437,3.3181,3.3029,3.2491,3.1136,3.2356,3.3029,3.3029,3.4664,3.6279,3.7514,3.8388,3.9524,4.0769,4.2678,4.4193,4.5451,4.8345,5.0375,6.9302,7.3022,7.5247,7.3476,7.4327,7.5583,7.5484,7.5394,7.5339,7.5339,7.5892,7.6165,7.5459,7.5892,7.6682,0.0,7.7731,7.7895,7.8333,7.8412,7.8371,7.8249,7.7318,7.6498,7.604,7.5375,7.504,7.504,7.4492,7.3945,7.3565,7.1501,7.0012,6.9249,6.7664,6.6701,6.6288,6.4742,6.3158,6.1643,6.0027,5.8681,5.7507,5.7708,5.8489,5.9882,6.2611,6.5306,6.779,6.8835,6.9338,6.9402,6.9704,6.9694,6.9563,6.9591,6.9705,6.9739,6.9493,6.947,6.9464,6.8997,6.8774,6.8661,6.8328,6.7989,6.7708,6.7327,6.7083,6.674,6.6175,6.5485,6.4799,6.4585,6.2908,6.1307,6.0873,5.9508,5.7947,5.6454,5.576,5.4546,5.1653,5.0645,4.9262,4.6314,4.6085,4.4738,4.0646,4.0025,3.8768,3.5381,3.4304,3.3047,3.1255,3.1102,3.0693,2.9612,3.0557,3.1102,3.1102,3.2086,3.3163,3.4173,3.4777,3.6063,3.7881,3.9391,4.0993,4.2821,4.5848,4.7663,6.6332,6.8784,7.0724,7.0525,7.1823,7.3145,0.0,7.3017,7.3129,7.3129,7.3072,7.3087,7.3465,7.3249,7.3745,7.5766,7.6273,7.6682,7.7541,7.7838,7.7602,7.6672,7.5301,7.4369,7.4369,7.3114,7.2258,7.2042,7.2002,7.1893,7.1858,7.0129,6.8814,6.7962,6.6402,6.5132,6.4171,6.2575,6.105,5.9516,5.7928,5.645,5.5207,5.5886,5.6247,5.6512,6.0572,6.4446,6.7835,6.8329,6.8808,6.9323,6.9556,6.9631,6.9613,6.944,6.9573,6.9708,6.9507,6.9585,6.9765,6.9524,6.9354,6.9261,6.9242,6.8786,6.833,6.8266,6.789,6.74,6.6659,6.5946,6.5306,6.4778,6.3958,6.3079,6.2176,6.1052,5.9709,5.7703,5.6364,5.5142,5.3835,5.232,5.0462,4.7865,4.6199,4.3962,4.0522,4.0025,3.8641,3.5098,3.3181,3.151,2.975,2.9337,2.9199,2.8922,2.906,2.9044,2.889,2.9321,2.9459,2.9167,3.0831,3.2546,3.4193,3.5944,3.7672,3.9481,4.2678,4.4072,0.0,0.0,0.0,0.0,0.0,0.0,0.0,6.778,6.8703,6.8703,7.0692,7.2206,7.1346,7.2233,7.3374,7.4196,7.5488,7.6271,7.5947,7.7097,7.7034,7.4597,7.342,7.2766,7.2766,7.2442,7.1824,7.071,6.9897,6.9366,6.9067,6.6733,6.5261,6.4818,6.3342,6.1918,6.0674,5.8093,5.6652,5.6284,5.3702,5.2518,5.2618,5.3498,5.4114,5.4739,5.8174,6.0873,6.3076,6.6422,6.8164,6.8645,6.879,6.8752,6.8758,6.9225,6.9428,6.9475,6.9632,6.9743,6.977,6.9738,6.9669,6.9631,6.9426,6.9204,6.8931,6.8507,6.8207,6.7818,6.6747,6.6387,6.6151,6.5592,6.4848,6.4054,6.3144,6.2143,6.0932,5.8902,5.7594,5.6033,5.3727,5.1364,4.9584,4.9045,4.7754,4.5203,4.0624,4.0025,3.8198,3.3278,3.2473,3.151,2.975,2.8104,2.6563,2.5034,2.6422,2.6534,2.4912,2.7904,2.8721,2.7073,2.895,3.025,3.0523,3.2403,3.4099,3.5894,3.9099,4.0593,0.0,0.0,0.0,0.0,0.0,0.0,0.0,0.0,0.0,0.0,0.0,6.6689,0.0,0.0,6.8825,7.0916,7.2949,7.4355,7.453,7.5565,7.5483,7.3252,7.211,7.154,7.154,6.9699,6.8249,6.7535,6.5597,6.447,6.4314,6.3027,6.1945,6.1109,5.9776,5.8223,5.629,5.3585,5.1905,5.1408,4.9243,4.8651,4.9503,5.0312,5.1521,5.2971,5.6489,5.9062,6.1043,6.4909,6.7077,6.7756,6.5929,6.5494,6.5955,6.6274,6.6587,6.6884,6.7006,6.7169,6.7267,6.7274,6.7256,6.7387,6.8126,6.816,6.8032,6.8676,6.8721,6.8436,6.7559,6.7166,6.6827,6.6223,6.5608,6.4905,6.4019,6.311,6.1935,5.9884,5.8261,5.6601,5.4646,5.2206,5.0223,4.9477,4.8197,4.5525,4.0624,4.0025,3.8071,3.2859,3.0473,2.8965,2.8228,2.5392,2.3424,2.2587,2.2418,2.1961,2.0926,2.3789,2.477,2.3737,2.5492,2.6776,2.7736,2.834,2.9967,3.2524,3.4097,3.5655,0.0,0.0,0.0,0.0,0.0,0.0,0.0,0.0,0.0,0.0,0.0,0.0,0.0,0.0,0.0,6.7177,6.9676,7.1626,7.2751,7.2993,7.2812,7.2116,7.0879,6.995,6.9599,6.645,6.412,6.3551,6.1252,5.9737,5.9541,5.9115,5.8263,5.6932,5.5403,5.359,5.1637,4.8907,4.7359,4.6796,0.0,0.0,4.6168,4.7256,4.8716,5.0622,5.5055,5.7817,5.9641,6.3586,6.5669,6.6106,6.2771,6.2069,6.291,6.324,6.3722,6.4157,6.4291,6.4471,6.4673,6.4708,6.473,6.5,6.6383,6.6552,0.0,6.7886,6.8143,6.8005,6.7779,6.7447,6.7036,6.6755,6.6223,6.5644,6.4834,6.3863,6.2616,6.0766,5.866,5.681,5.5851,5.316,5.0672,4.9584,4.7616,4.483,4.0624,3.9481,3.7135,3.2303,2.852,2.6448,2.6155,2.2981,2.0961,2.0961,1.9234,1.7776,1.702,1.891,2.0045,1.9968,2.1612,2.3009,2.4204,2.4387,2.5941,2.8706,2.8018,3.0095,0.0,0.0,0.0,0.0,0.0,0.0,0.0,0.0,0.0,0.0,0.0,0.0,0.0,0.0,0.0,0.0,6.643,6.8501,7.0037,6.8597,6.8246,7.0643,6.8981,6.705,6.5531,6.3979,6.1891,5.9201,5.8741,5.8038,5.6879,0.0,0.0,0.0,0.0,4.7378,4.715,4.4221,4.3385,4.4518,4.3175,4.2578,4.285,4.4984,4.607,4.6678,5.3253,5.6315,5.7055,6.2421,6.389,6.2592,6.0934,6.0632,6.1339,6.2806,6.3428,6.3562,6.4137,0.0,0.0,6.4665,6.473,6.4757,6.4975,6.4896,6.4798,6.4869,6.4713,6.4756,6.5737,6.5945,6.6149,6.7112,6.6827,6.6163,6.541,6.4177,6.2849,6.1795,5.9177,5.7074,5.6986,5.2889,4.9584,4.9369,4.5845,4.2382,4.0274,3.735,3.3929,3.0283,0.0,0.0,2.4335,2.2286,2.0961,2.0961,1.9234,1.6568,1.3115,1.5342,1.6552,1.6144,1.8569,1.929,1.8041,2.1316,2.2998,2.3337,2.0257,2.391,0.0,0.0,0.0,0.0,0.0,0.0,0.0,0.0,0.0,0.0,0.0,0.0,0.0,0.0,0.0,0.0,6.2868,6.4152,6.5031,6.5104,6.598,6.8286,6.7819,6.658,6.4848,6.1985,5.9315,5.7154,5.5342,5.4144,5.3528,5.168,4.9903,4.8462,4.5269,4.2832,4.1227,4.0211,3.9686,3.9602,3.9871,4.0442,4.1229,4.2877,4.4355,0.0,5.1148,5.4065,5.546,5.9201,6.061,0.0,0.0,0.0,0.0,0.0,5.9663,6.0503,6.1088,6.1376,6.1444,6.151,6.1667,6.1955,6.298,6.3225,6.3352,6.4207,6.4252,6.4175,6.4592,6.4461,6.4357,6.4863,6.4387,6.3675,6.3331,6.2497,6.1514,6.0416,5.8531,0.0,5.5046,5.1805,4.8869,4.7047,4.5094,4.2508,3.9021,3.6341,3.3399,2.9871,2.6786,2.4255,2.243,2.0391,0.0,0.0,0.0,1.5112,1.2424,1.3141,0.0,0.0,0.0,0.0,0.0,0.0,0.0,0.0,1.3969,2.1411,0.0,0.0,0.0,0.0,0.0,0.0,0.0,0.0,0.0,0.0,0.0,0.0,0.0,0.0,0.0,0.0,0.0,5.9899,5.9727,6.1145,6.2417,6.3087,6.4489,6.4314,6.139,5.8632,5.6393,5.487,5.2281,5.0603,5.0399,4.8439,4.6544,4.4752,4.1673,3.9153,3.731,3.6732,3.6375,3.6378,3.7428,3.866,3.9965,4.1108,4.2787,4.4928,4.9212,5.1782,5.3314,5.656,5.7836,5.7623,5.6115,5.529,5.5007,5.5541,5.6729,5.8076,5.867,5.9029,5.9233,5.9267,5.9406,5.9798,6.1083,6.1466,6.1711,6.2829,6.2988,6.2898,6.3297,6.3062,6.2834,6.3309,6.267,6.2017,6.2017,6.1109,6.0002,5.916,5.7406,5.5133,5.217,4.9915,4.749,4.4468,4.3374,0.0,3.6917,3.4625,3.2215,2.9044,2.5209,2.2369,2.1106,1.8638,1.6604,1.5277,1.4689,1.3606,1.2194,1.184,1.2156,1.3221,1.1692,1.0502,0.0,0.0,0.0,0.0,0.0,0.0,0.0,0.0,0.0,0.0,0.0,0.0,0.0,0.0,0.0,0.0,0.0,0.0,0.0,0.0,0.0,0.0,0.0,0.0,5.4513,5.5978,5.6278,5.381,5.7813,5.8487,5.2732,5.3291,5.327,5.1794,4.9863,4.8302,4.7346,4.5412,4.3308,4.1398,3.8033,3.6491,3.6781,3.3722,3.3675,3.6378,3.6378,3.7224,3.8585,3.994,4.1135,4.2585,4.765,4.98,5.0132,5.5647,5.6322,5.3759,5.3338,5.3639,5.4338,5.4991,5.6055,5.733,5.8076,5.8659,5.9119,5.9252,5.9301,5.9313,5.951,5.9568,5.9563,5.9603,5.9554,5.9811,6.145,6.1781,6.2041,6.3574,6.324,6.2599,6.2599,6.0588,5.8804,5.871,5.5709,5.2096,4.8789,4.6967,4.5045,4.2286,3.9963,0.0,3.3991,3.1377,2.8922,2.7,2.3411,2.1106,2.0961,1.7472,1.5277,1.5128,1.3351,1.2187,1.1748,1.1603,1.1335,1.065,1.0515,0.8847,0.5433,0.0,0.0,0.0,0.0,0.0,0.0,0.0,0.0,0.0,0.0,0.0,0.0,0.0,0.0,0.0,0.0,0.0,0.0,0.0,0.0,0.0,0.0,0.0,0.0,0.0,5.3895,5.2298,5.4487,5.3977,4.8384,4.9479,4.9243,4.6139,4.6369,4.6564,4.6193,4.3356,4.061,3.8221,3.5867,3.436,3.361,3.2566,3.3004,3.4891,3.4891,3.565,3.7122,3.8387,3.9741,4.1213,4.549,4.7274,4.7551,5.1604,5.2186,5.0658,5.1818,5.3073,5.4283,5.45,5.5647,5.7215,5.7758,5.8234,5.8633,5.9044,5.925,5.9445,5.947,5.9654,5.9829,5.9565,5.9445,5.9502,5.9908,6.0002,5.9976,6.0185,5.9799,5.9158,5.8359,5.7675,5.655,5.4622,5.1376,4.8064,4.5524,4.4801,4.2904,3.8112,3.7461,3.6028,3.1732,2.9752,2.7959,2.6368,2.304,2.0536,1.9234,1.6595,1.4437,1.29,1.216,1.1742,1.1438,1.126,1.0984,1.0756,1.0607,0.8401,0.4139,0.0,0.0,0.0,0.0,0.0,0.0,0.0,0.0,0.0,0.0,0.0,0.0,0.0,0.0,0.0,0.0,0.0,0.0,0.0,0.0,0.0,0.0,0.0,0.0,0.0,0.0,4.9804,5.0983,0.0,4.5808,4.5215,4.4287,4.2256,4.1485,4.168,4.2779,4.0741,3.8605,3.6791,3.5698,3.4121,3.2079,3.2059,3.2588,3.3416,3.3955,3.4702,3.565,3.6949,3.8363,3.9842,4.3679,4.5407,4.556,4.8421,4.8865,4.7992,4.999,5.103,5.1605,5.2594,5.3966,5.5521,5.7188,5.7887,5.8197,5.8896,5.9195,5.9359,5.9457,5.9646,5.9825,5.96,5.9536,5.9432,5.9233,5.9141,5.8944,5.8434,5.8014,5.7406,5.623,5.5404,5.4041,5.1328,4.8807,4.6079,4.2829,4.1937,4.0002,3.4864,3.4554,3.3405,2.9222,2.8241,2.6993,2.4768,2.1498,1.9017,1.7752,1.5313,1.3199,1.157,1.1564,1.1432,1.1142,1.0964,1.0087,0.8553,0.8608,0.7062,0.0,0.0,0.0,0.0,0.0,0.0,0.0,0.0,0.0,0.0,0.0,0.0,0.0,0.0,0.0,0.0,0.0,0.0,0.0,0.0,0.0,0.0,0.0,0.0,0.0,0.0,0.0,4.609,4.7097,0.0,0.0,0.0,0.0,4.0059,3.5728,3.4342,3.7445,3.738,3.7033,3.6875,3.7085,3.5626,3.2169,3.2169,3.2169,3.2149,3.3524,3.4276,3.4382,3.5686,3.7004,3.8462,4.2277,4.3904,4.4174,4.6116,4.6359,4.5881,4.764,4.7608,4.6832,4.9653,5.1165,5.2482,5.6367,5.7654,5.7822,5.8759,5.9089,5.9126,5.9379,5.9417,0.0,0.0,5.9327,5.9218,5.9183,5.9042,5.8832,5.8397,5.7983,5.7334,5.6187,5.3883,5.1462,0.0,4.7945,4.554,4.0649,0.0,3.6206,3.2266,3.1309,2.9784,2.6495,2.6765,2.604,2.255,1.8926,1.6627,1.6627,1.3344,1.1267,1.1254,1.1254,1.1135,1.0858,1.0691,0.8553,0.4223,0.4575,0.0,0.0,0.0,0.0,0.0,0.0,0.0,0.0,0.0,0.0,0.0,0.0,0.0,0.0,0.0,0.0,0.0,0.0,0.0,0.0,0.0,0.0,0.0,0.0,0.0,0.0,5.0439,4.8807,4.4666,4.4698,4.3018,0.0,0.0,0.0,0.0,0.0,0.0,3.3951,3.1628,3.1066,3.2557,3.2751,3.3055,3.3653,3.3632,3.3632,3.3632,3.4062,3.4808,3.5813,3.539,3.6391,3.8511,3.9713,4.1169,4.2759,4.4116,4.5137,4.5628,4.5183,4.5931,4.7546,4.9383,5.0909,5.2494,5.5754,5.6858,5.7043,5.8152,5.8784,5.9104,5.9058,0.0,0.0,0.0,0.0,5.6095,5.7018,5.7099,5.7095,5.775,5.7151,5.6108,5.4938,5.3061,5.1094,0.0,4.5747,4.1581,3.746,0.0,0.0,0.0,0.0,2.8944,2.5885,2.6031,2.5055,2.1734,1.8559,1.6217,1.4974,1.2651,1.1188,1.0983,1.097,1.0838,1.0548,0.8227,0.642,0.5204,0.0,0.0,0.0,0.0,0.0,0.0,0.0,0.0,0.0,0.0,0.0,0.0,0.0,0.0,0.0,0.0,0.0,0.0,0.0,0.0,0.0,0.0,0.0,0.0,0.0,0.0,0.0,5.2196,5.1121,4.8653,4.5785,4.2597,0.0,0.0,0.0,0.0,0.0,0.0,0.0,0.0,0.0,3.1116,3.1233,3.0947,3.0345,3.2225,3.2899,3.2225,3.421,3.5208,3.5418,3.5471,3.6253,3.7607,3.949,4.047,4.0809,4.2519,4.2406,4.1161,0.0,0.0,0.0,0.0,4.7359,4.9514,5.2642,5.4186,0.0,5.5929,0.0,0.0,0.0,0.0,0.0,0.0,0.0,0.0,0.0,0.0,5.7136,5.7217,5.6576,5.56,5.4048,5.119,4.8274,0.0,4.2543,3.8541,3.4585,0.0,0.0,0.0,0.0,2.6695,2.3544,2.463,2.4251,2.0265,1.7598,1.5533,1.3808,1.196,1.0838,1.068,1.0674,1.0001,0.8417,0.6627,0.4275,0.0,0.0,0.0,0.0,0.0,0.0,0.0,0.0,0.0,0.0,0.0,0.0,0.0,0.0,0.0,0.0,0.0,0.0,0.0,0.0,0.0,0.0,0.0,0.0,0.0,0.0,0.0,0.0,0.0,5.56,5.4192,0.0,0.0,0.0,0.0,0.0,0.0,0.0,0.0,0.0,0.0,0.0,0.0,0.0,2.9211,2.5844,2.9708,3.0875,2.9687,3.3631,3.5044,3.3906,3.5026,3.5814,3.6557,3.9764,0.0,3.9418,4.0583,0.0,0.0,0.0,0.0,0.0,0.0,0.0,0.0,0.0,0.0,0.0,0.0,0.0,0.0,0.0,0.0,0.0,0.0,0.0,0.0,0.0,0.0,5.7345,5.6383,5.5865,5.4978,0.0,4.847,4.4394,4.2014,3.897,0.0,0.0,0.0,0.0,0.0,0.0,0.0,2.0753,2.2825,2.2974,1.849,1.6357,1.4583,1.2807,1.1303,1.0552,1.0552,1.0023,0.8471,0.5736,0.5207,0.0,0.0,0.0,0.0,0.0,0.0,0.0,0.0,0.0,0.0,0.0,0.0,0.0,0.0,0.0,0.0,0.0,0.0,0.0,0.0,0.0,0.0,0.0,0.0,0.0,0.0,0.0,0.0,0.0,0.0,0.0,0.0,0.0,0.0,0.0,0.0,0.0,0.0,0.0,0.0,0.0,0.0,0.0,0.0,0.0,0.0,0.0,0.0,0.0,0.0,3.0802,3.1944,3.2244,3.1505,3.3299,3.6731,3.5572,3.7614,4.1314,3.7077,0.0,0.0,0.0,0.0,0.0,0.0,0.0,0.0,0.0,0.0,0.0,0.0,0.0,0.0,0.0,0.0,0.0,0.0,0.0,0.0,0.0,0.0,0.0,0.0,5.3679,5.2354,0.0,0.0,0.0,0.0,0.0,0.0,0.0,0.0,0.0,0.0,0.0,0.0,2.0509,2.0874,2.036,1.8125,1.5292,1.2815,1.1053,1.0674,1.0552,1.0552,0.778,0.5938,0.0,0.0,0.0,0.0,0.0,0.0,0.0,0.0,0.0,0.0,0.0,0.0,0.0,0.0,0.0,0.0,0.0,0.0,0.0,0.0,0.0,0.0,0.0,0.0,0.0,0.0,0.0,0.0,0.0,0.0,0.0,0.0,0.0,0.0,0.0,0.0,0.0,0.0,0.0,0.0,0.0,0.0,0.0,0.0,0.0,0.0,0.0,0.0,0.0,0.0,0.0,0.0,0.0,0.0,0.0,0.0,0.0,0.0,0.0,3.5346,0.0,0.0,0.0,0.0,0.0,0.0,0.0,0.0,0.0,0.0,0.0,0.0,0.0,0.0,0.0,0.0,0.0,0.0,0.0,0.0,0.0,0.0,0.0,0.0,0.0,0.0,0.0,0.0,0.0,0.0,0.0,0.0,0.0,0.0,0.0,0.0,0.0,0.0,0.0,0.0,1.6907,1.8766,1.9135,1.5773,1.3924,1.2312,1.0681,1.0552,1.0552,1.0436,0.729,0.0,0.0,0.0,0.0,0.0,0.0,0.0,0.0,0.0,0.0,0.0,0.0,0.0,0.0,0.0,0.0,0.0,0.0,0.0,0.0,0.0,0.0,0.0,0.0,0.0,0.0,0.0,0.0,0.0,0.0,0.0,0.0,0.0,0.0,0.0,0.0,0.0,0.0,0.0,0.0,0.0,0.0,0.0,0.0,0.0,0.0,0.0,0.0,0.0,0.0,0.0,0.0,0.0,0.0,0.0,0.0,0.0,0.0,0.0,3.6251,0.0,0.0,0.0,0.0,0.0,0.0,0.0,0.0,0.0,0.0,0.0,0.0,0.0,0.0,0.0,0.0,0.0,0.0,0.0,0.0,0.0,0.0,0.0,0.0,0.0,0.0,0.0,0.0,0.0,0.0,0.0,0.0,0.0,0.0,0.0,0.0,0.0,0.0,0.0,0.0,0.0,1.3561,1.6794,1.7788,1.3434,1.2687,1.1929,1.0545,1.0552,1.0532,1.0492,0.6792,0.0,0.0,0.0,0.0,0.0,0.0,0.0,0.0,0.0,0.0,0.0,0.0,0.0,0.0,0.0,0.0,0.0,0.0,0.0,0.0,0.0,0.0,0.0,0.0,0.0,0.0,0.0,0.0,0.0,0.0,0.0,0.0,0.0,0.0,0.0,0.0,0.0,0.0,0.0,0.0,0.0,0.0,0.0,0.0,0.0,0.0,0.0,0.0,0.0,0.0,0.0,0.0,0.0,0.0,0.0,0.0,0.0,0.0,0.0,0.0,0.0,0.0,0.0,0.0,0.0,0.0,0.0,0.0,0.0,0.0,0.0,0.0,0.0,0.0,0.0,0.0,0.0,0.0,0.0,0.0,0.0,0.0,0.0,0.0,0.0,0.0,0.0,0.0,0.0,0.0,0.0,0.0,0.0,0.0,0.0,0.0,0.0,0.0,0.0,0.0,0.0,1.3316,1.471,1.5205,1.3188,1.168,1.0674,1.0552,1.0552,1.0445,1.0454,0.0,0.0,0.0,0.0,0.0,0.0,0.0,0.0,0.0,0.0,0.0,0.0,0.0,0.0,0.0,0.0,0.0,0.0,0.0,0.0,0.0,0.0,0.0,0.0,0.0,0.0,0.0,0.0,0.0,0.0,0.0,0.0,0.0,0.0,0.0,0.0,0.0,0.0,0.0,0.0,0.0,0.0,0.0,0.0,0.0,0.0,0.0,0.0,0.0,0.0,0.0,0.0,0.0,0.0,0.0,0.0,0.0,0.0,0.0,0.0,0.0,0.0,0.0,0.0,0.0,0.0,0.0,0.0,0.0,0.0,0.0,0.0,0.0,0.0,0.0,0.0,0.0,0.0,0.0,0.0,0.0,0.0,0.0,0.0,0.0,0.0,0.0,0.0,0.0,0.0,0.0,0.0,0.0,0.0,0.0,0.0,0.0,0.0,0.0,0.0,0.0,0.0,1.1808,1.3832,1.4466,1.1808,1.0932,1.0552,1.0552,1.0552,1.0438,1.0558,0.0,0.0,0.0,0.0,0.0,0.0,0.0,0.0,0.0,0.0,0.0,0.0,0.0,0.0,0.0,0.0,0.0,0.0,0.0,0.0,0.0,0.0,0.0,0.0,0.0,0.0,0.0,0.0,0.0,0.0,0.0,0.0,0.0,0.0,0.0,0.0,0.0,0.0,0.0,0.0,0.0,0.0,0.0,0.0,0.0,0.0,0.0,0.0,0.0,0.0,0.0,0.0,0.0,0.0,0.0,0.0,0.0,0.0,0.0,0.0,0.0,0.0,0.0,0.0,0.0,0.0,0.0,0.0,0.0,0.0,0.0,0.0,0.0,0.0,0.0,0.0,0.0,0.0,0.0,0.0,0.0,0.0,0.0,0.0,0.0,0.0,0.0,0.0,0.0,0.0,0.0,0.0,0.0,0.0,0.0,0.0,0.0,0.0,0.0,0.0,0.0,0.0,1.0932,1.3078,1.3705,1.0803,1.0552,1.0552,1.0552,1.0552,1.0011,0.8669,0.0,0.0,0.0,0.0,0.0,0.0,0.0,0.0,0.0,0.0,0.0,0.0,0.0,0.0,0.0,0.0,0.0,0.0,0.0,0.0,0.0,0.0,0.0,0.0,0.0,0.0,0.0,0.0,0.0,0.0,0.0,0.0,0.0,0.0,0.0,0.0,0.0,0.0,0.0,0.0,0.0,0.0,0.0,0.0,0.0,0.0,0.0,0.0,0.0,0.0,0.0,0.0,0.0,0.0,0.0,0.0,0.0,0.0,0.0,0.0,0.0,0.0,0.0,0.0,0.0,0.0,0.0,0.0,0.0,0.0,0.0,0.0,0.0,0.0,0.0,0.0,0.0,0.0,0.0,0.0,0.0,0.0,0.0,0.0,0.0,0.0,0.0,0.0,0.0,0.0,0.0,0.0,0.0,0.0,0.0,0.0,0.0,0.0,0.0,0.0,0.0,0.0,1.0674,1.1929,1.2432,1.0674,1.0552,1.0552,1.0552,1.0552,0.8636,0.0,0.0,0.0,0.0,0.0,0.0,0.0,0.0,0.0,0.0,0.0,0.0,0.0,0.0,0.0,0.0,0.0,0.0,0.0,0.0,0.0,0.0,0.0,0.0,0.0,0.0,0.0,0.0,0.0,0.0,0.0,0.0,0.0,0.0,0.0,0.0,0.0,0.0,0.0,0.0,0.0,0.0,0.0,0.0,0.0,0.0,0.0,0.0,0.0,0.0,0.0,0.0,0.0,0.0,0.0,0.0,0.0,0.0,0.0,0.0,0.0,0.0,0.0,0.0,0.0,0.0,0.0,0.0,0.0,0.0,0.0,0.0,0.0,0.0,0.0,0.0,0.0,0.0,0.0,0.0,0.0,0.0,0.0,0.0,0.0,0.0,0.0,0.0,0.0,0.0,0.0,0.0,0.0,0.0,0.0,0.0,0.0,0.0,0.0,0.0,0.0,0.0,0.0,1.0336,1.2132,1.2729,0.0,1.0238,1.0113,1.0113,0.9942,0.9192,0.7912,0.0,0.0,0.0,0.0,0.0,0.0,0.0,0.0,0.0,0.0,0.0,0.0,0.0,0.0,0.0,0.0,0.0,0.0,0.0,0.0,0.0,0.0,0.0,0.0,0.0,0.0,0.0,0.0,0.0,0.0,0.0,0.0,0.0,0.0,0.0,0.0,0.0,0.0,0.0,0.0,0.0,0.0,0.0,0.0,0.0,0.0,0.0,0.0,0.0,0.0,0.0,0.0,0.0,0.0,0.0,0.0,0.0,0.0,0.0,0.0,0.0,0.0,0.0,0.0,0.0,0.0,0.0,0.0,0.0,0.0,0.0,0.0,0.0,0.0,0.0,0.0,0.0,0.0,0.0,0.0,0.0,0.0,0.0,0.0,0.0,0.0,0.0,0.0,0.0,0.0,0.0,0.0,0.0,0.0,0.0,0.0,0.0,0.0,0.0,0.0,0.0,0.0,0.0,1.1352,1.1814,0.0,0.9988,0.9816,0.9816,0.9658,0.885,0.7096,0.0,0.0,0.0,0.0,0.0,0.0,0.0,0.0,0.0,0.0,0.0,0.0,0.0,0.0,0.0,0.0,0.0,0.0,0.0,0.0,0.0,0.0,0.0,0.0,0.0,0.0,0.0,0.0,0.0,0.0,0.0,0.0,0.0,0.0,0.0,0.0,0.0,0.0,0.0,0.0,0.0,0.0,0.0,0.0,0.0,0.0,0.0,0.0,0.0,0.0,0.0,0.0,0.0,0.0,0.0,0.0,0.0,0.0,0.0,0.0,0.0,0.0,0.0,0.0,0.0,0.0,0.0,0.0,0.0,0.0,0.0,0.0,0.0,0.0,0.0,0.0,0.0,0.0,0.0,0.0,0.0,0.0,0.0,0.0,0.0,0.0,0.0,0.0,0.0,0.0,0.0,0.0,0.0,0.0,0.0,0.0,0.0,0.0,0.0,0.0,0.0,0.0,0.0,0.9915,0.9922,0.9942,0.9698,0.9533,0.9533,0.9513,0.7725,0.3623,0.1467,0.0,0.0,0.0,0.0,0.0,0.0,0.0,0.0,0.0,0.0,0.0,0.0,0.0,0.0,0.0,0.0,0.0,0.0,0.0,0.0,0.0,0.0,0.0,0.0,0.0,0.0,0.0,0.0,0.0,0.0,0.0,0.0,0.0,0.0,0.0,0.0,0.0,0.0,0.0,0.0,0.0,0.0,0.0,0.0,0.0,0.0,0.0,0.0,0.0,0.0,0.0,0.0,0.0,0.0,0.0,0.0,0.0,0.0,0.0,0.0,0.0,0.0,0.0,0.0,0.0,0.0,0.0,0.0,0.0,0.0,0.0,0.0,0.0,0.0,0.0,0.0,0.0,0.0,0.0,0.0,0.0,0.0,0.0,0.0,0.0,0.0,0.0,0.0,0.0,0.0,0.0,0.0,0.0,0.0,0.0,0.0,0.0,0.0,0.0,0.0,0.0,0.0,1.0373,0.9791,0.9638,0.9395,0.9223,0.9223,0.9012,0.8519,0.7469,0.4818,0.0,0.0,0.0,0.0,0.0,0.0,0.0,0.0,0.0,0.0,0.0,0.0,0.0,0.0,0.0,0.0,0.0,0.0,0.0,0.0,0.0,0.0,0.0,0.0,0.0,0.0,0.0,0.0,0.0,0.0,0.0,0.0,0.0,0.0,0.0,0.0,0.0,0.0,0.0,0.0,0.0,0.0,0.0,0.0,0.0,0.0,0.0,0.0,0.0,0.0,0.0,0.0,0.0,0.0,0.0,0.0,0.0,0.0,0.0,0.0,0.0,0.0,0.0,0.0,0.0,0.0,0.0,0.0,0.0,0.0,0.0,0.0,0.0,0.0,0.0,0.0,0.0,0.0,0.0,0.0,0.0,0.0,0.0,0.0,0.0,0.0,0.0,0.0,0.0,0.0,0.0,0.0,0.0,0.0,0.0,0.0,0.0,0.0,0.0,0.0,0.0,0.0,0.9913,0.9545,0.9342,0.9091,0.8913,0.8913,0.8877,0.879,0.8709,0.8366,0.0,0.0,0.0,0.0,0.0,0.0,0.0,0.0,0.0,0.0,0.0,0.0,0.0,0.0,0.0,0.0,0.0,0.0,0.0,0.0,0.0,0.0,0.0,0.0,0.0,0.0,0.0,0.0,0.0,0.0,0.0,0.0,0.0,0.0,0.0,0.0,0.0,0.0,0.0,0.0,0.0,0.0,0.0,0.0,0.0,0.0,0.0,0.0,0.0,0.0,0.0,0.0,0.0,0.0,0.0,0.0,0.0,0.0,0.0,0.0,0.0,0.0,0.0,0.0,0.0,0.0,0.0,0.0,0.0,0.0,0.0,0.0,0.0,0.0,0.0,0.0,0.0,0.0,0.0,0.0,0.0,0.0,0.0,0.0,0.0,0.0,0.0,0.0,0.0,0.0,0.0,0.0,0.0,0.0,0.0,0.0,0.0,0.0,0.0,0.0,0.0,0.0,0.0,0.9492,0.9164,0.893,0.8783,0.8783,0.8884,0.8998,0.881,0.0,0.0,0.0,0.0,0.0,0.0,0.0,0.0,0.0,0.0,0.0,0.0,0.0,0.0,0.0,0.0,0.0,0.0,0.0,0.0,0.0,0.0,0.0,0.0,0.0,0.0,0.0,0.0,0.0,0.0,0.0,0.0,0.0,0.0,0.0,0.0,0.0,0.0,0.0,0.0,0.0,0.0,0.0,0.0,0.0,0.0,0.0,0.0,0.0,0.0,0.0,0.0,0.0,0.0,0.0,0.0,0.0,0.0,0.0,0.0,0.0,0.0,0.0,0.0,0.0,0.0,0.0,0.0,0.0,0.0,0.0,0.0,0.0,0.0,0.0,0.0,0.0,0.0,0.0,0.0,0.0,0.0,0.0,0.0,0.0,0.0,0.0,0.0,0.0,0.0,0.0,0.0,0.0,0.0,0.0,0.0,0.0,0.0,0.0,0.0,0.0,0.0,0.0,0.0,0.0,0.9066,0.881,0.8783,0.8783,0.9725,0.9931,0.8783,0.0,0.0,0.0,0.0,0.0,0.0,0.0,0.0,0.0,0.0,0.0,0.0,0.0,0.0]}]]]